J4265 / OY-JZJ 7700 Squawk Report (17th of April, 2019)

Time Lat Lon Altitude Heading Speed Vertical Rate
2019-04-17 15:07:49 GMT 27.938210 -15.388374 0 199 0 0
2019-04-17 15:07:14 GMT 27.938023 -15.387818 0 199 4 0
2019-04-17 15:06:56 GMT 27.937981 -15.387454 0 199 6 0
2019-04-17 15:06:49 GMT 27.938187 -15.387376 0 199 11 0
2019-04-17 15:05:08 GMT 27.940630 -15.385262 0 337 5 0
2019-04-17 15:05:04 GMT 27.940601 -15.385191 0 337 4 0
2019-04-17 15:04:54 GMT 27.940536 -15.385006 0 337 5 0
2019-04-17 15:04:44 GMT 27.940430 -15.384794 0 337 6 0
2019-04-17 15:04:33 GMT 27.940247 -15.384610 0 337 7 0
2019-04-17 15:04:23 GMT 27.939943 -15.384468 0 348 10 0
2019-04-17 15:04:13 GMT 27.939407 -15.384373 0 351 19 0
2019-04-17 15:04:02 GMT 27.938244 -15.384240 0 357 28 0
2019-04-17 15:03:51 GMT 27.936871 -15.384409 0 16 30 0
2019-04-17 15:03:41 GMT 27.935452 -15.385005 0 22 46 0
2019-04-17 15:03:31 GMT 27.932915 -15.386128 0 22 78 0
2019-04-17 15:03:20 GMT 27.929050 -15.387845 0 22 115 0
2019-04-17 15:03:10 GMT 27.923309 -15.390395 -25 21 138 -128
2019-04-17 15:02:59 GMT 27.917130 -15.393141 75 21 141 -704
2019-04-17 15:02:49 GMT 27.910629 -15.395991 225 21 143 -704
2019-04-17 15:02:38 GMT 27.904062 -15.398923 350 21 148 -704
2019-04-17 15:02:28 GMT 27.897171 -15.401951 500 21 150 -832
2019-04-17 15:02:17 GMT 27.890488 -15.404853 625 20 151 -704
2019-04-17 15:02:07 GMT 27.883440 -15.407903 775 21 152 -704
2019-04-17 15:01:56 GMT 27.876160 -15.411124 925 21 152 -768
2019-04-17 15:01:45 GMT 27.869293 -15.414129 1,075 21 152 -640
2019-04-17 15:01:35 GMT 27.862518 -15.417083 1,200 21 153 -768
2019-04-17 15:01:25 GMT 27.855602 -15.420157 1,350 22 157 -832
2019-04-17 15:01:14 GMT 27.848419 -15.423405 1,500 21 161 -832
2019-04-17 15:01:03 GMT 27.840658 -15.426865 1,650 21 167 -960
2019-04-17 15:00:53 GMT 27.833496 -15.430039 1,825 21 167 -832
2019-04-17 15:00:42 GMT 27.825302 -15.433563 1,975 21 168 -896
2019-04-17 15:00:32 GMT 27.818115 -15.436672 2,125 21 171 -896
2019-04-17 15:00:22 GMT 27.810448 -15.440017 2,300 21 174 -1024
2019-04-17 15:00:11 GMT 27.802185 -15.443720 2,450 21 179 -576
2019-04-17 15:00:00 GMT 27.793177 -15.447781 2,575 22 184 -576
2019-04-17 14:59:50 GMT 27.785587 -15.451267 2,725 21 189 -1408
2019-04-17 14:59:40 GMT 27.776779 -15.454603 2,925 13 192 -448
2019-04-17 14:59:29 GMT 27.766920 -15.456073 2,950 359 204 0
2019-04-17 14:59:18 GMT 27.756865 -15.454172 2,950 347 212 128
2019-04-17 14:59:08 GMT 27.746796 -15.451441 2,925 347 218 -64
2019-04-17 14:58:57 GMT 27.736382 -15.448203 3,050 339 217 -832
2019-04-17 14:58:47 GMT 27.727304 -15.442393 3,150 318 218 -384
2019-04-17 14:58:36 GMT 27.720612 -15.431956 3,250 290 223 -640
2019-04-17 14:58:25 GMT 27.718552 -15.420037 3,375 269 226 -1024
2019-04-17 14:58:15 GMT 27.719330 -15.408325 3,550 265 225 -896
2019-04-17 14:58:05 GMT 27.720428 -15.395991 3,700 265 224 -704
2019-04-17 14:57:53 GMT 27.721579 -15.382391 3,800 265 224 -320
2019-04-17 14:57:43 GMT 27.722881 -15.371088 3,875 258 222 -640
2019-04-17 14:57:33 GMT 27.726885 -15.359679 4,000 237 223 -768
2019-04-17 14:57:22 GMT 27.734299 -15.351321 4,125 212 226 -704
2019-04-17 14:57:12 GMT 27.744415 -15.345465 4,250 205 228 -832
2019-04-17 14:57:01 GMT 27.754444 -15.340400 4,400 205 230 -1088
2019-04-17 14:56:51 GMT 27.764593 -15.335382 4,650 204 228 -1536
2019-04-17 14:56:40 GMT 27.774765 -15.330436 4,925 204 224 -1216
2019-04-17 14:56:30 GMT 27.785028 -15.325558 5,100 203 225 -832
2019-04-17 14:56:19 GMT 27.795227 -15.320797 5,250 203 227 -960
2019-04-17 14:56:08 GMT 27.805984 -15.315771 5,425 202 229 -1216
2019-04-17 14:55:57 GMT 27.817150 -15.310716 5,600 202 232 -512
2019-04-17 14:55:48 GMT 27.837112 -15.301779 5,725 202 242 -448
2019-04-17 14:55:37 GMT 27.837112 -15.301779 5,750 202 243 -448
2019-04-17 14:55:27 GMT 27.848433 -15.296666 5,850 202 248 -640
2019-04-17 14:55:15 GMT 27.861008 -15.291207 5,950 200 257 -512
2019-04-17 14:55:05 GMT 27.873106 -15.287634 6,050 192 268 -384
2019-04-17 14:54:55 GMT 27.885315 -15.284884 6,125 192 275 -768
2019-04-17 14:54:45 GMT 27.898682 -15.281879 6,350 192 277 -1728
2019-04-17 14:54:34 GMT 27.912048 -15.278769 6,650 192 277 -1728
2019-04-17 14:54:23 GMT 27.925524 -15.275644 6,950 192 278 -1536
2019-04-17 14:54:12 GMT 27.939606 -15.272475 7,225 192 279 -1600
2019-04-17 14:54:03 GMT 27.951279 -15.269781 7,600 192 283 -1088
2019-04-17 14:53:53 GMT 27.964722 -15.266634 7,650 192 283 -1152
2019-04-17 14:53:40 GMT 27.980621 -15.263760 7,875 183 292 -1216
2019-04-17 14:53:31 GMT 27.992792 -15.265018 8,100 165 301 -1536
2019-04-17 14:53:21 GMT 28.006393 -15.269728 8,300 161 306 -1152
2019-04-17 14:53:11 GMT 28.020401 -15.275063 8,550 161 307 -1856
2019-04-17 14:53:00 GMT 28.034454 -15.280503 8,850 161 307 -1792
2019-04-17 14:52:50 GMT 28.048737 -15.286049 9,200 160 305 -1984
2019-04-17 14:52:39 GMT 28.062927 -15.291595 9,500 160 305 -1664
2019-04-17 14:52:29 GMT 28.076843 -15.297036 9,800 160 305 -1600
2019-04-17 14:52:18 GMT 28.091125 -15.302635 10,050 160 308 -1280
2019-04-17 14:52:08 GMT 28.104795 -15.307994 10,425 161 314 -1216
2019-04-17 14:51:57 GMT 28.119781 -15.313832 10,500 161 314 -1280
2019-04-17 14:51:47 GMT 28.134201 -15.319378 10,725 161 317 -1344
2019-04-17 14:51:36 GMT 28.149206 -15.325120 11,000 161 320 -1856
2019-04-17 14:51:25 GMT 28.164505 -15.330946 11,325 160 319 -1920
2019-04-17 14:51:14 GMT 28.179565 -15.336861 11,700 160 316 -2432
2019-04-17 14:51:05 GMT 28.192921 -15.342192 12,050 160 315 -1664
2019-04-17 14:50:54 GMT 28.207258 -15.347900 12,275 160 316 -1024
2019-04-17 14:50:43 GMT 28.222504 -15.353975 12,450 160 322 -1152
2019-04-17 14:50:33 GMT 28.236649 -15.359415 12,725 163 319 -1728
2019-04-17 14:50:23 GMT 28.251343 -15.363007 12,900 175 316 -320
2019-04-17 14:50:12 GMT 28.267365 -15.362109 13,075 193 312 -1408
2019-04-17 14:50:02 GMT 28.282021 -15.357433 13,325 198 314 -1472
2019-04-17 14:49:51 GMT 28.297485 -15.351967 13,600 198 316 -1536
2019-04-17 14:49:41 GMT 28.311069 -15.347200 13,825 198 318 -1408
2019-04-17 14:49:30 GMT 28.326105 -15.341923 14,000 198 324 -384
2019-04-17 14:49:20 GMT 28.341385 -15.336597 14,100 198 333 -576
2019-04-17 14:49:09 GMT 28.356903 -15.331157 14,200 198 342 -448
2019-04-17 14:48:59 GMT 28.373636 -15.325281 14,275 198 352 -896
2019-04-17 14:48:48 GMT 28.389816 -15.319642 14,550 198 355 -2112
2019-04-17 14:48:38 GMT 28.406408 -15.313810 14,900 198 358 -2112
2019-04-17 14:48:28 GMT 28.422501 -15.308233 15,250 198 360 -2048
2019-04-17 14:48:17 GMT 28.439648 -15.302178 15,600 198 363 -2048
2019-04-17 14:48:06 GMT 28.456732 -15.296146 15,950 198 365 -2048
2019-04-17 14:47:55 GMT 28.474731 -15.289747 16,325 198 368 -2112
2019-04-17 14:47:45 GMT 28.491226 -15.283921 16,675 198 369 -2112
2019-04-17 14:47:35 GMT 28.508310 -15.277943 17,000 198 371 -2048
2019-04-17 14:47:24 GMT 28.525814 -15.271858 17,375 198 373 -2112
2019-04-17 14:47:14 GMT 28.543259 -15.265714 17,725 198 376 -2176
2019-04-17 14:47:03 GMT 28.561426 -15.259310 18,125 198 377 -2176
2019-04-17 14:46:52 GMT 28.578644 -15.253196 18,475 198 379 -2240
2019-04-17 14:46:42 GMT 28.596621 -15.246815 18,875 198 381 -2240
2019-04-17 14:46:31 GMT 28.614395 -15.240467 19,250 198 383 -2176
2019-04-17 14:46:21 GMT 28.632065 -15.234181 19,600 198 386 -2048
2019-04-17 14:46:10 GMT 28.650284 -15.227843 19,950 197 390 -2048
2019-04-17 14:46:00 GMT 28.668274 -15.221558 20,300 198 392 -2112
2019-04-17 14:45:49 GMT 28.686932 -15.215041 20,675 198 394 -2112
2019-04-17 14:45:39 GMT 28.705307 -15.208564 21,025 198 396 -2112
2019-04-17 14:45:28 GMT 28.723663 -15.202120 21,400 198 400 -2112
2019-04-17 14:45:18 GMT 28.741911 -15.195654 21,750 198 402 -2176
2019-04-17 14:45:07 GMT 28.761749 -15.188651 22,125 198 405 -2176
2019-04-17 14:44:56 GMT 28.781113 -15.181732 22,475 198 406 -2176
2019-04-17 14:44:45 GMT 28.800426 -15.174812 22,900 198 409 -2176
2019-04-17 14:44:35 GMT 28.819326 -15.168080 23,275 198 412 -2240
2019-04-17 14:44:24 GMT 28.838366 -15.161348 23,700 198 414 -2240
2019-04-17 14:44:14 GMT 28.857546 -15.154616 24,025 198 417 -2240
2019-04-17 14:44:03 GMT 28.878307 -15.147400 24,400 198 419 -2240
2019-04-17 14:43:52 GMT 28.898621 -15.140322 24,825 198 422 -2240
2019-04-17 14:43:42 GMT 28.917755 -15.133561 25,200 198 425 -2304
2019-04-17 14:43:31 GMT 28.937393 -15.126695 25,600 198 427 -2304
2019-04-17 14:43:20 GMT 28.958471 -15.119288 26,025 198 430 -2304
2019-04-17 14:43:13 GMT 28.973877 -15.113860 26,325 198 431 -2240
2019-04-17 14:43:10 GMT 28.977510 -15.112556 26,375 198 432 -2240
2019-04-17 14:43:00 GMT 28.997808 -15.105393 26,775 198 434 -2304
2019-04-17 14:42:49 GMT 29.018051 -15.098173 27,175 198 436 -2304
2019-04-17 14:42:39 GMT 29.037781 -15.091148 27,575 198 439 -2368
2019-04-17 14:42:31 GMT 29.055067 -15.085036 27,925 198 439 -2304
2019-04-17 14:42:28 GMT 29.058931 -15.083636 28,000 198 441 -2368
2019-04-17 14:42:18 GMT 29.079647 -15.076258 28,400 198 443 -2368
2019-04-17 14:42:10 GMT 29.096329 -15.070232 28,725 198 445 -2240
2019-04-17 14:42:07 GMT 29.100311 -15.068858 28,800 198 446 -2304
2019-04-17 14:41:59 GMT 29.117121 -15.062794 29,125 198 448 -2368
2019-04-17 14:41:56 GMT 29.121496 -15.061233 29,225 198 449 -2368
2019-04-17 14:41:46 GMT 29.142586 -15.053693 29,625 198 451 -2368
2019-04-17 14:41:35 GMT 29.163813 -15.046099 30,050 198 453 -2432
2019-04-17 14:41:25 GMT 29.184906 -15.038540 30,475 198 456 -2432
2019-04-17 14:41:14 GMT 29.207108 -15.030565 30,975 198 459 -2496
2019-04-17 14:41:03 GMT 29.228210 -15.022959 31,325 198 460 -2560
2019-04-17 14:40:53 GMT 29.249817 -15.015247 31,775 198 463 -2432
2019-04-17 14:40:42 GMT 29.271194 -15.007641 32,175 198 465 -2496
2019-04-17 14:40:32 GMT 29.292995 -14.999892 32,650 198 466 -3072
2019-04-17 14:40:24 GMT 29.309242 -14.994130 33,075 198 465 -3072
2019-04-17 14:40:21 GMT 29.314728 -14.992112 33,200 198 465 -3072
2019-04-17 14:40:11 GMT 29.336197 -14.984401 33,750 198 464 -3072
2019-04-17 14:40:03 GMT 29.352905 -14.978432 34,150 198 464 -3136
2019-04-17 14:40:00 GMT 29.359177 -14.976161 34,300 198 464 -3008
2019-04-17 14:39:50 GMT 29.379547 -14.968872 34,800 198 463 -2944
2019-04-17 14:39:42 GMT 29.395935 -14.962956 35,200 198 462 -3072
2019-04-17 14:39:38 GMT 29.402481 -14.960580 35,375 198 462 -3072
2019-04-17 14:39:32 GMT 29.417755 -14.955031 35,775 198 460 -3008
2019-04-17 14:39:29 GMT 29.422644 -14.953308 35,875 198 460 -2816
2019-04-17 14:39:21 GMT 29.439102 -14.947322 36,250 198 460 -2496
2019-04-17 14:39:18 GMT 29.443954 -14.945579 36,350 198 460 -2560
2019-04-17 14:39:10 GMT 29.459606 -14.939898 36,950 198 460 -2496
2019-04-17 14:39:07 GMT 29.465881 -14.937603 36,800 198 460 -2496
2019-04-17 14:39:00 GMT 29.481354 -14.932057 37,150 198 459 -2560
2019-04-17 14:38:57 GMT 29.486839 -14.930097 37,250 198 459 -2368
2019-04-17 14:38:50 GMT 29.507927 -14.922503 37,575 198 460 -2240
2019-04-17 14:38:47 GMT 29.507927 -14.922503 37,675 198 460 -2240
2019-04-17 14:38:39 GMT 29.524017 -14.916740 37,975 198 460 -2240
2019-04-17 14:38:36 GMT 29.530319 -14.914479 38,100 198 461 -2176
2019-04-17 14:38:29 GMT 29.544342 -14.909398 38,350 198 461 -2112
2019-04-17 14:38:25 GMT 29.552490 -14.906493 38,500 198 462 -2048
2019-04-17 14:38:17 GMT 29.569050 -14.900531 38,750 198 463 -1536
2019-04-17 14:38:14 GMT 29.573364 -14.898993 38,800 198 464 -1152
2019-04-17 14:38:08 GMT 29.595446 -14.891160 38,975 198 467 -320
2019-04-17 14:38:04 GMT 29.595446 -14.891160 38,975 198 468 -64
2019-04-17 14:37:56 GMT 29.613693 -14.884644 38,975 198 470 0
2019-04-17 14:37:53 GMT 29.617218 -14.883411 38,975 198 470 0
2019-04-17 14:37:46 GMT 29.631151 -14.878450 39,000 198 470 0
2019-04-17 14:37:43 GMT 29.639437 -14.875488 39,000 198 470 0
2019-04-17 14:37:36 GMT 29.654009 -14.870318 39,000 198 470 0
2019-04-17 14:37:32 GMT 29.661255 -14.867671 38,975 198 470 0
2019-04-17 14:37:25 GMT 29.675400 -14.862653 39,000 198 471 0
2019-04-17 14:37:22 GMT 29.683058 -14.859870 39,000 198 470 0
2019-04-17 14:37:15 GMT 29.697418 -14.854730 39,000 198 470 0
2019-04-17 14:37:11 GMT 29.705292 -14.851878 39,000 198 470 0
2019-04-17 14:37:04 GMT 29.719229 -14.846838 38,975 198 471 0
2019-04-17 14:37:01 GMT 29.726532 -14.844220 39,000 198 471 0
2019-04-17 14:36:55 GMT 29.740677 -14.839096 39,000 198 471 0
2019-04-17 14:36:50 GMT 29.748835 -14.836121 39,000 198 471 0
2019-04-17 14:36:44 GMT 29.762150 -14.831328 39,000 198 471 0
2019-04-17 14:36:39 GMT 29.770706 -14.828215 39,000 198 471 0
2019-04-17 14:36:34 GMT 29.784262 -14.823303 39,000 198 471 0
2019-04-17 14:36:29 GMT 29.792816 -14.820187 39,000 198 472 0
2019-04-17 14:36:22 GMT 29.806374 -14.815279 39,000 198 471 0
2019-04-17 14:36:18 GMT 29.814514 -14.812317 39,000 198 471 0
2019-04-17 14:36:13 GMT 29.827423 -14.807669 39,000 198 472 0
2019-04-17 14:36:07 GMT 29.837860 -14.803866 39,000 198 472 0
2019-04-17 14:36:02 GMT 29.849340 -14.799715 39,000 198 472 0
2019-04-17 14:35:58 GMT 29.857674 -14.796699 39,000 198 472 0
2019-04-17 14:35:52 GMT 29.871454 -14.791691 39,000 198 472 0
2019-04-17 14:35:47 GMT 29.880020 -14.788601 39,000 198 472 64
2019-04-17 14:35:41 GMT 29.892975 -14.783900 39,000 198 473 0
2019-04-17 14:35:36 GMT 29.903576 -14.780058 39,000 198 473 0
2019-04-17 14:35:30 GMT 29.916515 -14.775348 39,000 198 472 0
2019-04-17 14:35:25 GMT 29.925110 -14.772249 39,000 198 472 0
2019-04-17 14:35:18 GMT 29.941189 -14.766449 39,000 198 472 0
2019-04-17 14:35:15 GMT 29.947220 -14.764225 39,000 198 472 0
2019-04-17 14:35:09 GMT 29.962881 -14.758539 39,000 198 472 0
2019-04-17 14:35:04 GMT 29.970425 -14.755847 39,000 198 472 0
2019-04-17 14:34:54 GMT 29.991074 -14.748338 39,000 198 472 0
2019-04-17 14:34:43 GMT 30.013641 -14.740152 39,000 198 472 0
2019-04-17 14:34:33 GMT 30.035177 -14.732391 39,000 198 472 0
2019-04-17 14:34:22 GMT 30.057083 -14.724426 38,975 198 473 0
2019-04-17 14:34:11 GMT 30.079651 -14.716187 38,975 198 473 0
2019-04-17 14:34:01 GMT 30.100525 -14.708593 39,000 198 473 0
2019-04-17 14:33:51 GMT 30.122635 -14.700515 39,000 198 473 0
2019-04-17 14:33:39 GMT 30.146671 -14.691687 38,975 198 473 0
2019-04-17 14:33:29 GMT 30.167358 -14.684143 38,975 198 473 0
2019-04-17 14:33:19 GMT 30.189926 -14.675957 38,975 198 473 64
2019-04-17 14:33:08 GMT 30.212729 -14.667627 38,975 198 474 0
2019-04-17 14:32:58 GMT 30.233459 -14.660070 38,975 198 475 0
2019-04-17 14:32:50 GMT 30.249847 -14.654146 38,975 198 475 0
2019-04-17 14:32:47 GMT 30.255707 -14.651992 38,975 198 475 0
2019-04-17 14:32:44 GMT 30.263470 -14.649170 38,975 198 476 0
2019-04-17 14:32:36 GMT 30.279903 -14.643182 38,975 198 477 0
2019-04-17 14:32:25 GMT 30.302032 -14.635082 38,975 198 478 0
2019-04-17 14:32:14 GMT 30.324640 -14.626868 39,000 198 478 0
2019-04-17 14:32:04 GMT 30.346802 -14.618764 39,000 198 478 0
2019-04-17 14:31:58 GMT 30.360718 -14.613701 39,000 198 477 0
2019-04-17 14:31:53 GMT 30.369598 -14.610470 39,000 198 477 0
2019-04-17 14:31:43 GMT 30.391256 -14.602533 39,000 198 477 0
2019-04-17 14:31:32 GMT 30.413361 -14.594475 39,000 198 475 0
2019-04-17 14:31:29 GMT 30.422653 -14.591136 39,000 198 475 0
2019-04-17 14:31:22 GMT 30.434830 -14.586666 39,000 198 475 0
2019-04-17 14:31:11 GMT 30.457314 -14.578473 38,975 198 476 0
2019-04-17 14:31:01 GMT 30.501911 -14.562158 38,975 198 477 0
2019-04-17 14:30:50 GMT 30.501911 -14.562158 38,975 198 477 0
2019-04-17 14:30:39 GMT 30.524872 -14.553761 39,000 198 477 0
2019-04-17 14:30:29 GMT 30.546183 -14.545953 39,000 198 478 0
2019-04-17 14:30:19 GMT 30.568771 -14.537713 39,000 198 477 0
2019-04-17 14:30:08 GMT 30.590919 -14.529639 39,000 198 477 0
2019-04-17 14:29:57 GMT 30.614273 -14.521071 39,000 198 475 0
2019-04-17 14:29:47 GMT 30.635098 -14.513489 39,000 198 475 0
2019-04-17 14:29:36 GMT 30.659025 -14.504810 39,000 198 473 0
2019-04-17 14:29:24 GMT 30.682663 -14.496245 39,000 198 472 0
2019-04-17 14:29:14 GMT 30.704971 -14.488165 39,000 198 471 64
2019-04-17 14:29:03 GMT 30.730133 -14.479011 38,975 198 470 0
2019-04-17 14:28:53 GMT 30.747620 -14.472656 38,975 198 470 0
2019-04-17 14:28:46 GMT 30.765518 -14.466140 38,975 198 471 0
2019-04-17 14:28:43 GMT 30.769684 -14.464578 38,975 198 471 0
2019-04-17 14:28:39 GMT 30.778198 -14.461469 38,975 198 471 0
2019-04-17 14:28:32 GMT 30.792572 -14.456177 38,975 198 471 0
2019-04-17 14:28:26 GMT 30.805069 -14.451545 38,975 198 472 0
2019-04-17 14:28:22 GMT 30.813206 -14.448560 38,975 198 472 0
2019-04-17 14:28:11 GMT 30.835318 -14.440320 38,975 198 475 0
2019-04-17 14:28:00 GMT 30.858215 -14.431781 39,000 198 477 0
2019-04-17 14:27:48 GMT 30.885408 -14.421368 38,975 200 479 0
2019-04-17 14:27:39 GMT 30.901794 -14.414170 39,000 203 479 0
2019-04-17 14:27:29 GMT 30.923676 -14.403076 39,000 206 475 0
2019-04-17 14:27:23 GMT 30.938828 -14.394836 39,000 206 475 0
2019-04-17 14:27:19 GMT 30.968456 -14.378632 39,000 206 475 64
2019-04-17 14:27:06 GMT 30.968456 -14.378632 39,000 206 474 0
2019-04-17 14:26:57 GMT 30.985748 -14.369202 39,000 206 473 0
2019-04-17 14:26:46 GMT 31.011005 -14.355560 39,000 205 472 0
2019-04-17 14:26:36 GMT 31.027496 -14.346690 39,000 205 472 0
2019-04-17 14:26:29 GMT 31.044525 -14.337535 39,000 205 472 0
2019-04-17 14:26:23 GMT 31.057047 -14.330841 39,000 205 472 0
2019-04-17 14:26:13 GMT 31.076086 -14.320569 39,000 205 471 0
2019-04-17 14:26:05 GMT 31.090118 -14.312978 39,000 205 471 0
2019-04-17 14:25:54 GMT 31.121195 -14.296234 39,000 206 470 0
2019-04-17 14:25:42 GMT 31.137768 -14.287280 39,000 206 470 0
2019-04-17 14:25:32 GMT 31.158096 -14.276195 38,975 206 470 0
2019-04-17 14:25:22 GMT 31.174255 -14.267363 38,975 206 471 0
2019-04-17 14:25:11 GMT 31.219978 -14.242566 38,975 206 472 0
2019-04-17 14:24:59 GMT 31.219978 -14.242566 39,000 206 472 -64
2019-04-17 14:24:51 GMT 31.236053 -14.233811 39,000 205 472 64
2019-04-17 14:24:41 GMT 31.256699 -14.222610 39,000 206 473 0
2019-04-17 14:24:30 GMT 31.278076 -14.210923 39,000 206 472 0
2019-04-17 14:24:20 GMT 31.298046 -14.199994 39,000 206 472 0
2019-04-17 14:24:09 GMT 31.318863 -14.188627 39,000 206 471 0
2019-04-17 14:23:58 GMT 31.340973 -14.176564 39,000 205 471 0
2019-04-17 14:23:44 GMT 31.368668 -14.161539 39,000 206 470 0
2019-04-17 14:23:37 GMT 31.382446 -14.154053 39,000 206 470 0
2019-04-17 14:23:28 GMT 31.400986 -14.143928 39,000 205 469 0
2019-04-17 14:23:15 GMT 31.426575 -14.130034 39,000 205 468 0
2019-04-17 14:23:07 GMT 31.442368 -14.121471 39,000 205 468 0
2019-04-17 14:22:55 GMT 31.468149 -14.107489 39,000 205 468 0
2019-04-17 14:22:42 GMT 31.491531 -14.094759 39,000 205 468 0
2019-04-17 14:22:31 GMT 31.512980 -14.083099 39,000 206 467 0
2019-04-17 14:22:23 GMT 31.528839 -14.074402 39,000 206 468 0
2019-04-17 14:22:12 GMT 31.551224 -14.062177 38,975 206 468 0
2019-04-17 14:21:48 GMT 31.596540 -14.037396 39,000 206 467 0
2019-04-17 14:21:43 GMT 31.607155 -14.031573 39,000 206 467 0
2019-04-17 14:21:34 GMT 31.624426 -14.022125 39,000 206 467 0
2019-04-17 14:21:31 GMT 31.633209 -14.017316 39,000 206 467 0
2019-04-17 14:21:06 GMT 31.680267 -13.991574 39,000 206 467 0
2019-04-17 14:20:56 GMT 31.700071 -13.980707 39,000 206 467 0
2019-04-17 14:20:47 GMT 31.718262 -13.970732 38,975 206 467 0
2019-04-17 14:20:06 GMT 31.798965 -13.926434 39,000 206 467 0
2019-04-17 14:19:57 GMT 31.814451 -13.917940 39,000 206 467 0
2019-04-17 14:19:47 GMT 31.833258 -13.907626 39,000 206 467 0
2019-04-17 14:19:35 GMT 31.860771 -13.892548 39,000 206 468 64
2019-04-17 14:19:26 GMT 31.874725 -13.884906 39,000 206 468 0
2019-04-17 14:19:14 GMT 31.898849 -13.871641 38,975 206 468 64
2019-04-17 14:19:07 GMT 31.914537 -13.862952 38,975 206 468 0
2019-04-17 14:19:00 GMT 31.926735 -13.856226 39,000 206 468 0
2019-04-17 14:18:53 GMT 31.943024 -13.847223 39,000 206 468 0
2019-04-17 14:18:41 GMT 31.964264 -13.835522 39,000 206 468 64
2019-04-17 14:18:32 GMT 31.983902 -13.824701 38,975 206 469 0
2019-04-17 14:18:23 GMT 31.998871 -13.816461 39,000 206 469 64
2019-04-17 14:18:11 GMT 32.022259 -13.803480 39,000 206 469 0
2019-04-17 14:18:02 GMT 32.039997 -13.793671 39,000 206 469 0
2019-04-17 14:17:52 GMT 32.059845 -13.782678 38,975 206 470 0
2019-04-17 14:17:41 GMT 32.080544 -13.771250 38,975 206 470 0
2019-04-17 14:17:31 GMT 32.101181 -13.759827 38,975 206 471 0
2019-04-17 14:17:21 GMT 32.121090 -13.748773 38,975 206 471 0
2019-04-17 14:17:09 GMT 32.145111 -13.735489 38,975 206 471 64
2019-04-17 14:17:01 GMT 32.160847 -13.726744 38,975 206 471 64
2019-04-17 14:16:58 GMT 32.168152 -13.722693 38,975 206 470 0
2019-04-17 14:16:48 GMT 32.187241 -13.712115 39,000 206 470 0
2019-04-17 14:16:41 GMT 32.199646 -13.705225 39,000 206 470 0
2019-04-17 14:16:38 GMT 32.209309 -13.699839 39,000 206 470 0
2019-04-17 14:16:27 GMT 32.258331 -13.672540 39,000 206 470 0
2019-04-17 14:16:13 GMT 32.258331 -13.672540 39,000 206 471 0
2019-04-17 14:16:01 GMT 32.278622 -13.661219 39,000 206 470 0
2019-04-17 14:15:35 GMT 32.329876 -13.632688 39,000 206 470 0
2019-04-17 14:15:25 GMT 32.349380 -13.621838 39,000 206 470 0
2019-04-17 14:15:15 GMT 32.370144 -13.610267 39,000 206 470 0
2019-04-17 14:15:01 GMT 32.395935 -13.595911 39,000 206 467 0
2019-04-17 14:14:21 GMT 32.474991 -13.551471 39,000 206 467 0
2019-04-17 14:14:12 GMT 32.494720 -13.540425 39,000 206 466 0
2019-04-17 14:13:58 GMT 32.521042 -13.525653 38,975 206 465 0
2019-04-17 14:11:56 GMT 32.757111 -13.393378 39,000 206 457 0
2019-04-17 14:10:30 GMT 32.919571 -13.301971 39,000 206 450 0
2019-04-17 14:10:21 GMT 32.937241 -13.292029 39,000 206 449 0
2019-04-17 14:09:49 GMT 32.998993 -13.257147 39,000 206 446 64
2019-04-17 14:09:12 GMT 33.065681 -13.219299 39,000 206 443 0
2019-04-17 14:09:08 GMT 33.075165 -13.213971 39,000 206 443 0
2019-04-17 14:08:58 GMT 33.092514 -13.204083 39,000 206 442 0
2019-04-17 14:08:37 GMT 33.132160 -13.181464 38,975 206 441 0
2019-04-17 14:08:12 GMT 33.178104 -13.155399 39,000 206 440 64
2019-04-17 14:06:10 GMT 33.398392 -13.029675 38,975 206 429 0
2019-04-17 14:05:47 GMT 33.438984 -13.006411 39,000 206 428 0
2019-04-17 14:04:53 GMT 33.535446 -12.951123 39,000 206 427 0
2019-04-17 14:04:48 GMT 33.544327 -12.945986 39,000 206 427 0
2019-04-17 14:04:14 GMT 33.603287 -12.912131 39,000 206 422 0
2019-04-17 14:02:41 GMT 33.769318 -12.816753 39,000 206 418 0
2019-04-17 14:02:00 GMT 33.839493 -12.775979 39,000 206 419 0
2019-04-17 14:01:25 GMT 33.900177 -12.740936 39,000 206 419 0
2019-04-17 14:00:34 GMT 33.990189 -12.688817 39,000 206 421 0
2019-04-17 13:56:25 GMT 34.431244 -12.431086 39,000 206 427 0
We lost coverage of the aircraft here for a total of 15 minutes
2019-04-17 13:41:08 GMT 36.050705 -11.458273 39,000 207 427 0
2019-04-17 13:39:13 GMT 36.254650 -11.332865 39,000 199 431 0
2019-04-17 13:39:07 GMT 36.264450 -11.328106 39,000 200 430 0
2019-04-17 13:39:02 GMT 36.275181 -11.323515 39,000 199 431 0
2019-04-17 13:38:50 GMT 36.297943 -11.314223 39,000 199 431 0
2019-04-17 13:38:47 GMT 36.304787 -11.311418 39,000 199 431 0
2019-04-17 13:38:35 GMT 36.324898 -11.303179 39,000 199 431 0
2019-04-17 13:38:25 GMT 36.364929 -11.286736 39,000 199 431 0
2019-04-17 13:38:14 GMT 36.364929 -11.286736 39,000 199 431 0
2019-04-17 13:38:04 GMT 36.386948 -11.277809 39,000 199 432 64
2019-04-17 13:37:54 GMT 36.405167 -11.270370 39,000 199 432 0
2019-04-17 13:37:42 GMT 36.425869 -11.261921 39,000 199 431 0
2019-04-17 13:37:31 GMT 36.447517 -11.253097 39,000 199 431 0
2019-04-17 13:37:21 GMT 36.466511 -11.245325 38,975 199 432 0
2019-04-17 13:37:11 GMT 36.484589 -11.237984 38,975 199 432 0
2019-04-17 13:37:05 GMT 36.497131 -11.232834 39,000 199 431 0
2019-04-17 13:37:00 GMT 36.506031 -11.229196 39,000 199 432 0
2019-04-17 13:36:57 GMT 36.513294 -11.226216 39,000 199 431 0
2019-04-17 13:36:51 GMT 36.525604 -11.221161 39,000 199 432 0
2019-04-17 13:36:46 GMT 36.533031 -11.218093 39,000 199 432 0
2019-04-17 13:36:40 GMT 36.544601 -11.213322 39,000 199 431 0
2019-04-17 13:36:29 GMT 36.566208 -11.204395 39,000 199 431 0
2019-04-17 13:36:18 GMT 36.585205 -11.196613 38,975 199 431 0
2019-04-17 13:36:09 GMT 36.605095 -11.188406 39,000 199 431 0
2019-04-17 13:35:59 GMT 36.624043 -11.180634 39,000 199 431 0
2019-04-17 13:35:48 GMT 36.645222 -11.171927 39,000 199 431 0
2019-04-17 13:35:42 GMT 36.653557 -11.168479 39,000 199 431 0
2019-04-17 13:35:37 GMT 36.664543 -11.163979 38,975 199 431 0
2019-04-17 13:35:32 GMT 36.673248 -11.160356 38,975 199 431 0
2019-04-17 13:35:26 GMT 36.683071 -11.156324 39,000 199 431 0
2019-04-17 13:35:19 GMT 36.698044 -11.150150 39,000 199 431 0
2019-04-17 13:35:16 GMT 36.705044 -11.147266 39,000 199 431 0
2019-04-17 13:35:10 GMT 36.715237 -11.143059 39,000 199 430 0
2019-04-17 13:35:03 GMT 36.729622 -11.137156 39,000 199 431 0
2019-04-17 13:34:59 GMT 36.735077 -11.134872 38,975 199 430 0
2019-04-17 13:34:54 GMT 36.744186 -11.131153 39,000 199 430 0
2019-04-17 13:34:49 GMT 36.754395 -11.126976 39,000 199 430 0
2019-04-17 13:34:45 GMT 36.763824 -11.123085 39,000 199 430 0
2019-04-17 13:34:37 GMT 36.777664 -11.117404 39,000 199 430 64
2019-04-17 13:34:34 GMT 36.784462 -11.114599 38,975 199 430 0
2019-04-17 13:34:28 GMT 36.795959 -11.109810 38,975 199 430 0
2019-04-17 13:34:23 GMT 36.803734 -11.106652 38,975 199 430 0
2019-04-17 13:34:16 GMT 36.817108 -11.101055 39,000 199 430 0
2019-04-17 13:34:13 GMT 36.824123 -11.098178 39,000 199 430 0
2019-04-17 13:34:03 GMT 36.843521 -11.090126 39,000 199 429 0
2019-04-17 13:33:52 GMT 36.863480 -11.081874 39,000 199 429 64
2019-04-17 13:33:45 GMT 36.877613 -11.076010 39,000 199 427 0
2019-04-17 13:33:42 GMT 36.882080 -11.074159 39,000 199 426 0
2019-04-17 13:33:34 GMT 36.897816 -11.067591 39,000 199 421 704
2019-04-17 13:33:31 GMT 36.901588 -11.066098 39,000 199 425 0
2019-04-17 13:33:23 GMT 36.916718 -11.059785 39,000 199 425 0
2019-04-17 13:33:20 GMT 36.923447 -11.056980 39,000 199 425 0
2019-04-17 13:33:12 GMT 36.937759 -11.051052 39,000 199 424 0
2019-04-17 13:33:09 GMT 36.942444 -11.049090 39,000 199 424 0
2019-04-17 13:33:00 GMT 36.960846 -11.041499 39,000 199 423 0
2019-04-17 13:32:50 GMT 36.977932 -11.034453 38,975 199 421 0
2019-04-17 13:32:47 GMT 36.983517 -11.032184 39,000 199 421 0
2019-04-17 13:32:39 GMT 36.999573 -11.025482 39,000 199 420 0
2019-04-17 13:32:28 GMT 37.018944 -11.017436 38,925 199 420 704
2019-04-17 13:32:18 GMT 37.039616 -11.008838 38,800 199 420 704
2019-04-17 13:32:07 GMT 37.060135 -11.000353 38,700 199 421 576
2019-04-17 13:31:57 GMT 37.077530 -10.993107 38,600 199 421 704
2019-04-17 13:31:46 GMT 37.098267 -10.984517 38,425 199 422 576
2019-04-17 13:31:32 GMT 37.126785 -10.972595 38,300 199 422 640
2019-04-17 13:31:25 GMT 37.136627 -10.968475 38,225 199 422 640
2019-04-17 13:31:15 GMT 37.162033 -10.957869 38,100 199 422 704
2019-04-17 13:31:03 GMT 37.175220 -10.952354 38,000 199 422 704
2019-04-17 13:30:54 GMT 37.205246 -10.939756 37,900 199 422 640
2019-04-17 13:30:42 GMT 37.214882 -10.935695 37,775 199 422 576
2019-04-17 13:30:32 GMT 37.233364 -10.927933 37,575 199 421 704
2019-04-17 13:30:21 GMT 37.252590 -10.919813 37,475 199 421 704
2019-04-17 13:30:10 GMT 37.273678 -10.911036 37,450 199 420 704
2019-04-17 13:30:01 GMT 37.291946 -10.903463 37,350 199 420 704
2019-04-17 13:29:49 GMT 37.311710 -10.895213 37,225 199 420 704
2019-04-17 13:29:39 GMT 37.332008 -10.886794 37,125 199 420 640
2019-04-17 13:29:25 GMT 37.365246 -10.872942 37,000 199 420 64
2019-04-17 13:29:18 GMT 37.369858 -10.871030 37,000 199 420 0
2019-04-17 13:29:07 GMT 37.390182 -10.862557 36,975 199 420 64
2019-04-17 13:28:57 GMT 37.427078 -10.846954 36,975 199 421 64
2019-04-17 13:28:47 GMT 37.427078 -10.846954 37,000 199 421 0
2019-04-17 13:28:36 GMT 37.447403 -10.838305 36,975 199 422 0
2019-04-17 13:28:26 GMT 37.466404 -10.830191 36,975 199 421 0
2019-04-17 13:28:15 GMT 37.487213 -10.821533 37,000 199 422 0
2019-04-17 13:28:05 GMT 37.515423 -10.809771 37,000 199 423 0
2019-04-17 13:27:54 GMT 37.526733 -10.804995 37,000 199 423 0
2019-04-17 13:27:44 GMT 37.544907 -10.797281 37,000 199 423 0
2019-04-17 13:27:33 GMT 37.565144 -10.788753 36,975 199 423 0
2019-04-17 13:27:21 GMT 37.594299 -10.776361 37,000 199 424 0
2019-04-17 13:27:13 GMT 37.603035 -10.772692 37,000 199 424 0
2019-04-17 13:27:01 GMT 37.622356 -10.764571 37,000 199 423 0
2019-04-17 13:26:50 GMT 37.644424 -10.755265 37,000 199 424 0
2019-04-17 13:26:39 GMT 37.671745 -10.743733 36,975 199 424 0
2019-04-17 13:26:30 GMT 37.681229 -10.739779 36,975 199 424 0
2019-04-17 13:26:20 GMT 37.701260 -10.731195 37,000 199 424 -64
2019-04-17 13:26:08 GMT 37.722519 -10.722189 37,000 199 425 0
2019-04-17 13:26:00 GMT 37.739292 -10.715073 36,975 199 425 0
2019-04-17 13:25:47 GMT 37.760605 -10.706118 36,975 199 425 -64
2019-04-17 13:25:38 GMT 37.778458 -10.698580 36,975 199 425 0
2019-04-17 13:25:28 GMT 37.797821 -10.690457 37,000 199 425 0
2019-04-17 13:25:16 GMT 37.818649 -10.681691 37,000 199 425 0
2019-04-17 13:25:09 GMT 37.832584 -10.675726 36,975 199 425 0
2019-04-17 13:25:06 GMT 37.839195 -10.672860 36,975 199 425 0
2019-04-17 13:25:00 GMT 37.849228 -10.668660 36,975 199 425 0
2019-04-17 13:24:55 GMT 37.858002 -10.664918 37,000 199 425 0
2019-04-17 13:24:49 GMT 37.869919 -10.659783 37,000 199 425 0
2019-04-17 13:24:45 GMT 37.878342 -10.656212 37,000 199 425 0
2019-04-17 13:24:39 GMT 37.889332 -10.651544 37,000 199 426 0
2019-04-17 13:24:35 GMT 37.896652 -10.648440 37,000 199 426 64
2019-04-17 13:24:29 GMT 37.907089 -10.643940 36,975 199 426 64
2019-04-17 13:24:24 GMT 37.915695 -10.640259 36,975 199 427 0
2019-04-17 13:24:18 GMT 37.928055 -10.634941 37,000 199 430 0
2019-04-17 13:24:14 GMT 37.935371 -10.631780 36,975 199 428 0
2019-04-17 13:24:08 GMT 37.945724 -10.627344 37,000 199 429 0
2019-04-17 13:24:03 GMT 37.956089 -10.622943 37,000 199 429 0
2019-04-17 13:23:52 GMT 37.976105 -10.614345 37,000 199 430 0
2019-04-17 13:23:48 GMT 37.984589 -10.610748 37,000 199 430 0
2019-04-17 13:23:42 GMT 37.995941 -10.605897 37,000 199 431 64
2019-04-17 13:23:31 GMT 38.015766 -10.597388 36,975 199 431 0
2019-04-17 13:23:21 GMT 38.036251 -10.588671 36,975 199 431 0
2019-04-17 13:23:15 GMT 38.046616 -10.584217 36,975 199 431 -64
2019-04-17 13:23:11 GMT 38.055679 -10.580301 37,000 199 429 64
2019-04-17 13:23:06 GMT 38.070980 -10.573744 37,000 199 431 0
2019-04-17 13:22:59 GMT 38.076828 -10.571244 37,000 199 429 0
2019-04-17 13:22:49 GMT 38.096210 -10.562937 37,000 199 429 0
2019-04-17 13:22:38 GMT 38.124096 -10.550995 37,000 199 429 0
2019-04-17 13:22:30 GMT 38.148743 -10.540505 36,975 199 428 64
2019-04-17 13:22:25 GMT 38.148743 -10.540505 36,975 199 428 0
2019-04-17 13:22:17 GMT 38.154541 -10.537978 37,000 199 428 0
2019-04-17 13:22:07 GMT 38.173721 -10.529739 37,000 199 428 0
2019-04-17 13:21:57 GMT 38.194519 -10.520812 37,000 199 427 0
2019-04-17 13:21:54 GMT 38.203903 -10.516779 37,000 199 426 64
2019-04-17 13:21:47 GMT 38.213055 -10.512841 37,000 199 427 0
2019-04-17 13:21:42 GMT 38.228622 -10.506202 37,000 199 427 0
2019-04-17 13:21:35 GMT 38.233681 -10.504004 37,000 199 426 0
2019-04-17 13:21:30 GMT 38.243782 -10.499646 37,000 199 426 64
2019-04-17 13:21:26 GMT 38.252930 -10.495683 37,000 199 426 0
2019-04-17 13:21:23 GMT 38.257607 -10.493675 37,000 199 426 0
2019-04-17 13:21:12 GMT 38.286003 -10.481435 37,000 199 426 0
2019-04-17 13:21:04 GMT 38.293453 -10.478210 36,975 199 426 0
2019-04-17 13:20:53 GMT 38.312668 -10.469912 36,975 199 426 0
2019-04-17 13:20:44 GMT 38.332275 -10.461492 36,975 199 426 0
2019-04-17 13:20:34 GMT 38.350388 -10.453783 37,000 199 425 0
2019-04-17 13:20:30 GMT 38.363068 -10.448349 37,000 199 425 0
2019-04-17 13:20:22 GMT 38.370682 -10.445013 36,975 199 425 0
2019-04-17 13:20:11 GMT 38.391956 -10.435937 37,000 199 424 0
2019-04-17 13:20:01 GMT 38.410156 -10.428055 37,000 199 423 0
2019-04-17 13:19:55 GMT 38.420380 -10.423637 37,000 199 423 0
2019-04-17 13:19:48 GMT 38.442047 -10.414185 37,000 199 423 64
2019-04-17 13:19:39 GMT 38.450939 -10.410339 37,000 199 423 64
2019-04-17 13:19:30 GMT 38.467804 -10.402978 36,975 199 422 0
2019-04-17 13:19:21 GMT 38.485977 -10.395096 36,975 199 422 0
2019-04-17 13:19:18 GMT 38.489685 -10.393484 36,975 199 422 0
2019-04-17 13:19:09 GMT 38.506519 -10.386169 37,000 199 422 0
2019-04-17 13:19:04 GMT 38.520580 -10.380066 37,000 199 422 0
2019-04-17 13:18:57 GMT 38.528870 -10.376467 37,000 199 422 0
2019-04-17 13:18:49 GMT 38.544754 -10.369601 36,975 199 421 64
2019-04-17 13:18:37 GMT 38.572300 -10.357605 36,975 199 421 0
2019-04-17 13:18:28 GMT 38.584126 -10.352417 37,000 199 421 0
2019-04-17 13:18:23 GMT 38.598511 -10.346191 37,000 199 421 0
2019-04-17 13:18:16 GMT 38.603485 -10.343986 37,000 199 421 0
2019-04-17 13:18:06 GMT 38.621933 -10.335985 37,000 199 421 0
2019-04-17 13:17:55 GMT 38.649391 -10.323975 37,000 199 420 64
2019-04-17 13:17:41 GMT 38.675674 -10.312520 36,975 199 420 0
2019-04-17 13:17:35 GMT 38.680302 -10.310486 36,975 199 420 0
2019-04-17 13:17:26 GMT 38.696129 -10.303589 37,000 199 420 0
2019-04-17 13:17:13 GMT 38.727997 -10.289890 37,000 199 419 0
2019-04-17 13:17:06 GMT 38.733856 -10.287323 37,000 199 420 64
2019-04-17 13:17:02 GMT 38.739761 -10.284756 36,975 199 419 64
2019-04-17 13:16:56 GMT 38.753723 -10.278665 36,975 199 419 0
2019-04-17 13:16:53 GMT 38.758118 -10.276755 36,975 199 419 0
2019-04-17 13:16:45 GMT 38.772243 -10.270569 37,000 199 418 0
2019-04-17 13:16:42 GMT 38.778107 -10.268005 36,975 199 418 0
2019-04-17 13:16:31 GMT 38.804306 -10.256573 37,000 199 418 0
2019-04-17 13:16:24 GMT 38.810532 -10.253886 37,000 199 418 0
2019-04-17 13:16:21 GMT 38.816025 -10.251498 37,000 199 417 0
2019-04-17 13:16:14 GMT 38.829163 -10.245766 37,000 199 417 0
2019-04-17 13:16:11 GMT 38.835754 -10.242900 36,975 199 417 0
2019-04-17 13:16:04 GMT 38.856407 -10.233887 37,000 199 417 0
2019-04-17 13:15:59 GMT 38.856407 -10.233887 37,000 199 417 0
2019-04-17 13:15:49 GMT 38.880848 -10.223206 37,000 199 416 0
2019-04-17 13:15:42 GMT 38.889599 -10.219360 36,975 199 416 0
2019-04-17 13:15:39 GMT 38.894897 -10.217046 37,000 199 416 0
2019-04-17 13:15:33 GMT 38.903797 -10.213135 37,000 200 415 0
2019-04-17 13:15:30 GMT 38.909454 -10.210658 37,000 200 415 0
2019-04-17 13:15:27 GMT 38.914902 -10.208269 37,000 200 415 0
2019-04-17 13:15:23 GMT 38.922001 -10.205078 37,000 200 415 0
2019-04-17 13:15:18 GMT 38.931976 -10.200686 37,000 200 415 0
2019-04-17 13:15:12 GMT 38.941086 -10.196626 37,000 200 415 0
2019-04-17 13:15:07 GMT 38.951050 -10.192200 37,000 199 415 0
2019-04-17 13:15:02 GMT 38.959259 -10.188625 37,000 200 415 0
2019-04-17 13:14:58 GMT 38.967270 -10.185102 36,975 200 415 0
2019-04-17 13:14:55 GMT 38.972717 -10.182654 36,975 200 415 0
2019-04-17 13:14:52 GMT 38.977432 -10.180565 36,975 199 415 0
2019-04-17 13:14:48 GMT 38.986336 -10.176636 37,000 199 415 0
2019-04-17 13:14:42 GMT 38.996159 -10.172302 37,000 199 415 0
2019-04-17 13:14:37 GMT 39.005035 -10.168384 37,000 200 414 0
2019-04-17 13:14:31 GMT 39.015011 -10.164001 37,000 200 414 0
2019-04-17 13:14:26 GMT 39.024464 -10.159790 37,000 200 414 0
2019-04-17 13:14:21 GMT 39.035156 -10.155069 37,000 200 414 64
2019-04-17 13:14:16 GMT 39.045502 -10.150513 36,975 200 414 0
2019-04-17 13:14:11 GMT 39.059830 -10.144202 37,000 199 414 0
2019-04-17 13:14:04 GMT 39.064728 -10.142029 37,000 199 414 0
2019-04-17 13:14:01 GMT 39.070503 -10.139526 37,000 199 414 0
2019-04-17 13:13:54 GMT 39.083038 -10.133992 37,000 199 414 0
2019-04-17 13:13:50 GMT 39.090637 -10.130648 37,000 199 414 0
2019-04-17 13:13:44 GMT 39.101692 -10.125793 37,000 199 414 0
2019-04-17 13:13:39 GMT 39.110596 -10.121931 37,000 199 413 0
2019-04-17 13:13:34 GMT 39.120918 -10.117432 36,975 199 414 0
2019-04-17 13:13:28 GMT 39.137009 -10.110348 36,975 200 413 0
2019-04-17 13:13:22 GMT 39.141914 -10.108215 37,000 200 413 0
2019-04-17 13:13:18 GMT 39.148224 -10.105392 37,000 200 413 0
2019-04-17 13:13:12 GMT 39.159439 -10.100376 37,000 200 413 0
2019-04-17 13:13:09 GMT 39.163742 -10.098466 37,000 200 413 0
2019-04-17 13:13:02 GMT 39.178940 -10.091719 36,975 200 412 0
2019-04-17 13:12:57 GMT 39.186127 -10.088494 36,975 200 412 0
2019-04-17 13:12:51 GMT 39.198242 -10.083130 37,000 199 412 0
2019-04-17 13:12:46 GMT 39.212814 -10.076672 37,000 199 412 0
2019-04-17 13:12:40 GMT 39.224171 -10.071655 37,000 199 412 0
2019-04-17 13:12:37 GMT 39.224171 -10.071655 37,000 199 412 0
2019-04-17 13:12:30 GMT 39.242931 -10.063416 37,000 200 411 0
2019-04-17 13:12:26 GMT 39.242931 -10.063416 37,000 200 411 0
2019-04-17 13:12:22 GMT 39.248520 -10.060969 37,000 200 411 0
2019-04-17 13:12:19 GMT 39.260742 -10.055535 37,000 200 411 64
2019-04-17 13:12:16 GMT 39.260742 -10.055535 36,975 200 411 0
2019-04-17 13:12:10 GMT 39.272232 -10.050400 36,975 200 411 0
2019-04-17 13:12:05 GMT 39.287155 -10.043762 37,000 200 411 0
2019-04-17 13:12:00 GMT 39.290588 -10.042220 37,000 200 410 0
2019-04-17 13:11:55 GMT 39.298283 -10.038818 37,000 200 410 64
2019-04-17 13:11:52 GMT 39.304008 -10.036194 37,000 200 410 64
2019-04-17 13:11:48 GMT 39.312790 -10.032309 36,975 200 410 0
2019-04-17 13:11:42 GMT 39.321808 -10.028308 36,975 200 411 0
2019-04-17 13:11:37 GMT 39.340485 -10.020009 37,000 200 410 0
2019-04-17 13:11:31 GMT 39.340485 -10.020009 37,000 200 410 0
2019-04-17 13:11:26 GMT 39.348930 -10.016296 37,000 200 410 0
2019-04-17 13:11:23 GMT 39.355911 -10.013142 37,000 200 410 0
2019-04-17 13:11:18 GMT 39.365784 -10.008789 36,975 199 410 0
2019-04-17 13:11:15 GMT 39.369041 -10.007324 36,975 199 410 0
2019-04-17 13:11:11 GMT 39.376053 -10.004246 36,975 199 410 0
2019-04-17 13:11:08 GMT 39.382141 -10.001559 37,000 199 410 0
2019-04-17 13:11:05 GMT 39.387337 -9.999268 37,000 199 410 0
2019-04-17 13:11:02 GMT 39.393436 -9.996582 37,000 199 410 0
2019-04-17 13:10:58 GMT 39.402046 -9.992737 37,000 199 410 0
2019-04-17 13:10:52 GMT 39.411732 -9.988464 37,000 199 410 0
2019-04-17 13:10:47 GMT 39.420715 -9.984497 36,975 199 410 0
2019-04-17 13:10:44 GMT 39.424995 -9.982605 36,975 199 410 0
2019-04-17 13:10:41 GMT 39.430206 -9.980303 37,000 200 409 0
2019-04-17 13:10:36 GMT 39.444736 -9.973816 37,000 200 409 0
2019-04-17 13:10:30 GMT 39.449936 -9.971526 37,000 200 409 0
2019-04-17 13:10:23 GMT 39.464428 -9.965027 37,000 200 409 0
2019-04-17 13:10:18 GMT 39.471596 -9.961853 36,975 200 409 0
2019-04-17 13:10:13 GMT 39.480743 -9.957793 37,000 200 408 256
2019-04-17 13:10:09 GMT 39.488075 -9.954529 37,000 200 408 128
2019-04-17 13:10:05 GMT 39.496445 -9.950747 36,975 200 408 768
2019-04-17 13:10:02 GMT 39.502693 -9.947998 36,925 200 408 896
2019-04-17 13:09:58 GMT 39.508743 -9.945251 36,875 200 408 896
2019-04-17 13:09:52 GMT 39.518009 -9.941101 36,825 200 408 896
2019-04-17 13:09:48 GMT 39.526062 -9.937492 36,725 200 408 896
2019-04-17 13:09:42 GMT 39.537140 -9.932477 36,675 200 409 896
2019-04-17 13:09:37 GMT 39.545059 -9.928954 36,575 200 410 896
2019-04-17 13:09:33 GMT 39.552784 -9.925476 36,500 200 413 960
2019-04-17 13:09:30 GMT 39.564327 -9.920288 36,450 200 413 960
2019-04-17 13:09:26 GMT 39.564327 -9.920288 36,425 200 414 960
2019-04-17 13:09:21 GMT 39.575222 -9.915405 36,325 200 414 1024
2019-04-17 13:09:18 GMT 39.578854 -9.913757 36,300 200 416 1088
2019-04-17 13:09:15 GMT 39.583927 -9.911438 36,150 200 417 1280
2019-04-17 13:09:11 GMT 39.593376 -9.907227 36,125 200 417 1280
2019-04-17 13:09:05 GMT 39.602646 -9.903040 36,025 200 417 1216
2019-04-17 13:09:01 GMT 39.610508 -9.899475 35,950 200 418 1088
2019-04-17 13:08:58 GMT 39.616516 -9.896771 35,875 200 418 1088
2019-04-17 13:08:53 GMT 39.627312 -9.891968 35,775 200 419 960
2019-04-17 13:08:50 GMT 39.631363 -9.890137 35,750 200 419 960
2019-04-17 13:08:47 GMT 39.638672 -9.886902 35,625 200 419 960
2019-04-17 13:08:44 GMT 39.642349 -9.885254 35,650 200 419 960
2019-04-17 13:08:41 GMT 39.649658 -9.881958 35,575 200 419 960
2019-04-17 13:08:37 GMT 39.654408 -9.879822 35,550 200 419 1024
2019-04-17 13:08:34 GMT 39.660645 -9.877014 35,475 200 419 1024
2019-04-17 13:08:29 GMT 39.670189 -9.872803 35,425 200 419 896
2019-04-17 13:08:26 GMT 39.674191 -9.870972 35,375 200 419 832
2019-04-17 13:08:20 GMT 39.687737 -9.864929 35,200 199 417 896
2019-04-17 13:08:17 GMT 39.692322 -9.862916 35,225 199 417 896
2019-04-17 13:08:12 GMT 39.702164 -9.858498 35,150 199 417 896
2019-04-17 13:08:08 GMT 39.713150 -9.853602 35,025 199 417 768
2019-04-17 13:08:02 GMT 39.720428 -9.850378 35,025 199 417 768
2019-04-17 13:07:59 GMT 39.725189 -9.848228 35,000 199 416 768
2019-04-17 13:07:55 GMT 39.731735 -9.845302 34,950 199 416 704
2019-04-17 13:07:51 GMT 39.739223 -9.842041 34,900 199 415 704
2019-04-17 13:07:47 GMT 39.750641 -9.836943 34,825 200 414 832
2019-04-17 13:07:40 GMT 39.758652 -9.833361 34,750 200 414 832
2019-04-17 13:07:37 GMT 39.763897 -9.830994 34,725 200 413 576
2019-04-17 13:07:34 GMT 39.769299 -9.828552 34,700 200 413 704
2019-04-17 13:07:30 GMT 39.778328 -9.824524 34,650 200 412 512
2019-04-17 13:07:27 GMT 39.781960 -9.822876 34,600 200 411 640
2019-04-17 13:07:24 GMT 39.787685 -9.820312 34,600 200 411 640
2019-04-17 13:07:19 GMT 39.796669 -9.816223 34,525 200 410 832
2019-04-17 13:07:16 GMT 39.801865 -9.813836 34,475 200 410 832
2019-04-17 13:07:13 GMT 39.807053 -9.811462 34,450 200 410 832
2019-04-17 13:07:09 GMT 39.814175 -9.808167 34,400 200 409 832
2019-04-17 13:07:06 GMT 39.820969 -9.805054 34,325 200 409 768
2019-04-17 13:07:03 GMT 39.825073 -9.803148 34,325 200 409 768
2019-04-17 13:06:59 GMT 39.831161 -9.800402 34,250 200 407 768
2019-04-17 13:06:55 GMT 39.839676 -9.796461 34,200 200 407 768
2019-04-17 13:06:52 GMT 39.843781 -9.794617 34,200 200 407 768
2019-04-17 13:06:49 GMT 39.849289 -9.792102 34,150 200 406 640
2019-04-17 13:06:45 GMT 39.861008 -9.786788 34,075 200 404 704
2019-04-17 13:06:39 GMT 39.868103 -9.783624 34,000 200 404 768
2019-04-17 13:06:34 GMT 39.877625 -9.779325 33,950 200 403 832
2019-04-17 13:06:28 GMT 39.896107 -9.770935 33,825 200 402 832
2019-04-17 13:06:23 GMT 39.896107 -9.770935 33,850 200 402 832
2019-04-17 13:06:17 GMT 39.906628 -9.766174 33,725 200 401 832
2019-04-17 13:06:13 GMT 39.914841 -9.762427 33,650 200 400 832
2019-04-17 13:06:08 GMT 39.922359 -9.758972 33,600 200 399 896
2019-04-17 13:06:02 GMT 39.932648 -9.754272 33,225 200 392 768
2019-04-17 13:05:56 GMT 39.942238 -9.749929 33,425 200 399 896
2019-04-17 13:05:51 GMT 39.950619 -9.746121 33,350 200 398 704
2019-04-17 13:05:45 GMT 39.968262 -9.738069 33,225 200 395 704
2019-04-17 13:05:40 GMT 39.970680 -9.737008 33,225 200 392 768
2019-04-17 13:05:37 GMT 39.975677 -9.734680 33,175 200 394 704
2019-04-17 13:05:31 GMT 39.987030 -9.729553 33,100 200 392 896
2019-04-17 13:05:26 GMT 39.995121 -9.725897 33,025 200 392 768
2019-04-17 13:05:19 GMT 40.007263 -9.720398 32,975 200 391 704
2019-04-17 13:05:15 GMT 40.013397 -9.717651 32,900 200 390 768
2019-04-17 13:05:10 GMT 40.023426 -9.713100 32,825 200 388 640
2019-04-17 13:05:05 GMT 40.029739 -9.710266 32,775 200 387 768
2019-04-17 13:05:00 GMT 40.040222 -9.705505 32,700 200 386 832
2019-04-17 13:04:54 GMT 40.048145 -9.701926 32,625 200 386 960
2019-04-17 13:04:49 GMT 40.057755 -9.697632 32,450 200 385 1088
2019-04-17 13:04:44 GMT 40.064999 -9.694373 32,450 200 385 1088
2019-04-17 13:04:38 GMT 40.075752 -9.689504 32,325 200 384 1152
2019-04-17 13:04:34 GMT 40.087326 -9.684265 32,175 200 384 1280
2019-04-17 13:04:28 GMT 40.092682 -9.681824 32,125 200 384 1216
2019-04-17 13:04:23 GMT 40.101105 -9.678040 32,025 200 383 1152
2019-04-17 13:04:18 GMT 40.110123 -9.674011 31,900 200 382 1280
2019-04-17 13:04:11 GMT 40.120350 -9.669404 31,775 200 382 1472
2019-04-17 13:04:07 GMT 40.128353 -9.665722 31,600 200 382 1024
2019-04-17 13:04:03 GMT 40.133881 -9.663208 31,600 200 382 1024
2019-04-17 13:03:58 GMT 40.144741 -9.658293 31,450 200 382 1600
2019-04-17 13:03:53 GMT 40.158279 -9.652100 31,250 200 383 1408
2019-04-17 13:03:47 GMT 40.161621 -9.650574 31,175 200 383 1408
2019-04-17 13:03:43 GMT 40.167458 -9.647869 31,100 200 383 1472
2019-04-17 13:03:34 GMT 40.183411 -9.640686 30,850 200 384 1536
2019-04-17 13:03:26 GMT 40.198196 -9.633911 30,600 200 384 1344
2019-04-17 13:03:23 GMT 40.200699 -9.632763 30,600 200 384 1344
2019-04-17 13:03:11 GMT 40.228409 -9.619995 30,200 200 385 1344
2019-04-17 13:03:03 GMT 40.237286 -9.615909 30,125 200 384 1344
2019-04-17 13:02:53 GMT 40.252258 -9.609070 29,875 200 384 1536
2019-04-17 13:02:43 GMT 40.269920 -9.600990 29,575 200 385 1536
2019-04-17 13:02:33 GMT 40.300095 -9.587280 29,350 200 386 1344
2019-04-17 13:02:28 GMT 40.300095 -9.587280 29,150 200 386 1472
2019-04-17 13:02:24 GMT 40.306000 -9.584573 29,050 200 386 1408
2019-04-17 13:02:14 GMT 40.318954 -9.578613 28,850 200 385 832
2019-04-17 13:02:11 GMT 40.323177 -9.576707 28,875 200 384 832
2019-04-17 13:02:02 GMT 40.338585 -9.569654 28,725 200 382 768
2019-04-17 13:01:59 GMT 40.342117 -9.568054 28,700 200 382 832
2019-04-17 13:01:52 GMT 40.354752 -9.562195 28,600 200 379 640
2019-04-17 13:01:49 GMT 40.371078 -9.554672 28,475 200 377 1088
2019-04-17 13:01:42 GMT 40.371078 -9.554672 28,450 200 376 1152
2019-04-17 13:01:38 GMT 40.377689 -9.551676 27,725 200 364 1280
2019-04-17 13:01:31 GMT 40.389999 -9.546082 28,250 200 374 896
2019-04-17 13:01:27 GMT 40.396683 -9.542999 28,175 200 373 1088
2019-04-17 13:01:21 GMT 40.405655 -9.538879 28,050 200 372 1152
2019-04-17 13:01:17 GMT 40.411671 -9.536133 27,975 200 371 960
2019-04-17 13:01:11 GMT 40.422180 -9.531372 27,875 200 369 960
2019-04-17 13:01:05 GMT 40.437653 -9.524231 27,700 200 367 1088
2019-04-17 13:01:00 GMT 40.439255 -9.523499 27,700 200 366 1088
2019-04-17 13:00:55 GMT 40.446625 -9.520142 27,600 200 365 1344
2019-04-17 13:00:50 GMT 40.456512 -9.515564 27,400 200 365 1344
2019-04-17 13:00:44 GMT 40.464321 -9.511975 27,350 200 364 1280
2019-04-17 13:00:39 GMT 40.472610 -9.508168 27,225 200 363 1344
2019-04-17 13:00:34 GMT 40.479870 -9.504859 27,125 200 362 1600
2019-04-17 13:00:28 GMT 40.490623 -9.499928 26,925 200 362 1664
2019-04-17 13:00:24 GMT 40.496632 -9.497181 26,825 200 362 1728
2019-04-17 13:00:19 GMT 40.505196 -9.493249 26,650 200 361 1920
2019-04-17 13:00:14 GMT 40.513062 -9.489566 26,500 200 361 2048
2019-04-17 13:00:10 GMT 40.520187 -9.486328 26,150 200 363 2176
2019-04-17 13:00:03 GMT 40.529819 -9.481888 26,100 200 363 2176
2019-04-17 12:59:57 GMT 40.539364 -9.477518 25,875 200 364 2304
2019-04-17 12:59:50 GMT 40.550308 -9.472473 25,650 200 365 2368
2019-04-17 12:59:47 GMT 40.555252 -9.470215 25,500 200 365 2368
2019-04-17 12:59:42 GMT 40.563618 -9.466345 25,100 200 368 2368
2019-04-17 12:59:37 GMT 40.572235 -9.462280 25,150 200 368 2304
2019-04-17 12:59:31 GMT 40.580612 -9.458374 24,875 200 369 2304
2019-04-17 12:59:28 GMT 40.585831 -9.455933 24,725 200 369 2240
2019-04-17 12:59:21 GMT 40.597553 -9.450489 24,275 200 371 2368
2019-04-17 12:59:16 GMT 40.614944 -9.442322 24,000 200 372 2048
2019-04-17 12:59:10 GMT 40.614944 -9.442322 24,050 200 372 2048
2019-04-17 12:59:07 GMT 40.620319 -9.439878 23,875 200 372 2048
2019-04-17 12:59:04 GMT 40.623997 -9.438067 23,875 200 372 2048
2019-04-17 12:58:59 GMT 40.633392 -9.433716 23,500 200 371 1856
2019-04-17 12:58:54 GMT 40.641640 -9.429828 23,500 200 371 1856
2019-04-17 12:58:49 GMT 40.648956 -9.426453 23,350 200 370 1792
2019-04-17 12:58:46 GMT 40.654633 -9.423706 23,075 200 369 1792
2019-04-17 12:58:43 GMT 40.658661 -9.421936 23,075 200 369 1792
2019-04-17 12:58:39 GMT 40.684280 -9.410165 22,900 200 368 1984
2019-04-17 12:58:31 GMT 40.684280 -9.410165 22,675 199 367 1664
2019-04-17 12:58:26 GMT 40.687820 -9.408542 22,600 199 366 1664
2019-04-17 12:58:23 GMT 40.692490 -9.406494 22,525 199 366 1664
2019-04-17 12:58:18 GMT 40.704159 -9.401301 22,250 199 363 1984
2019-04-17 12:58:12 GMT 40.709152 -9.399170 22,200 198 363 1920
2019-04-17 12:58:06 GMT 40.718124 -9.395447 21,975 198 362 1536
2019-04-17 12:58:03 GMT 40.723061 -9.393373 21,850 197 359 1856
2019-04-17 12:58:00 GMT 40.727249 -9.391750 21,900 197 359 1664
2019-04-17 12:57:55 GMT 40.743896 -9.385010 21,625 199 358 1792
2019-04-17 12:57:50 GMT 40.743896 -9.385010 21,400 208 359 1664
2019-04-17 12:57:46 GMT 40.751266 -9.380981 21,450 206 359 1600
2019-04-17 12:57:41 GMT 40.757217 -9.377014 21,375 208 359 1664
2019-04-17 12:57:35 GMT 40.765514 -9.370089 21,050 219 364 1984
2019-04-17 12:57:29 GMT 40.773193 -9.361755 20,950 225 367 1920
2019-04-17 12:57:24 GMT 40.780106 -9.351135 20,750 235 374 1664
2019-04-17 12:57:14 GMT 40.788372 -9.333385 20,475 241 374 1792
2019-04-17 12:57:11 GMT 40.791046 -9.327209 20,425 241 373 1792
2019-04-17 12:57:03 GMT 40.798149 -9.310851 20,175 240 370 2112
2019-04-17 12:57:00 GMT 40.800198 -9.306169 20,075 240 370 2176
2019-04-17 12:56:52 GMT 40.809769 -9.284546 19,650 240 368 2304
2019-04-17 12:56:39 GMT 40.822311 -9.256897 19,025 239 367 2816
2019-04-17 12:56:29 GMT 40.827011 -9.246743 18,800 239 367 2624
2019-04-17 12:56:21 GMT 40.834717 -9.230103 18,400 239 366 2944
2019-04-17 12:56:18 GMT 40.836868 -9.225586 18,275 239 367 3072
2019-04-17 12:56:11 GMT 40.843956 -9.210600 17,625 238 368 2688
2019-04-17 12:56:08 GMT 40.846069 -9.206177 17,775 238 368 2752
2019-04-17 12:56:01 GMT 40.852474 -9.192685 17,375 238 368 2752
2019-04-17 12:55:56 GMT 40.860214 -9.176514 17,050 238 367 2496
2019-04-17 12:55:50 GMT 40.863464 -9.169739 16,925 238 366 2368
2019-04-17 12:55:47 GMT 40.864857 -9.166905 16,850 238 366 2368
2019-04-17 12:55:38 GMT 40.872864 -9.150363 16,350 238 363 2560
2019-04-17 12:55:35 GMT 40.875610 -9.144745 16,350 238 363 2560
2019-04-17 12:55:30 GMT 40.880630 -9.134521 16,125 238 363 2560
2019-04-17 12:55:27 GMT 40.883698 -9.128174 15,975 238 362 2496
2019-04-17 12:55:20 GMT 40.893349 -9.108290 15,625 238 360 2112
2019-04-17 12:55:16 GMT 40.893349 -9.108290 15,575 238 358 2048
2019-04-17 12:55:07 GMT 40.901642 -9.091248 15,275 238 353 1728
2019-04-17 12:55:04 GMT 40.904114 -9.086182 15,175 238 352 1856
2019-04-17 12:54:59 GMT 40.908569 -9.076954 15,000 238 348 2176
2019-04-17 12:54:55 GMT 40.912064 -9.069776 14,875 238 347 2048
2019-04-17 12:54:49 GMT 40.917416 -9.058727 14,675 238 344 1664
2019-04-17 12:54:44 GMT 40.920860 -9.051673 14,550 238 341 2048
2019-04-17 12:54:39 GMT 40.926407 -9.040344 14,300 238 339 2368
2019-04-17 12:54:35 GMT 40.929192 -9.034569 14,175 238 337 1984
2019-04-17 12:54:27 GMT 40.935699 -9.021301 13,950 238 332 2112
2019-04-17 12:54:23 GMT 40.938782 -9.014969 13,800 238 332 2624
2019-04-17 12:54:17 GMT 40.943710 -9.005005 13,550 237 330 2368
2019-04-17 12:54:14 GMT 40.946732 -8.998962 13,400 237 328 2496
2019-04-17 12:54:07 GMT 40.952423 -8.987815 13,075 236 328 3328
2019-04-17 12:54:03 GMT 40.956005 -8.980886 12,850 236 329 3136
2019-04-17 12:53:57 GMT 40.961452 -8.970711 12,525 235 329 2944
2019-04-17 12:53:52 GMT 40.965958 -8.962341 12,300 235 329 2816
2019-04-17 12:53:47 GMT 40.970810 -8.953358 12,050 235 328 2304
2019-04-17 12:53:41 GMT 40.975048 -8.945493 11,850 235 327 2176
2019-04-17 12:53:36 GMT 40.980148 -8.935913 11,625 236 325 2368
2019-04-17 12:53:31 GMT 40.984634 -8.927429 11,425 236 324 2176
2019-04-17 12:53:24 GMT 40.989803 -8.917528 11,225 236 320 1536
2019-04-17 12:53:21 GMT 40.992737 -8.911926 11,150 236 317 1024
2019-04-17 12:53:15 GMT 40.997864 -8.902039 11,050 236 311 960
2019-04-17 12:53:09 GMT 41.001938 -8.894226 10,950 236 306 1024
2019-04-17 12:53:00 GMT 41.010010 -8.878514 10,800 237 295 896
2019-04-17 12:52:53 GMT 41.014481 -8.869751 10,700 237 288 1024
2019-04-17 12:52:48 GMT 41.018341 -8.862034 10,600 237 283 960
2019-04-17 12:52:38 GMT 41.025742 -8.847595 10,450 236 269 1472
2019-04-17 12:52:30 GMT 41.031143 -8.837036 10,200 236 264 2816
2019-04-17 12:52:26 GMT 41.033524 -8.832520 10,050 236 264 2752
2019-04-17 12:52:17 GMT 41.040070 -8.820007 8,525 236 265 2560
2019-04-17 12:52:10 GMT 41.045807 -8.809225 9,225 236 265 2368
2019-04-17 12:52:06 GMT 41.047531 -8.805908 9,125 236 263 2432
2019-04-17 12:52:02 GMT 41.050598 -8.800110 8,925 236 262 2624
2019-04-17 12:51:55 GMT 41.060760 -8.780884 8,250 235 262 2560
2019-04-17 12:51:45 GMT 41.062378 -8.777826 8,150 235 262 2624
2019-04-17 12:51:41 GMT 41.066196 -8.770773 7,925 235 262 2496
2019-04-17 12:51:33 GMT 41.070602 -8.762573 7,650 235 261 2560
2019-04-17 12:51:29 GMT 41.073692 -8.756665 7,450 236 260 2560
2019-04-17 12:51:23 GMT 41.077835 -8.748863 7,200 236 260 2688
2019-04-17 12:51:14 GMT 41.084213 -8.736565 6,650 236 258 2816
2019-04-17 12:51:10 GMT 41.086540 -8.732133 6,600 236 258 2752
2019-04-17 12:51:04 GMT 41.091568 -8.722520 6,125 235 257 2432
2019-04-17 12:50:52 GMT 41.098618 -8.709290 5,825 235 255 2752
2019-04-17 12:50:42 GMT 41.105713 -8.696045 5,350 235 254 2432
2019-04-17 12:50:31 GMT 41.112797 -8.682632 4,900 236 252 2816
2019-04-17 12:50:20 GMT 41.121918 -8.666652 4,300 225 251 2240
2019-04-17 12:50:09 GMT 41.131073 -8.658325 4,025 203 242 1024
2019-04-17 12:49:57 GMT 41.143520 -8.654855 3,825 172 226 768
2019-04-17 12:49:49 GMT 41.152725 -8.656494 3,675 168 218 1152
2019-04-17 12:49:37 GMT 41.163864 -8.659411 3,325 168 209 2240
2019-04-17 12:49:28 GMT 41.175430 -8.662598 2,850 168 204 1920
2019-04-17 12:49:17 GMT 41.182983 -8.664612 2,625 168 199 1216
2019-04-17 12:49:08 GMT 41.200562 -8.669495 2,275 167 186 1152
We lost coverage of the aircraft here for a total of 92 minutes
2019-04-17 11:17:10 GMT 41.267303 -8.686340 450 168 145 -576
2019-04-17 11:17:00 GMT 41.272842 -8.687744 550 168 145 -640
2019-04-17 11:16:44 GMT 41.284195 -8.690796 775 168 145 -832
2019-04-17 11:16:40 GMT 41.286530 -8.691434 825 168 145 -704
2019-04-17 11:16:26 GMT 41.296257 -8.693993 1,000 169 145 -832
2019-04-17 11:16:17 GMT 41.301659 -8.695304 1,100 168 143 -704
2019-04-17 11:16:08 GMT 41.307571 -8.696865 1,225 169 140 -576
2019-04-17 11:15:56 GMT 41.315159 -8.698862 1,350 168 137 -704
2019-04-17 11:15:48 GMT 41.320835 -8.700360 1,450 169 135 -576
2019-04-17 11:15:34 GMT 41.332489 -8.703369 1,650 168 133 -640
2019-04-17 11:15:19 GMT 41.338017 -8.704855 1,750 168 134 -448
2019-04-17 11:15:10 GMT 41.344482 -8.706604 1,850 168 136 -704
2019-04-17 11:14:58 GMT 41.350937 -8.708313 1,975 169 135 -768
2019-04-17 11:14:48 GMT 41.357162 -8.709900 2,125 168 133 -768
2019-04-17 11:14:38 GMT 41.363434 -8.711534 2,225 168 134 -576
2019-04-17 11:14:28 GMT 41.369671 -8.713157 2,325 168 136 -512
2019-04-17 11:14:15 GMT 41.376980 -8.715092 2,450 168 142 -704
2019-04-17 11:14:03 GMT 41.385315 -8.717346 2,900 168 170 -576
2019-04-17 11:13:56 GMT 41.390293 -8.718673 2,675 168 159 -640
2019-04-17 11:13:44 GMT 41.398636 -8.720897 2,825 168 167 -704
2019-04-17 11:13:33 GMT 41.407658 -8.723400 2,950 168 175 -640
2019-04-17 11:13:24 GMT 41.414406 -8.725252 3,050 168 179 -832
2019-04-17 11:13:14 GMT 41.422878 -8.727488 3,175 169 179 0
2019-04-17 11:13:01 GMT 41.433243 -8.729761 3,175 172 176 0
2019-04-17 11:12:53 GMT 41.440018 -8.730885 3,150 174 173 0
2019-04-17 11:12:41 GMT 41.448902 -8.731448 3,150 186 173 0
2019-04-17 11:12:37 GMT 41.453323 -8.730171 3,150 202 176 0
2019-04-17 11:12:26 GMT 41.460938 -8.722583 3,150 229 184 0
2019-04-17 11:11:55 GMT 41.477783 -8.696802 3,150 230 208 -448
2019-04-17 11:11:52 GMT 41.479813 -8.693635 3,150 230 208 -448
2019-04-17 11:11:44 GMT 41.485027 -8.685459 3,275 230 214 -576
2019-04-17 11:11:31 GMT 41.493439 -8.672333 3,350 230 224 -320
2019-04-17 11:11:24 GMT 41.498341 -8.664636 3,400 230 227 -448
2019-04-17 11:11:13 GMT 41.505386 -8.653544 3,550 230 230 -1024
2019-04-17 11:11:04 GMT 41.512756 -8.642120 3,725 230 231 -1088
2019-04-17 11:10:56 GMT 41.517517 -8.634692 3,850 230 232 -1152
2019-04-17 11:10:52 GMT 41.521271 -8.628824 3,950 230 233 -1088
2019-04-17 11:10:47 GMT 41.523651 -8.625079 4,025 230 234 -1024
2019-04-17 11:10:39 GMT 41.529903 -8.615261 4,125 231 235 -384
2019-04-17 11:10:31 GMT 41.536240 -8.605166 4,150 230 245 0
2019-04-17 11:10:24 GMT 41.540543 -8.598487 4,150 230 246 0
2019-04-17 11:10:15 GMT 41.546661 -8.588818 4,150 230 247 -320
2019-04-17 11:10:04 GMT 41.556152 -8.574018 4,300 230 248 -960
2019-04-17 11:09:54 GMT 41.571102 -8.550876 4,925 230 257 -704
2019-04-17 11:09:43 GMT 41.578812 -8.538811 4,925 230 257 -704
2019-04-17 11:09:33 GMT 41.578812 -8.538811 4,775 230 251 -640
2019-04-17 11:09:23 GMT 41.586788 -8.526285 4,900 230 254 -704
2019-04-17 11:09:12 GMT 41.594833 -8.513655 5,025 230 260 -704
2019-04-17 11:08:30 GMT 41.627663 -8.462347 5,975 230 270 -128
2019-04-17 11:08:20 GMT 41.635998 -8.449317 5,975 230 270 64
2019-04-17 11:08:09 GMT 41.644936 -8.435264 6,025 230 272 -640
2019-04-17 11:07:53 GMT 41.659180 -8.412845 6,150 230 272 -576
2019-04-17 11:07:37 GMT 41.671921 -8.392681 6,850 230 271 -960
2019-04-17 11:07:28 GMT 41.678925 -8.381570 6,600 230 272 -960
2019-04-17 11:07:16 GMT 41.688183 -8.367111 6,850 230 271 -1024
2019-04-17 11:07:06 GMT 41.697006 -8.353292 6,975 230 273 -832
2019-04-17 11:06:55 GMT 41.705498 -8.339901 7,100 230 277 -640
2019-04-17 11:06:45 GMT 41.713970 -8.326487 7,225 230 279 -1024
2019-04-17 11:06:35 GMT 41.722164 -8.313584 7,400 230 279 -1024
2019-04-17 11:06:25 GMT 41.731476 -8.298766 7,575 230 278 -960
2019-04-17 11:06:13 GMT 41.740540 -8.284440 7,825 230 277 -896
2019-04-17 11:06:08 GMT 41.744461 -8.278262 7,825 230 277 -896
2019-04-17 11:06:04 GMT 41.748734 -8.271457 7,925 230 278 -896
2019-04-17 11:05:53 GMT 41.757172 -8.258142 8,075 230 280 -1152
2019-04-17 11:05:43 GMT 41.765831 -8.244473 8,375 230 282 -1472
2019-04-17 11:05:32 GMT 41.774490 -8.230931 8,875 230 280 -1984
2019-04-17 11:05:24 GMT 41.782104 -8.218897 8,900 230 280 -1216
2019-04-17 11:05:21 GMT 41.784962 -8.214324 8,975 230 281 -448
2019-04-17 11:05:13 GMT 41.790970 -8.204679 9,000 230 283 0
2019-04-17 11:05:09 GMT 41.794418 -8.199421 9,000 230 284 0
2019-04-17 11:04:58 GMT 41.804005 -8.184367 9,000 230 285 0
2019-04-17 11:04:52 GMT 41.809525 -8.175638 9,000 230 286 0
2019-04-17 11:04:48 GMT 41.811871 -8.171912 9,000 230 286 0
2019-04-17 11:04:38 GMT 41.821152 -8.157224 8,975 230 288 0
2019-04-17 11:04:30 GMT 41.827789 -8.146682 9,000 230 288 0
2019-04-17 11:04:20 GMT 41.836670 -8.132567 8,975 231 291 0
2019-04-17 11:04:13 GMT 41.842392 -8.123453 8,975 231 291 -64
2019-04-17 11:04:07 GMT 41.848183 -8.114170 9,000 230 292 0
2019-04-17 11:04:04 GMT 41.850834 -8.110018 9,000 230 292 0
2019-04-17 11:03:57 GMT 41.856236 -8.101459 9,000 230 293 0
2019-04-17 11:03:54 GMT 41.859215 -8.096732 9,000 230 293 0
2019-04-17 11:03:47 GMT 41.864731 -8.087935 9,000 230 293 0
2019-04-17 11:03:44 GMT 41.868153 -8.082488 9,000 230 293 0
2019-04-17 11:03:37 GMT 41.873924 -8.073354 9,000 230 293 0
2019-04-17 11:03:27 GMT 41.882629 -8.059494 9,000 231 291 0
2019-04-17 11:03:15 GMT 41.892929 -8.043053 9,000 231 289 0
2019-04-17 11:03:04 GMT 41.902084 -8.028571 8,975 230 289 0
2019-04-17 11:02:54 GMT 41.910782 -8.014838 9,000 230 292 0
2019-04-17 11:02:42 GMT 41.922409 -7.996361 8,975 230 298 0
2019-04-17 11:02:35 GMT 41.928772 -7.986311 9,000 230 310 -512
2019-04-17 11:02:32 GMT 41.930344 -7.983867 9,000 230 310 -512
2019-04-17 11:02:18 GMT 41.943558 -7.963028 9,200 230 320 -960
2019-04-17 11:02:08 GMT 41.954319 -7.945862 9,375 231 323 -960
2019-04-17 11:01:59 GMT 41.963024 -7.931937 9,550 231 327 -896
2019-04-17 11:01:47 GMT 41.973499 -7.915075 9,725 231 328 -1536
2019-04-17 11:01:36 GMT 41.984577 -7.897126 10,025 231 330 -1600
2019-04-17 11:01:26 GMT 41.996384 -7.877884 10,350 231 333 -1664
2019-04-17 11:01:13 GMT 42.007156 -7.860398 10,675 231 337 -1664
2019-04-17 11:01:04 GMT 42.017353 -7.843919 10,950 231 340 -1664
2019-04-17 11:00:50 GMT 42.031219 -7.821641 11,350 230 340 -2048
2019-04-17 11:00:41 GMT 42.039734 -7.808221 11,675 230 336 -2496
2019-04-17 11:00:37 GMT 42.043655 -7.801954 11,825 230 334 -2496
2019-04-17 11:00:31 GMT 42.051613 -7.789307 12,175 230 331 -2560
2019-04-17 11:00:28 GMT 42.052593 -7.787710 12,225 230 330 -2560
2019-04-17 11:00:20 GMT 42.061436 -7.773658 12,600 231 328 -2560
2019-04-17 11:00:09 GMT 42.071770 -7.757050 13,025 231 328 -2304
2019-04-17 11:00:06 GMT 42.074100 -7.753282 13,125 231 328 -2368
2019-04-17 11:00:00 GMT 42.080708 -7.742615 13,375 230 327 -2112
2019-04-17 10:59:56 GMT 42.084549 -7.736560 13,500 230 329 -1792
2019-04-17 10:59:49 GMT 42.090904 -7.726327 13,725 230 330 -2304
2019-04-17 10:59:42 GMT 42.097321 -7.716148 13,975 230 330 -2304
2019-04-17 10:59:38 GMT 42.101379 -7.709656 14,125 231 331 -2048
2019-04-17 10:59:33 GMT 42.106079 -7.702119 14,275 231 332 -2304
2019-04-17 10:59:27 GMT 42.112038 -7.692601 14,500 230 332 -1856
2019-04-17 10:59:24 GMT 42.115082 -7.687683 14,600 230 334 -1088
2019-04-17 10:59:14 GMT 42.125633 -7.670884 14,800 230 340 -2624
2019-04-17 10:59:10 GMT 42.129410 -7.664899 14,975 230 337 -1984
2019-04-17 10:59:07 GMT 42.133362 -7.658620 15,200 230 337 -3008
2019-04-17 10:59:03 GMT 42.135967 -7.654469 15,300 230 337 -1984
2019-04-17 10:58:58 GMT 42.141830 -7.645143 15,475 231 340 -1344
2019-04-17 10:58:55 GMT 42.144440 -7.640927 15,525 231 342 -1536
2019-04-17 10:58:52 GMT 42.150650 -7.630879 16,350 231 360 -2112
2019-04-17 10:58:49 GMT 42.150650 -7.630879 15,725 231 344 -2304
2019-04-17 10:58:45 GMT 42.157288 -7.620168 16,000 231 344 -3136
2019-04-17 10:58:39 GMT 42.161942 -7.612567 16,225 231 345 -2304
2019-04-17 10:58:34 GMT 42.171066 -7.597795 16,450 231 348 -1216
2019-04-17 10:58:25 GMT 42.175827 -7.590055 16,600 231 352 -1984
2019-04-17 10:58:22 GMT 42.178528 -7.585685 16,675 231 352 -2240
2019-04-17 10:58:17 GMT 42.183681 -7.577373 16,875 231 353 -2304
2019-04-17 10:58:11 GMT 42.189316 -7.568239 17,075 231 355 -2048
2019-04-17 10:58:07 GMT 42.194576 -7.559743 17,225 231 356 -1920
2019-04-17 10:58:01 GMT 42.200302 -7.550546 17,400 231 359 -1920
2019-04-17 10:57:55 GMT 42.205795 -7.541539 17,575 231 360 -2112
2019-04-17 10:57:50 GMT 42.211441 -7.532376 17,750 231 361 -2112
2019-04-17 10:57:45 GMT 42.217438 -7.522576 17,950 231 364 -1984
2019-04-17 10:57:41 GMT 42.222565 -7.514211 18,100 232 366 -2048
2019-04-17 10:57:35 GMT 42.228470 -7.504161 18,275 233 368 -2176
2019-04-17 10:57:28 GMT 42.235729 -7.491143 18,950 234 375 -2176
2019-04-17 10:57:24 GMT 42.239452 -7.484436 18,650 234 372 -1856
2019-04-17 10:57:17 GMT 42.245956 -7.472763 18,850 234 374 -1984
2019-04-17 10:57:13 GMT 42.250534 -7.464523 19,000 234 375 -2432
2019-04-17 10:57:08 GMT 42.255234 -7.456076 19,175 233 377 -2432
2019-04-17 10:57:05 GMT 42.258911 -7.449542 19,325 233 377 -2368
2019-04-17 10:57:02 GMT 42.262402 -7.443365 19,450 233 377 -2304
2019-04-17 10:56:59 GMT 42.266174 -7.436594 19,575 233 378 -2240
2019-04-17 10:56:52 GMT 42.272827 -7.424698 19,825 234 379 -2432
2019-04-17 10:56:45 GMT 42.280426 -7.411090 20,100 234 380 -2368
2019-04-17 10:56:42 GMT 42.284225 -7.404286 20,250 234 380 -2304
2019-04-17 10:56:34 GMT 42.292007 -7.390241 20,525 234 381 -2304
2019-04-17 10:56:29 GMT 42.297729 -7.380003 20,750 234 381 -2304
2019-04-17 10:56:26 GMT 42.299736 -7.376361 20,800 234 381 -2304
2019-04-17 10:56:23 GMT 42.303223 -7.370078 20,950 233 382 -2176
2019-04-17 10:56:19 GMT 42.307186 -7.363075 21,075 234 382 -2176
2019-04-17 10:56:16 GMT 42.310913 -7.356408 21,200 234 382 -2432
2019-04-17 10:56:13 GMT 42.314713 -7.349541 21,350 234 382 -2432
2019-04-17 10:56:09 GMT 42.318146 -7.343424 21,475 234 383 -2368
2019-04-17 10:56:05 GMT 42.322815 -7.334997 21,650 234 383 -2368
2019-04-17 10:56:02 GMT 42.325333 -7.330378 21,750 234 383 -2240
2019-04-17 10:55:59 GMT 42.329590 -7.322700 21,900 234 384 -2304
2019-04-17 10:55:56 GMT 42.333206 -7.316145 22,050 234 384 -2432
2019-04-17 10:55:52 GMT 42.336777 -7.309591 22,175 234 385 -2432
2019-04-17 10:55:47 GMT 42.341446 -7.301039 22,350 234 386 -2240
2019-04-17 10:55:42 GMT 42.347580 -7.289803 22,575 234 387 -2176
2019-04-17 10:55:35 GMT 42.354538 -7.276944 22,800 234 389 -2240
2019-04-17 10:55:30 GMT 42.359848 -7.267082 23,000 235 390 -2304
2019-04-17 10:55:24 GMT 42.366119 -7.255448 23,225 235 391 -2240
2019-04-17 10:55:19 GMT 42.371845 -7.244717 23,400 235 394 -2048
2019-04-17 10:55:13 GMT 42.377621 -7.233922 23,600 235 395 -2816
2019-04-17 10:55:10 GMT 42.381481 -7.226768 23,800 235 393 -4160
2019-04-17 10:55:04 GMT 42.387817 -7.215084 24,200 234 390 -4544
2019-04-17 10:55:00 GMT 42.393127 -7.205283 24,550 234 387 -3456
2019-04-17 10:54:52 GMT 42.399994 -7.192861 24,825 233 389 -1152
2019-04-17 10:54:48 GMT 42.404293 -7.185314 24,875 232 392 -384
2019-04-17 10:54:42 GMT 42.411667 -7.172824 24,950 232 396 -576
2019-04-17 10:54:38 GMT 42.416397 -7.164874 24,975 232 399 -256
2019-04-17 10:54:32 GMT 42.422867 -7.154016 25,000 232 399 0
2019-04-17 10:54:27 GMT 42.429806 -7.142327 25,000 232 400 0
2019-04-17 10:54:22 GMT 42.434925 -7.133768 25,000 232 399 0
2019-04-17 10:54:16 GMT 42.441395 -7.122845 25,000 232 400 0
2019-04-17 10:54:12 GMT 42.447327 -7.112898 25,000 232 401 0
2019-04-17 10:54:07 GMT 42.452988 -7.103300 25,000 232 401 -64
2019-04-17 10:54:01 GMT 42.458805 -7.093527 25,000 232 403 -192
2019-04-17 10:53:56 GMT 42.465683 -7.081937 25,025 232 405 -832
2019-04-17 10:53:51 GMT 42.471313 -7.072449 25,100 232 407 -1408
2019-04-17 10:53:46 GMT 42.478081 -7.061079 25,250 232 410 -2048
2019-04-17 10:53:39 GMT 42.484634 -7.050039 25,475 232 412 -2688
2019-04-17 10:53:35 GMT 42.489998 -7.041023 25,675 232 414 -3200
2019-04-17 10:53:30 GMT 42.496235 -7.030547 25,975 232 413 -3776
2019-04-17 10:53:25 GMT 42.502426 -7.020008 26,300 232 411 -4224
2019-04-17 10:53:19 GMT 42.508804 -7.009150 26,700 232 409 -4224
2019-04-17 10:53:14 GMT 42.514717 -6.999185 27,050 232 408 -4224
2019-04-17 10:53:07 GMT 42.522354 -6.986181 27,500 232 405 -4288
2019-04-17 10:53:04 GMT 42.527565 -6.977276 27,800 232 403 -4352
2019-04-17 10:52:57 GMT 42.533848 -6.966610 28,175 232 401 -4096
2019-04-17 10:52:52 GMT 42.539474 -6.957030 28,800 232 399 -3456
2019-04-17 10:52:46 GMT 42.546974 -6.944381 28,850 232 399 -2944
2019-04-17 10:52:43 GMT 42.551632 -6.936589 29,150 232 398 -2816
2019-04-17 10:52:36 GMT 42.557869 -6.926113 29,300 232 397 -2560
2019-04-17 10:52:31 GMT 42.564423 -6.915082 29,550 232 396 -1856
2019-04-17 10:52:26 GMT 42.569836 -6.906057 29,700 232 394 -1728
2019-04-17 10:52:20 GMT 42.577011 -6.893921 29,875 232 391 -1792
2019-04-17 10:52:14 GMT 42.583557 -6.882935 30,075 232 388 -2624
2019-04-17 10:52:11 GMT 42.587242 -6.876675 30,650 232 384 -3584
2019-04-17 10:52:05 GMT 42.593948 -6.865369 30,575 232 384 -3584
2019-04-17 10:52:00 GMT 42.599953 -6.855213 30,900 232 383 -3520
2019-04-17 10:51:54 GMT 42.606033 -6.844857 31,225 232 382 -3328
2019-04-17 10:51:49 GMT 42.610886 -6.836617 31,475 232 382 -3136
2019-04-17 10:51:43 GMT 42.617935 -6.824757 31,825 232 380 -3136
2019-04-17 10:51:39 GMT 42.622250 -6.817528 32,025 232 380 -3136
2019-04-17 10:51:34 GMT 42.627869 -6.808090 32,275 231 379 -2944
2019-04-17 10:51:28 GMT 42.634964 -6.796292 32,600 231 378 -2880
2019-04-17 10:51:23 GMT 42.639709 -6.788337 32,825 231 378 -2880
2019-04-17 10:51:17 GMT 42.646866 -6.776442 33,100 231 376 -2176
2019-04-17 10:51:13 GMT 42.650574 -6.770200 33,225 231 375 -1536
2019-04-17 10:51:08 GMT 42.658035 -6.757840 33,375 231 373 -832
2019-04-17 10:51:03 GMT 42.661743 -6.751660 33,425 232 373 -768
2019-04-17 10:50:56 GMT 42.669159 -6.738677 33,525 236 376 -1408
2019-04-17 10:50:52 GMT 42.673645 -6.729956 33,625 237 377 -1792
2019-04-17 10:50:43 GMT 42.682755 -6.711273 33,925 237 376 -1920
2019-04-17 10:50:36 GMT 42.690033 -6.696292 34,175 237 374 -1920
2019-04-17 10:50:32 GMT 42.692871 -6.690424 34,250 237 374 -1856
2019-04-17 10:50:25 GMT 42.699326 -6.677128 34,475 237 373 -1792
2019-04-17 10:50:21 GMT 42.704086 -6.667328 34,625 237 373 -1792
2019-04-17 10:50:11 GMT 42.712784 -6.649350 34,900 237 373 -1856
2019-04-17 10:50:03 GMT 42.723083 -6.628013 35,250 237 372 -1984
2019-04-17 10:49:54 GMT 42.729263 -6.615330 35,475 237 373 -2048
2019-04-17 10:49:50 GMT 42.732395 -6.608915 35,600 237 373 -2048
2019-04-17 10:49:42 GMT 42.740112 -6.593045 35,875 237 373 -1920
2019-04-17 10:49:39 GMT 42.742996 -6.587178 35,975 237 374 -1856
2019-04-17 10:49:29 GMT 42.753937 -6.564955 36,300 237 373 -768
2019-04-17 10:49:22 GMT 42.759109 -6.554468 36,325 237 371 -896
2019-04-17 10:49:17 GMT 42.763771 -6.545041 36,400 237 371 -960
2019-04-17 10:49:09 GMT 42.772381 -6.527667 36,575 237 369 -1088
2019-04-17 10:49:01 GMT 42.779179 -6.513743 36,700 237 369 -1152
2019-04-17 10:48:58 GMT 42.782318 -6.507402 36,775 237 369 -1024
2019-04-17 10:48:47 GMT 42.792309 -6.487235 36,950 237 369 -512
2019-04-17 10:48:37 GMT 42.802223 -6.467179 37,000 237 369 0
2019-04-17 10:48:30 GMT 42.809669 -6.452114 37,000 237 370 0
2019-04-17 10:48:25 GMT 42.813171 -6.445014 37,000 237 370 0
2019-04-17 10:48:16 GMT 42.822472 -6.426283 37,000 237 370 0
2019-04-17 10:48:05 GMT 42.832436 -6.406206 37,000 236 370 0
2019-04-17 10:47:55 GMT 42.843292 -6.384398 37,000 236 370 0
2019-04-17 10:47:44 GMT 42.852451 -6.366119 37,000 236 371 0
2019-04-17 10:47:39 GMT 42.858273 -6.354545 37,000 236 371 0
2019-04-17 10:47:35 GMT 42.861832 -6.347415 37,000 236 371 0
2019-04-17 10:47:32 GMT 42.863983 -6.343199 37,000 235 370 -64
2019-04-17 10:47:27 GMT 42.869957 -6.331526 37,000 235 370 -64
2019-04-17 10:47:23 GMT 42.872936 -6.325836 37,000 234 370 -64
2019-04-17 10:47:20 GMT 42.876427 -6.319558 37,025 233 367 -64
2019-04-17 10:47:13 GMT 42.884338 -6.307656 37,025 224 360 -64
2019-04-17 10:47:09 GMT 42.889603 -6.301509 37,025 220 358 0
2019-04-17 10:47:04 GMT 42.897308 -6.294208 37,025 213 354 0
2019-04-17 10:47:00 GMT 42.901333 -6.290785 37,025 212 354 64
2019-04-17 10:46:52 GMT 42.912918 -6.281050 37,000 212 355 64
2019-04-17 10:46:48 GMT 42.917812 -6.276986 37,000 212 355 64
2019-04-17 10:46:42 GMT 42.928024 -6.268403 37,000 212 356 0
2019-04-17 10:46:38 GMT 42.931915 -6.265081 37,000 212 356 0
2019-04-17 10:46:32 GMT 42.940933 -6.257544 37,000 212 356 0
2019-04-17 10:46:26 GMT 42.948349 -6.251286 37,000 212 357 0
2019-04-17 10:46:22 GMT 42.956219 -6.244681 37,000 212 358 0
2019-04-17 10:46:16 GMT 42.963291 -6.238796 37,000 212 358 0
2019-04-17 10:46:10 GMT 42.971718 -6.231668 37,000 212 358 0
2019-04-17 10:46:05 GMT 42.978191 -6.226240 37,000 212 358 0
2019-04-17 10:46:02 GMT 42.983543 -6.221728 37,000 212 358 0
2019-04-17 10:45:51 GMT 42.997929 -6.209630 37,000 212 358 0
2019-04-17 10:45:48 GMT 43.004398 -6.204136 37,000 212 358 0
2019-04-17 10:45:42 GMT 43.011150 -6.198447 37,000 212 357 -64
2019-04-17 10:45:33 GMT 43.024796 -6.186900 37,025 212 357 0
2019-04-17 10:45:29 GMT 43.028839 -6.183472 37,025 212 357 0
2019-04-17 10:45:21 GMT 43.042618 -6.171831 37,025 212 357 0
2019-04-17 10:45:17 GMT 43.046127 -6.168823 37,025 212 357 0
2019-04-17 10:45:08 GMT 43.058586 -6.158295 37,025 212 356 0
2019-04-17 10:44:58 GMT 43.072598 -6.146393 37,025 212 355 0
2019-04-17 10:44:46 GMT 43.090027 -6.131649 37,025 212 355 0
2019-04-17 10:44:37 GMT 43.102249 -6.121301 37,025 212 353 0
2019-04-17 10:44:25 GMT 43.118134 -6.107951 37,000 212 353 64
2019-04-17 10:44:15 GMT 43.132977 -6.095450 37,000 212 353 64
2019-04-17 10:44:05 GMT 43.146618 -6.083941 37,000 212 353 64
2019-04-17 10:44:02 GMT 43.152603 -6.078889 37,000 212 353 64
2019-04-17 10:43:55 GMT 43.159649 -6.072889 37,000 212 354 64
2019-04-17 10:43:52 GMT 43.164825 -6.068541 37,000 212 354 64
2019-04-17 10:43:46 GMT 43.174805 -6.060046 37,000 212 354 64
2019-04-17 10:43:42 GMT 43.180115 -6.055575 37,000 212 354 64
2019-04-17 10:43:34 GMT 43.189041 -6.047910 36,975 213 356 0
2019-04-17 10:43:30 GMT 43.195869 -6.042088 37,000 213 356 -64
2019-04-17 10:43:25 GMT 43.202454 -6.036476 37,000 213 357 -64
2019-04-17 10:43:19 GMT 43.210007 -6.029961 37,000 213 358 -128
2019-04-17 10:43:15 GMT 43.217331 -6.023765 37,025 213 358 -128
2019-04-17 10:43:09 GMT 43.225056 -6.017173 37,025 213 358 -64
2019-04-17 10:43:04 GMT 43.232208 -6.011054 37,025 212 357 0
2019-04-17 10:42:59 GMT 43.239674 -6.004682 37,025 212 357 64
2019-04-17 10:42:51 GMT 43.249329 -5.996491 37,000 212 357 64
2019-04-17 10:42:47 GMT 43.256378 -5.990487 37,000 212 357 0
2019-04-17 10:42:36 GMT 43.270432 -5.978543 37,000 212 357 0
2019-04-17 10:42:25 GMT 43.286407 -5.964874 37,000 212 357 0
2019-04-17 10:42:15 GMT 43.299957 -5.953282 37,025 212 357 0
2019-04-17 10:42:05 GMT 43.314926 -5.940538 37,000 212 357 0
2019-04-17 10:41:53 GMT 43.330776 -5.927059 37,000 212 357 0
2019-04-17 10:41:44 GMT 43.345070 -5.914830 37,000 212 357 0
2019-04-17 10:41:33 GMT 43.359833 -5.902213 37,000 212 359 0
2019-04-17 10:41:21 GMT 43.375946 -5.888480 37,000 212 360 -64
2019-04-17 10:41:09 GMT 43.392506 -5.874350 37,025 212 361 0
2019-04-17 10:41:00 GMT 43.406799 -5.862100 37,025 213 362 0
2019-04-17 10:40:50 GMT 43.420715 -5.850156 37,000 212 362 0
2019-04-17 10:40:39 GMT 43.435822 -5.837253 37,000 212 364 0
2019-04-17 10:40:27 GMT 43.454132 -5.821540 37,000 212 366 0
2019-04-17 10:40:17 GMT 43.467548 -5.810067 37,000 213 367 0
2019-04-17 10:40:06 GMT 43.482582 -5.797185 37,000 212 370 -64
2019-04-17 10:39:56 GMT 43.498398 -5.783599 37,025 213 369 0
2019-04-17 10:39:45 GMT 43.514282 -5.769866 37,025 213 369 0
2019-04-17 10:39:33 GMT 43.531311 -5.755175 37,025 213 368 0
2019-04-17 10:39:23 GMT 43.545288 -5.743103 37,025 213 367 0
2019-04-17 10:39:13 GMT 43.559952 -5.730482 37,000 213 367 0
2019-04-17 10:39:02 GMT 43.575623 -5.716979 37,000 213 367 0
2019-04-17 10:38:52 GMT 43.590958 -5.703735 37,000 213 366 0
2019-04-17 10:38:40 GMT 43.606739 -5.690133 37,000 213 366 0
2019-04-17 10:38:27 GMT 43.625359 -5.674046 37,025 213 365 0
2019-04-17 10:38:19 GMT 43.637650 -5.663387 37,025 213 364 0
2019-04-17 10:38:07 GMT 43.653618 -5.649588 37,000 213 364 0
2019-04-17 10:37:57 GMT 43.668697 -5.636509 37,000 213 363 0
2019-04-17 10:37:47 GMT 43.684620 -5.622777 37,025 213 362 0
2019-04-17 10:37:35 GMT 43.699051 -5.610221 37,000 213 361 0
2019-04-17 10:37:24 GMT 43.715607 -5.595873 37,000 213 361 0
2019-04-17 10:37:14 GMT 43.731312 -5.582297 37,000 213 361 0
2019-04-17 10:37:02 GMT 43.746964 -5.568663 37,000 213 360 0
2019-04-17 10:36:52 GMT 43.760639 -5.556793 37,000 213 360 0
2019-04-17 10:36:41 GMT 43.775665 -5.543752 37,000 213 359 0
2019-04-17 10:36:31 GMT 43.791782 -5.529654 37,000 213 358 0
2019-04-17 10:36:19 GMT 43.806355 -5.516968 37,000 213 358 0
2019-04-17 10:36:08 GMT 43.822880 -5.502581 37,000 213 358 0
2019-04-17 10:35:57 GMT 43.837280 -5.489970 37,000 213 358 0
2019-04-17 10:35:45 GMT 43.854584 -5.474832 37,000 213 357 0
2019-04-17 10:35:37 GMT 43.865479 -5.465379 37,000 213 357 0
2019-04-17 10:35:27 GMT 43.881134 -5.451710 37,000 213 357 0
2019-04-17 10:35:16 GMT 43.896194 -5.438552 37,025 213 355 -64
2019-04-17 10:35:04 GMT 43.911987 -5.424819 37,050 213 352 0
2019-04-17 10:34:53 GMT 43.927322 -5.411341 37,025 213 350 448
2019-04-17 10:34:43 GMT 43.940613 -5.399715 36,925 213 353 576
2019-04-17 10:34:31 GMT 43.957275 -5.385197 36,900 213 359 -128
2019-04-17 10:34:20 GMT 43.971771 -5.372506 37,000 213 360 -640
2019-04-17 10:34:10 GMT 43.985954 -5.360086 37,075 213 356 -128
2019-04-17 10:33:59 GMT 44.002167 -5.345871 37,050 213 352 0
2019-04-17 10:33:48 GMT 44.016582 -5.333208 37,050 213 351 64
2019-04-17 10:33:34 GMT 44.035675 -5.316489 36,975 213 352 384
2019-04-17 10:33:25 GMT 44.048565 -5.305219 36,925 213 357 256
2019-04-17 10:33:14 GMT 44.063828 -5.291769 36,950 213 361 -320
2019-04-17 10:33:03 GMT 44.079666 -5.277781 37,075 213 362 -576
2019-04-17 10:32:48 GMT 44.102417 -5.257724 37,075 213 359 0
2019-04-17 10:32:13 GMT 44.148651 -5.217037 36,950 213 357 320
2019-04-17 10:32:10 GMT 44.153412 -5.212885 36,975 213 360 64
2019-04-17 10:31:57 GMT 44.171276 -5.196991 37,000 213 363 -128
2019-04-17 10:31:49 GMT 44.184872 -5.184893 37,075 213 362 -320
2019-04-17 10:31:37 GMT 44.200092 -5.171412 37,075 213 360 128
2019-04-17 10:31:05 GMT 44.245285 -5.131400 37,000 213 364 -512
2019-04-17 10:30:43 GMT 44.276207 -5.104020 37,025 213 360 256
2019-04-17 10:30:07 GMT 44.326763 -5.059204 37,050 213 362 192
2019-04-17 10:29:54 GMT 44.345261 -5.042790 37,000 213 362 192
2019-04-17 10:29:44 GMT 44.358902 -5.030757 36,975 213 363 128
2019-04-17 10:29:34 GMT 44.373093 -5.018136 37,000 213 365 -192
2019-04-17 10:29:07 GMT 44.411999 -4.983506 37,000 213 367 -64
2019-04-17 10:28:48 GMT 44.439743 -4.958823 37,000 213 368 0
2019-04-17 10:28:41 GMT 44.449986 -4.949676 37,000 213 370 0
2019-04-17 10:28:31 GMT 44.464279 -4.936850 37,000 213 371 0
2019-04-17 10:28:24 GMT 44.474716 -4.927499 37,025 213 374 -64
2019-04-17 10:28:12 GMT 44.492023 -4.911894 37,000 213 374 0
2019-04-17 10:28:03 GMT 44.505020 -4.900295 37,000 213 375 0
2019-04-17 10:27:49 GMT 44.524567 -4.882769 37,000 213 375 -64
2019-04-17 10:27:25 GMT 44.559814 -4.851249 37,000 213 374 0
2019-04-17 10:27:18 GMT 44.569748 -4.842355 37,000 213 375 -64
2019-04-17 10:27:07 GMT 44.585495 -4.828295 37,000 213 375 -64
2019-04-17 10:26:55 GMT 44.603577 -4.812143 37,025 213 373 0
2019-04-17 10:26:27 GMT 44.642200 -4.770813 37,000 222 376 0
2019-04-17 10:26:23 GMT 44.647087 -4.764516 37,000 223 377 0
2019-04-17 10:26:12 GMT 44.661659 -4.745558 37,000 223 377 0
2019-04-17 10:25:22 GMT 44.726181 -4.661553 37,000 223 380 0
2019-04-17 10:25:19 GMT 44.730194 -4.656307 37,000 223 382 0
2019-04-17 10:25:08 GMT 44.743652 -4.638846 37,000 223 382 0
2019-04-17 10:24:50 GMT 44.766636 -4.608832 37,000 223 383 0
2019-04-17 10:24:44 GMT 44.774967 -4.597979 37,000 223 384 0
2019-04-17 10:24:32 GMT 44.790436 -4.577833 37,000 223 384 0
2019-04-17 10:24:22 GMT 44.803162 -4.561223 37,000 223 383 0
2019-04-17 10:24:14 GMT 44.814163 -4.546799 37,000 223 382 0
2019-04-17 10:24:02 GMT 44.829712 -4.526434 37,000 223 382 0
2019-04-17 10:23:48 GMT 44.847153 -4.503610 37,025 223 382 0
2019-04-17 10:23:38 GMT 44.860565 -4.485953 37,025 224 382 0
2019-04-17 10:23:25 GMT 44.877426 -4.463799 37,000 224 382 0
2019-04-17 10:23:20 GMT 44.883728 -4.455479 37,000 224 380 0
2019-04-17 10:23:03 GMT 44.904785 -4.427752 37,025 224 379 0
2019-04-17 10:22:57 GMT 44.913254 -4.416635 37,025 224 379 0
2019-04-17 10:22:46 GMT 44.926682 -4.399020 37,025 224 377 0
2019-04-17 10:22:36 GMT 44.939438 -4.382205 37,000 223 377 0
2019-04-17 10:22:16 GMT 44.965302 -4.348297 37,000 224 376 0
2019-04-17 10:22:04 GMT 44.980499 -4.328286 37,000 224 375 0
2019-04-17 10:21:49 GMT 44.999348 -4.303358 37,000 224 374 0
2019-04-17 10:21:41 GMT 45.009216 -4.290362 37,000 224 374 0
2019-04-17 10:21:33 GMT 45.020187 -4.275840 37,000 224 374 64
2019-04-17 10:21:22 GMT 45.033936 -4.257738 37,000 224 374 64
2019-04-17 10:21:08 GMT 45.051113 -4.235029 37,000 224 374 0
2019-04-17 10:21:00 GMT 45.060936 -4.221966 37,000 224 374 0
2019-04-17 10:20:49 GMT 45.075043 -4.203275 37,000 224 374 0
2019-04-17 10:20:33 GMT 45.095306 -4.176440 37,000 224 373 0
2019-04-17 10:20:28 GMT 45.101719 -4.167905 37,000 224 373 0
2019-04-17 10:20:17 GMT 45.115402 -4.149693 37,025 224 374 0
2019-04-17 10:20:01 GMT 45.135818 -4.122685 37,000 224 374 0
2019-04-17 10:19:40 GMT 45.162655 -4.087048 37,025 224 374 0
2019-04-17 10:19:30 GMT 45.174866 -4.070762 37,025 224 373 0
2019-04-17 10:19:21 GMT 45.186348 -4.055496 37,025 224 373 0
2019-04-17 10:19:03 GMT 45.208229 -4.026355 37,025 224 374 0
2019-04-17 10:18:59 GMT 45.213257 -4.019656 37,000 224 374 0
2019-04-17 10:18:50 GMT 45.224716 -4.004320 37,000 224 374 0
2019-04-17 10:18:40 GMT 45.238159 -3.986362 37,000 224 374 0
2019-04-17 10:18:11 GMT 45.273636 -3.938934 37,000 224 374 0
2019-04-17 10:18:07 GMT 45.279556 -3.931013 37,000 224 374 0
2019-04-17 10:17:53 GMT 45.297134 -3.907471 37,000 224 374 0
2019-04-17 10:17:35 GMT 45.318970 -3.878174 37,000 224 374 -64
2019-04-17 10:17:32 GMT 45.322842 -3.872949 37,025 224 374 0
2019-04-17 10:17:19 GMT 45.339413 -3.850641 37,000 224 373 0
2019-04-17 10:17:11 GMT 45.349701 -3.836841 37,000 224 373 0
2019-04-17 10:16:59 GMT 45.363945 -3.817615 37,000 224 373 0
2019-04-17 10:16:48 GMT 45.378471 -3.798054 37,000 224 373 0
2019-04-17 10:16:37 GMT 45.392395 -3.779297 37,025 224 373 0
2019-04-17 10:16:31 GMT 45.399902 -3.769226 37,025 224 373 0
2019-04-17 10:16:22 GMT 45.411163 -3.754054 37,000 224 373 0
2019-04-17 10:16:15 GMT 45.419296 -3.743122 37,000 224 373 0
2019-04-17 10:16:05 GMT 45.432098 -3.725906 37,000 224 373 0
2019-04-17 10:15:59 GMT 45.440231 -3.714948 37,000 224 373 0
2019-04-17 10:15:54 GMT 45.445221 -3.708213 37,000 224 373 0
2019-04-17 10:15:41 GMT 45.462078 -3.685377 37,000 224 373 0
2019-04-17 10:15:33 GMT 45.471806 -3.672180 37,000 224 373 0
2019-04-17 10:15:22 GMT 45.485306 -3.653892 37,000 224 374 0
2019-04-17 10:15:10 GMT 45.500931 -3.632682 37,000 224 374 0
2019-04-17 10:15:01 GMT 45.512589 -3.616914 37,000 224 374 0
2019-04-17 10:14:48 GMT 45.528603 -3.595209 37,000 224 374 0
2019-04-17 10:14:39 GMT 45.539169 -3.581007 37,000 224 374 0
2019-04-17 10:14:32 GMT 45.548538 -3.568212 37,000 224 374 0
2019-04-17 10:14:29 GMT 45.552437 -3.562935 37,000 224 374 0
2019-04-17 10:14:24 GMT 45.559929 -3.552773 37,000 224 375 0
2019-04-17 10:14:18 GMT 45.565842 -3.544766 37,000 224 374 0
2019-04-17 10:14:07 GMT 45.579483 -3.526131 37,000 224 375 0
2019-04-17 10:13:56 GMT 45.593307 -3.507385 37,000 224 375 0
2019-04-17 10:13:46 GMT 45.606720 -3.489164 37,000 224 375 0
2019-04-17 10:13:34 GMT 45.621147 -3.469482 37,025 224 375 0
2019-04-17 10:13:23 GMT 45.634552 -3.451181 37,000 224 375 0
2019-04-17 10:13:19 GMT 45.640186 -3.443527 37,000 224 375 0
2019-04-17 10:13:12 GMT 45.648937 -3.431511 37,025 224 375 0
2019-04-17 10:13:01 GMT 45.662613 -3.412930 37,025 224 375 0
2019-04-17 10:12:51 GMT 45.675613 -3.395110 37,000 224 375 0
2019-04-17 10:12:46 GMT 45.680733 -3.388115 37,000 224 375 0
2019-04-17 10:12:36 GMT 45.694427 -3.369453 37,000 224 375 0
2019-04-17 10:12:28 GMT 45.703949 -3.356390 37,000 224 375 0
2019-04-17 10:12:18 GMT 45.716492 -3.339308 37,000 224 375 0
2019-04-17 10:12:06 GMT 45.730869 -3.319588 37,000 224 375 0
2019-04-17 10:11:58 GMT 45.741158 -3.305511 37,000 224 375 0
2019-04-17 10:11:54 GMT 45.746185 -3.298645 37,000 224 375 0
2019-04-17 10:11:43 GMT 45.759686 -3.280106 37,000 224 376 0
2019-04-17 10:11:34 GMT 45.771976 -3.263214 37,000 224 376 0
2019-04-17 10:11:22 GMT 45.785988 -3.243988 37,000 224 376 0
2019-04-17 10:11:13 GMT 45.797607 -3.227971 37,000 224 376 0
2019-04-17 10:11:07 GMT 45.805260 -3.217415 37,000 224 376 0
2019-04-17 10:11:03 GMT 45.810799 -3.209862 37,025 224 376 0
2019-04-17 10:10:57 GMT 45.817272 -3.200935 37,000 224 376 0
2019-04-17 10:10:52 GMT 45.824661 -3.190791 37,000 224 376 0
2019-04-17 10:10:47 GMT 45.830429 -3.182820 37,000 224 376 0
2019-04-17 10:10:40 GMT 45.839569 -3.170242 37,025 225 375 -64
2019-04-17 10:10:34 GMT 45.846321 -3.160973 37,025 225 375 0
2019-04-17 10:10:30 GMT 45.851166 -3.154215 37,025 225 375 0
2019-04-17 10:10:27 GMT 45.855423 -3.148387 37,025 225 375 0
2019-04-17 10:10:18 GMT 45.866478 -3.133026 37,000 224 374 0
2019-04-17 10:10:15 GMT 45.870850 -3.127017 37,000 224 374 0
2019-04-17 10:10:05 GMT 45.882843 -3.110471 37,000 224 374 0
2019-04-17 10:09:56 GMT 45.894455 -3.094505 37,000 224 374 0
2019-04-17 10:09:45 GMT 45.907288 -3.076775 37,000 224 374 0
2019-04-17 10:09:35 GMT 45.920242 -3.058889 37,000 224 374 0
2019-04-17 10:09:24 GMT 45.934387 -3.039260 37,000 225 374 0
2019-04-17 10:09:14 GMT 45.945988 -3.023232 37,000 225 374 0
2019-04-17 10:09:04 GMT 45.959244 -3.004761 37,000 225 374 0
2019-04-17 10:08:53 GMT 45.972523 -2.986290 37,025 225 374 0
2019-04-17 10:08:44 GMT 45.983322 -2.971333 37,000 225 373 0
2019-04-17 10:08:40 GMT 45.996078 -2.953537 37,000 225 373 0
2019-04-17 10:08:34 GMT 45.996078 -2.953537 37,000 225 373 0
2019-04-17 10:08:29 GMT 46.002270 -2.944885 37,025 225 373 0
2019-04-17 10:08:21 GMT 46.012573 -2.930603 37,000 225 372 0
2019-04-17 10:08:13 GMT 46.021355 -2.918381 37,000 225 373 0
2019-04-17 10:08:10 GMT 46.025780 -2.912132 37,000 225 373 0
2019-04-17 10:08:03 GMT 46.034088 -2.900592 37,000 225 373 0
2019-04-17 10:07:56 GMT 46.043015 -2.888131 37,000 225 373 0
2019-04-17 10:07:52 GMT 46.047333 -2.882126 37,025 225 373 0
2019-04-17 10:07:47 GMT 46.053757 -2.873131 37,025 225 372 0
2019-04-17 10:07:42 GMT 46.059586 -2.865087 37,025 225 372 0
2019-04-17 10:07:37 GMT 46.066139 -2.855965 37,000 225 372 0
2019-04-17 10:07:32 GMT 46.071945 -2.847871 37,000 225 372 0
2019-04-17 10:07:27 GMT 46.079361 -2.837554 37,000 225 372 0
2019-04-17 10:07:21 GMT 46.086159 -2.828087 37,000 225 372 0
2019-04-17 10:07:17 GMT 46.091492 -2.820673 37,000 225 371 0
2019-04-17 10:07:12 GMT 46.097397 -2.812366 37,025 225 371 0
2019-04-17 10:07:04 GMT 46.106640 -2.799454 37,000 225 371 0
2019-04-17 10:07:01 GMT 46.110363 -2.794304 37,025 225 371 0
2019-04-17 10:06:54 GMT 46.119999 -2.780914 37,000 225 371 0
2019-04-17 10:06:49 GMT 46.126007 -2.772440 37,000 225 371 0
2019-04-17 10:06:44 GMT 46.132336 -2.763680 37,000 225 372 0
2019-04-17 10:06:40 GMT 46.136627 -2.757635 37,000 225 372 0
2019-04-17 10:06:30 GMT 46.149326 -2.739853 37,025 225 371 0
2019-04-17 10:06:24 GMT 46.157364 -2.728629 37,000 225 372 0
2019-04-17 10:06:20 GMT 46.161152 -2.723305 37,000 225 372 0
2019-04-17 10:06:09 GMT 46.174465 -2.704628 37,000 225 372 0
2019-04-17 10:06:03 GMT 46.182724 -2.692990 37,025 225 372 0
2019-04-17 10:06:00 GMT 46.185928 -2.688502 37,025 225 371 0
2019-04-17 10:05:53 GMT 46.195312 -2.675372 37,025 225 371 0
2019-04-17 10:05:49 GMT 46.199093 -2.670021 37,025 225 371 0
2019-04-17 10:05:43 GMT 46.207855 -2.657687 37,000 225 371 0
2019-04-17 10:05:39 GMT 46.212250 -2.651457 37,025 225 371 0
2019-04-17 10:05:32 GMT 46.220737 -2.639534 37,000 225 372 -64
2019-04-17 10:05:28 GMT 46.225754 -2.632498 37,000 225 371 0
2019-04-17 10:05:22 GMT 46.232895 -2.622450 37,000 225 371 64
2019-04-17 10:05:17 GMT 46.239407 -2.613304 37,000 225 371 0
2019-04-17 10:05:11 GMT 46.252304 -2.595051 37,000 225 371 0
2019-04-17 10:05:06 GMT 46.252304 -2.595051 37,000 225 371 -64
2019-04-17 10:05:02 GMT 46.258820 -2.585907 37,025 225 372 -64
2019-04-17 10:04:55 GMT 46.265709 -2.576157 37,025 225 371 0
2019-04-17 10:04:51 GMT 46.271343 -2.568192 37,025 225 371 0
2019-04-17 10:04:48 GMT 46.274788 -2.563316 37,025 225 370 0
2019-04-17 10:04:44 GMT 46.279083 -2.557269 37,025 225 370 0
2019-04-17 10:04:41 GMT 46.283478 -2.551039 37,025 225 370 0
2019-04-17 10:04:38 GMT 46.287140 -2.545881 37,025 225 369 64
2019-04-17 10:04:33 GMT 46.292542 -2.538311 37,000 225 369 64
2019-04-17 10:04:30 GMT 46.296062 -2.533310 37,000 225 369 0
2019-04-17 10:04:27 GMT 46.300716 -2.526718 37,000 225 369 0
2019-04-17 10:04:21 GMT 46.308380 -2.515869 37,000 225 370 0
2019-04-17 10:04:17 GMT 46.311935 -2.510857 37,000 225 370 0
2019-04-17 10:04:14 GMT 46.315613 -2.505707 37,000 225 370 0
2019-04-17 10:04:10 GMT 46.320877 -2.498251 37,000 225 370 0
2019-04-17 10:04:06 GMT 46.326134 -2.490807 37,000 225 370 0
2019-04-17 10:04:03 GMT 46.330044 -2.485313 37,000 225 370 0
2019-04-17 10:04:00 GMT 46.333603 -2.480298 37,025 225 370 0
2019-04-17 10:03:57 GMT 46.336761 -2.475809 37,000 225 370 0
2019-04-17 10:03:54 GMT 46.340927 -2.469914 37,000 225 370 0
2019-04-17 10:03:49 GMT 46.346329 -2.462344 37,000 225 370 0
2019-04-17 10:03:43 GMT 46.353554 -2.452148 37,000 225 370 0
2019-04-17 10:03:40 GMT 46.358673 -2.444939 37,000 225 370 0
2019-04-17 10:03:31 GMT 46.368172 -2.431412 37,000 225 370 0
2019-04-17 10:03:28 GMT 46.372467 -2.425366 37,000 225 373 -64
2019-04-17 10:03:24 GMT 46.385422 -2.406944 37,000 225 371 0
2019-04-17 10:03:17 GMT 46.385422 -2.406944 37,000 225 371 0
2019-04-17 10:03:11 GMT 46.393250 -2.395823 37,000 225 371 0
2019-04-17 10:03:07 GMT 46.398148 -2.388856 37,000 225 371 0
2019-04-17 10:03:04 GMT 46.401810 -2.383631 37,025 225 371 0
2019-04-17 10:02:59 GMT 46.408764 -2.373734 37,000 225 371 -64
2019-04-17 10:02:56 GMT 46.415375 -2.364326 37,000 225 373 -64
2019-04-17 10:02:53 GMT 46.415375 -2.364326 37,025 225 371 0
2019-04-17 10:02:50 GMT 46.419331 -2.358765 37,025 225 371 0
2019-04-17 10:02:46 GMT 46.424217 -2.351761 37,025 225 371 0
2019-04-17 10:02:38 GMT 46.433994 -2.337822 37,000 225 371 64
2019-04-17 10:02:35 GMT 46.437057 -2.333456 37,000 225 371 0
2019-04-17 10:02:27 GMT 46.446751 -2.319695 37,000 225 373 -64
2019-04-17 10:02:23 GMT 46.451523 -2.312890 37,000 225 373 -64
2019-04-17 10:02:17 GMT 46.460129 -2.300631 37,025 225 372 0
2019-04-17 10:02:13 GMT 46.463791 -2.295339 37,025 225 372 0
2019-04-17 10:02:07 GMT 46.471516 -2.284332 37,025 225 371 0
2019-04-17 10:02:02 GMT 46.477383 -2.275955 37,025 225 371 0
2019-04-17 10:01:56 GMT 46.484619 -2.265662 37,025 225 371 0
2019-04-17 10:01:52 GMT 46.490372 -2.257484 37,025 225 371 0
2019-04-17 10:01:46 GMT 46.496933 -2.248077 37,000 225 371 0
2019-04-17 10:01:40 GMT 46.504166 -2.237794 37,000 225 371 0
2019-04-17 10:01:37 GMT 46.513184 -2.224865 37,000 225 371 0
2019-04-17 10:01:30 GMT 46.516720 -2.219788 37,000 225 372 0
2019-04-17 10:01:24 GMT 46.524075 -2.209351 37,000 225 372 0
2019-04-17 10:01:18 GMT 46.535202 -2.193380 37,000 225 372 0
2019-04-17 10:01:15 GMT 46.535202 -2.193380 37,000 225 374 0
2019-04-17 10:01:09 GMT 46.543030 -2.182126 37,000 225 375 0
2019-04-17 10:01:06 GMT 46.547302 -2.175980 37,000 225 374 0
2019-04-17 10:01:00 GMT 46.553329 -2.167388 37,000 225 374 0
2019-04-17 10:00:56 GMT 46.559738 -2.158211 37,000 225 374 0
2019-04-17 10:00:47 GMT 46.569416 -2.144325 37,000 225 374 0
2019-04-17 10:00:44 GMT 46.573242 -2.138851 37,000 225 374 0
2019-04-17 10:00:41 GMT 46.576817 -2.133751 37,000 225 374 0
2019-04-17 10:00:37 GMT 46.582218 -2.125992 37,000 225 374 0
2019-04-17 10:00:34 GMT 46.585430 -2.121391 37,000 225 374 0
2019-04-17 10:00:26 GMT 46.597641 -2.103949 37,000 225 379 0
2019-04-17 10:00:14 GMT 46.610001 -2.086264 37,000 225 379 0
2019-04-17 10:00:09 GMT 46.624374 -2.065631 37,000 225 378 0
2019-04-17 10:00:04 GMT 46.624374 -2.065631 37,000 225 378 0
2019-04-17 09:59:52 GMT 46.637615 -2.046547 37,000 225 378 0
2019-04-17 09:59:44 GMT 46.647812 -2.031921 37,000 225 379 0
2019-04-17 09:59:39 GMT 46.653255 -2.024025 37,000 225 379 0
2019-04-17 09:59:34 GMT 46.661133 -2.012776 37,000 225 379 0
2019-04-17 09:59:30 GMT 46.665501 -2.006516 37,000 225 379 0
2019-04-17 09:59:23 GMT 46.673740 -1.994637 37,000 225 380 0
2019-04-17 09:59:19 GMT 46.678440 -1.987839 37,000 225 383 0
2019-04-17 09:59:13 GMT 46.686310 -1.976467 37,000 225 380 0
2019-04-17 09:59:07 GMT 46.693817 -1.965682 37,000 225 381 0
2019-04-17 09:59:02 GMT 46.699436 -1.957558 37,025 225 381 0
2019-04-17 09:58:57 GMT 46.706699 -1.947052 37,000 225 381 0
2019-04-17 09:58:53 GMT 46.712082 -1.939288 37,000 225 382 0
2019-04-17 09:58:45 GMT 46.721455 -1.925697 37,000 225 382 0
2019-04-17 09:58:40 GMT 46.726822 -1.917918 37,000 225 383 0
2019-04-17 09:58:35 GMT 46.733746 -1.907913 37,000 225 383 0
2019-04-17 09:58:31 GMT 46.738403 -1.901238 37,000 225 383 0
2019-04-17 09:58:24 GMT 46.747803 -1.887589 37,000 225 383 0
2019-04-17 09:58:21 GMT 46.752182 -1.881208 37,000 225 383 0
2019-04-17 09:58:16 GMT 46.757580 -1.873375 37,000 225 383 0
2019-04-17 09:58:12 GMT 46.762482 -1.866269 37,000 225 383 0
2019-04-17 09:58:09 GMT 46.767124 -1.859573 37,000 225 383 0
2019-04-17 09:58:02 GMT 46.775921 -1.846802 37,000 225 383 0
2019-04-17 09:57:58 GMT 46.780334 -1.840411 37,025 225 383 0
2019-04-17 09:57:54 GMT 46.784866 -1.833846 37,025 225 383 0
2019-04-17 09:57:51 GMT 46.789124 -1.827683 37,000 225 384 0
2019-04-17 09:57:47 GMT 46.793427 -1.821453 37,000 225 384 0
2019-04-17 09:57:44 GMT 46.797337 -1.815834 37,000 225 384 0
2019-04-17 09:57:41 GMT 46.802132 -1.808899 37,000 225 386 0
2019-04-17 09:57:37 GMT 46.806793 -1.802093 37,000 225 388 0
2019-04-17 09:57:34 GMT 46.810696 -1.796471 37,000 225 385 0
2019-04-17 09:57:29 GMT 46.817139 -1.787087 37,000 225 386 0
2019-04-17 09:57:26 GMT 46.821945 -1.780120 37,000 225 386 0
2019-04-17 09:57:21 GMT 46.826897 -1.772987 37,000 225 386 0
2019-04-17 09:57:18 GMT 46.830433 -1.767838 37,000 225 386 0
2019-04-17 09:57:09 GMT 46.841675 -1.751448 37,000 225 387 0
2019-04-17 09:57:05 GMT 46.847260 -1.743343 37,000 225 388 0
2019-04-17 09:56:59 GMT 46.855087 -1.731887 37,000 225 388 0
2019-04-17 09:56:56 GMT 46.859016 -1.726158 37,000 225 388 0
2019-04-17 09:56:50 GMT 46.866882 -1.714691 37,000 225 388 0
2019-04-17 09:56:44 GMT 46.873730 -1.704712 37,025 225 388 0
2019-04-17 09:56:39 GMT 46.879944 -1.695671 37,000 225 388 0
2019-04-17 09:56:35 GMT 46.885178 -1.688092 37,000 225 388 0
2019-04-17 09:56:29 GMT 46.892769 -1.676964 37,000 225 388 -64
2019-04-17 09:56:25 GMT 46.898121 -1.669147 37,025 225 388 -64
2019-04-17 09:56:22 GMT 46.901779 -1.663811 37,025 225 388 -64
2019-04-17 09:56:16 GMT 46.910038 -1.651752 37,025 225 388 0
2019-04-17 09:56:13 GMT 46.912674 -1.647881 37,000 225 388 64
2019-04-17 09:56:09 GMT 46.918762 -1.638954 37,025 225 388 0
2019-04-17 09:56:03 GMT 46.925903 -1.628586 37,000 225 388 0
2019-04-17 09:55:58 GMT 46.931992 -1.619728 37,000 225 388 0
2019-04-17 09:55:54 GMT 46.937180 -1.612103 37,025 225 388 0
2019-04-17 09:55:51 GMT 46.940872 -1.606750 37,025 226 388 0
2019-04-17 09:55:48 GMT 46.945045 -1.600623 37,025 226 388 0
2019-04-17 09:55:41 GMT 46.954010 -1.587456 37,025 226 388 0
2019-04-17 09:55:38 GMT 46.957706 -1.582031 37,025 226 388 0
2019-04-17 09:55:30 GMT 46.967812 -1.567242 37,000 226 388 0
2019-04-17 09:55:27 GMT 46.971348 -1.562030 37,000 226 388 0
2019-04-17 09:55:21 GMT 46.978191 -1.552030 37,000 226 388 0
2019-04-17 09:55:18 GMT 46.982117 -1.546257 37,000 226 387 0
2019-04-17 09:55:15 GMT 46.986649 -1.539597 37,025 226 388 0
2019-04-17 09:55:09 GMT 46.994392 -1.528226 37,000 226 388 0
2019-04-17 09:55:05 GMT 46.998440 -1.522311 37,000 226 388 0
2019-04-17 09:54:59 GMT 47.007008 -1.509705 37,000 226 388 0
2019-04-17 09:54:55 GMT 47.011459 -1.503204 37,000 226 387 0
2019-04-17 09:54:48 GMT 47.020695 -1.489633 37,000 226 387 0
2019-04-17 09:54:44 GMT 47.033310 -1.471041 37,000 226 387 0
2019-04-17 09:54:38 GMT 47.033310 -1.471041 37,025 226 388 0
2019-04-17 09:54:35 GMT 47.037231 -1.465302 37,000 226 388 0
2019-04-17 09:54:31 GMT 47.042542 -1.457542 37,000 226 388 0
2019-04-17 09:54:28 GMT 47.046844 -1.451225 37,000 226 388 0
2019-04-17 09:54:25 GMT 47.050369 -1.446007 37,000 226 388 0
2019-04-17 09:54:21 GMT 47.054768 -1.439561 37,000 226 387 0
2019-04-17 09:54:17 GMT 47.060715 -1.430763 37,000 226 387 0
2019-04-17 09:54:14 GMT 47.063736 -1.426300 37,000 226 387 0
2019-04-17 09:54:11 GMT 47.066872 -1.421673 37,000 226 387 0
2019-04-17 09:54:07 GMT 47.072693 -1.413152 37,000 226 387 0
2019-04-17 09:54:04 GMT 47.076324 -1.407761 37,000 226 387 0
2019-04-17 09:54:01 GMT 47.080235 -1.401954 37,000 226 387 0
2019-04-17 09:53:57 GMT 47.084656 -1.395470 37,000 226 387 0
2019-04-17 09:53:54 GMT 47.088913 -1.389153 37,000 226 387 0
2019-04-17 09:53:50 GMT 47.093719 -1.382080 37,000 226 387 0
2019-04-17 09:53:47 GMT 47.097878 -1.375897 37,000 226 387 0
2019-04-17 09:53:43 GMT 47.102280 -1.369446 37,000 226 387 0
2019-04-17 09:53:39 GMT 47.107040 -1.362373 37,000 226 387 0
2019-04-17 09:53:36 GMT 47.112495 -1.354347 37,000 226 387 0
2019-04-17 09:53:33 GMT 47.114868 -1.350838 37,000 226 387 0
2019-04-17 09:53:26 GMT 47.124207 -1.337036 37,000 226 387 0
2019-04-17 09:53:23 GMT 47.128235 -1.331062 37,000 226 387 0
2019-04-17 09:53:19 GMT 47.132767 -1.324333 37,000 226 387 0
2019-04-17 09:53:16 GMT 47.137398 -1.317514 37,000 226 387 0
2019-04-17 09:53:12 GMT 47.141830 -1.310944 37,000 226 387 0
2019-04-17 09:53:08 GMT 47.146866 -1.303528 37,000 226 386 0
2019-04-17 09:53:04 GMT 47.151505 -1.296598 37,000 226 386 0
2019-04-17 09:53:01 GMT 47.155277 -1.291034 37,000 226 386 0
2019-04-17 09:52:57 GMT 47.160816 -1.282865 37,000 226 386 0
2019-04-17 09:52:54 GMT 47.164585 -1.277301 37,000 226 386 0
2019-04-17 09:52:50 GMT 47.169102 -1.270611 37,000 226 386 0
2019-04-17 09:52:45 GMT 47.175900 -1.260540 37,000 226 386 0
2019-04-17 09:52:42 GMT 47.179276 -1.255531 37,000 226 386 0
2019-04-17 09:52:39 GMT 47.182415 -1.250892 37,000 226 386 0
2019-04-17 09:52:33 GMT 47.191494 -1.237441 37,000 226 386 0
2019-04-17 09:52:29 GMT 47.196121 -1.230537 37,000 226 386 0
2019-04-17 09:52:22 GMT 47.205185 -1.217148 37,000 226 386 0
2019-04-17 09:52:18 GMT 47.209557 -1.210609 37,000 226 386 0
2019-04-17 09:52:14 GMT 47.214584 -1.203144 37,000 226 386 0
2019-04-17 09:52:09 GMT 47.220867 -1.193777 37,000 226 386 0
2019-04-17 09:52:05 GMT 47.226128 -1.185960 37,000 226 386 0
2019-04-17 09:52:02 GMT 47.231667 -1.177720 37,000 226 386 0
2019-04-17 09:51:59 GMT 47.233669 -1.174762 37,000 226 386 0
2019-04-17 09:51:55 GMT 47.237675 -1.168776 37,000 226 386 0
2019-04-17 09:51:52 GMT 47.241444 -1.163213 37,000 226 387 0
2019-04-17 09:51:48 GMT 47.247215 -1.154550 37,000 226 387 0
2019-04-17 09:51:44 GMT 47.252476 -1.146733 37,000 226 387 0
2019-04-17 09:51:41 GMT 47.257038 -1.139972 37,000 226 386 0
2019-04-17 09:51:38 GMT 47.259506 -1.136240 37,000 226 387 0
2019-04-17 09:51:34 GMT 47.265045 -1.128071 37,000 226 386 0
2019-04-17 09:51:30 GMT 47.269840 -1.120958 37,000 226 386 0
2019-04-17 09:51:27 GMT 47.274078 -1.114549 37,000 226 387 0
2019-04-17 09:51:20 GMT 47.283386 -1.100746 37,000 226 387 0
2019-04-17 09:51:16 GMT 47.287262 -1.094925 37,000 226 387 0
2019-04-17 09:51:12 GMT 47.292526 -1.087097 37,000 226 387 0
2019-04-17 09:51:09 GMT 47.296421 -1.081238 37,000 226 387 0
2019-04-17 09:51:06 GMT 47.299805 -1.076180 37,000 226 387 0
2019-04-17 09:51:01 GMT 47.305965 -1.067012 37,000 226 387 0
2019-04-17 09:50:58 GMT 47.309971 -1.061026 37,000 226 387 0
2019-04-17 09:50:55 GMT 47.314018 -1.055040 37,000 226 387 0
2019-04-17 09:50:51 GMT 47.318768 -1.047856 37,000 226 388 0
2019-04-17 09:50:47 GMT 47.323196 -1.041298 37,000 226 388 0
2019-04-17 09:50:44 GMT 47.327564 -1.034757 37,000 226 388 0
2019-04-17 09:50:38 GMT 47.335236 -1.023239 37,000 226 388 0
2019-04-17 09:50:35 GMT 47.338879 -1.017785 37,025 226 388 0
2019-04-17 09:50:28 GMT 47.347675 -1.004615 37,025 226 388 0
2019-04-17 09:50:25 GMT 47.353088 -0.996529 37,000 226 388 0
2019-04-17 09:50:17 GMT 47.361145 -0.984444 37,000 226 388 0
2019-04-17 09:50:14 GMT 47.365631 -0.977646 37,000 226 388 0
2019-04-17 09:50:07 GMT 47.373962 -0.965149 37,000 226 389 0
2019-04-17 09:50:03 GMT 47.379101 -0.957430 37,000 226 389 0
2019-04-17 09:49:56 GMT 47.387787 -0.944412 37,000 226 389 0
2019-04-17 09:49:51 GMT 47.394104 -0.934937 37,000 226 389 0
2019-04-17 09:49:47 GMT 47.399414 -0.926971 37,000 226 389 0
2019-04-17 09:49:43 GMT 47.404724 -0.919075 37,000 226 389 0
2019-04-17 09:49:35 GMT 47.415455 -0.902921 37,000 226 390 0
2019-04-17 09:49:31 GMT 47.419506 -0.896865 37,000 226 390 0
2019-04-17 09:49:28 GMT 47.424408 -0.889481 37,000 226 390 0
2019-04-17 09:49:24 GMT 47.428207 -0.883781 37,000 226 390 0
2019-04-17 09:49:21 GMT 47.432739 -0.876984 37,000 226 391 0
2019-04-17 09:49:16 GMT 47.438454 -0.868483 37,000 226 391 0
2019-04-17 09:49:13 GMT 47.441479 -0.863906 37,000 226 391 0
2019-04-17 09:49:10 GMT 47.446381 -0.856522 37,000 226 391 0
2019-04-17 09:49:04 GMT 47.453583 -0.845666 37,000 226 391 0
2019-04-17 09:49:01 GMT 47.457504 -0.839767 37,000 226 390 0
2019-04-17 09:48:57 GMT 47.462662 -0.832003 37,000 226 390 0
2019-04-17 09:48:54 GMT 47.465836 -0.827202 37,000 226 391 0
2019-04-17 09:48:51 GMT 47.470482 -0.820172 37,000 226 391 0
2019-04-17 09:48:47 GMT 47.475677 -0.812370 37,000 226 391 0
2019-04-17 09:48:44 GMT 47.478069 -0.808763 37,000 226 391 0
2019-04-17 09:48:41 GMT 47.483734 -0.800148 37,000 226 391 0
2019-04-17 09:48:37 GMT 47.486916 -0.795382 37,025 226 391 0
2019-04-17 09:48:34 GMT 47.492569 -0.786827 37,000 226 391 0
2019-04-17 09:48:30 GMT 47.496872 -0.780304 37,000 226 391 0
2019-04-17 09:48:27 GMT 47.500168 -0.775360 37,000 226 394 0
2019-04-17 09:48:24 GMT 47.504425 -0.768837 37,000 226 392 0
2019-04-17 09:48:20 GMT 47.509506 -0.761215 37,000 226 392 0
2019-04-17 09:48:16 GMT 47.518242 -0.747986 37,000 226 392 0
2019-04-17 09:48:10 GMT 47.523422 -0.740135 37,000 226 392 0
2019-04-17 09:48:06 GMT 47.527496 -0.734024 37,000 226 392 0
2019-04-17 09:48:01 GMT 47.533188 -0.725379 37,000 226 392 0
2019-04-17 09:47:58 GMT 47.536213 -0.720802 37,000 226 392 0
2019-04-17 09:47:55 GMT 47.541008 -0.713478 37,025 226 392 0
2019-04-17 09:47:52 GMT 47.544205 -0.708687 37,000 226 393 0
2019-04-17 09:47:47 GMT 47.551155 -0.698125 37,000 226 392 0
2019-04-17 09:47:43 GMT 47.556107 -0.690628 37,000 226 393 0
2019-04-17 09:47:39 GMT 47.561302 -0.682772 37,000 226 393 0
2019-04-17 09:47:35 GMT 47.566097 -0.675448 37,000 226 393 0
2019-04-17 09:47:32 GMT 47.569916 -0.669743 37,000 226 393 0
2019-04-17 09:47:27 GMT 47.575504 -0.661222 37,000 226 393 0
2019-04-17 09:47:23 GMT 47.582199 -0.651077 37,000 226 393 0
2019-04-17 09:47:20 GMT 47.584862 -0.646996 37,000 226 393 0
2019-04-17 09:47:16 GMT 47.589420 -0.640094 37,000 226 393 0
2019-04-17 09:47:13 GMT 47.598080 -0.626995 37,000 226 393 0
2019-04-17 09:47:10 GMT 47.598080 -0.626995 37,025 226 393 0
2019-04-17 09:47:06 GMT 47.603153 -0.619319 37,000 226 393 0
2019-04-17 09:47:02 GMT 47.608337 -0.611389 37,000 226 393 0
2019-04-17 09:46:57 GMT 47.613815 -0.603121 37,000 226 393 0
2019-04-17 09:46:54 GMT 47.618378 -0.596149 37,000 226 394 0
2019-04-17 09:46:51 GMT 47.621170 -0.591924 37,000 226 394 0
2019-04-17 09:46:47 GMT 47.626987 -0.583050 37,000 226 394 0
2019-04-17 09:46:42 GMT 47.633087 -0.573754 37,000 226 394 0
2019-04-17 09:46:36 GMT 47.641068 -0.561539 37,000 226 394 0
2019-04-17 09:46:32 GMT 47.646881 -0.552681 37,000 226 394 0
2019-04-17 09:46:29 GMT 47.650078 -0.547837 37,000 226 394 0
2019-04-17 09:46:26 GMT 47.653748 -0.542244 37,000 226 394 0
2019-04-17 09:46:21 GMT 47.660740 -0.531569 37,000 226 394 0
2019-04-17 09:46:15 GMT 47.667351 -0.521498 37,000 226 394 0
2019-04-17 09:46:10 GMT 47.674301 -0.510864 37,000 226 394 0
2019-04-17 09:46:06 GMT 47.678524 -0.504456 37,000 226 394 0
2019-04-17 09:46:02 GMT 47.684853 -0.494807 37,000 226 394 0
2019-04-17 09:45:58 GMT 47.688671 -0.488962 37,000 226 394 0
2019-04-17 09:45:55 GMT 47.693233 -0.481990 37,000 226 394 0
2019-04-17 09:45:52 GMT 47.697189 -0.475983 37,000 226 395 0
2019-04-17 09:45:49 GMT 47.700867 -0.470370 37,000 226 395 0
2019-04-17 09:45:45 GMT 47.706223 -0.462200 37,000 226 395 0
2019-04-17 09:45:41 GMT 47.710781 -0.455228 37,000 226 395 0
2019-04-17 09:45:38 GMT 47.713856 -0.450510 37,000 226 395 0
2019-04-17 09:45:32 GMT 47.722469 -0.437340 37,000 226 395 0
2019-04-17 09:45:28 GMT 47.727310 -0.429946 37,000 226 395 0
2019-04-17 09:45:23 GMT 47.733810 -0.420021 37,000 226 395 0
2019-04-17 09:45:20 GMT 47.738892 -0.412193 37,000 226 396 0
2019-04-17 09:45:17 GMT 47.740906 -0.409103 37,000 226 395 0
2019-04-17 09:45:13 GMT 47.745884 -0.401494 37,000 227 396 0
2019-04-17 09:45:10 GMT 47.750168 -0.394874 37,000 227 396 0
2019-04-17 09:45:06 GMT 47.754776 -0.387831 37,000 227 396 0
2019-04-17 09:45:03 GMT 47.759338 -0.380859 37,000 226 396 0
2019-04-17 09:44:57 GMT 47.767593 -0.368179 37,000 226 396 0
2019-04-17 09:44:53 GMT 47.772045 -0.361352 37,000 226 396 0
2019-04-17 09:44:50 GMT 47.775909 -0.355506 37,000 226 396 0
2019-04-17 09:44:46 GMT 47.780750 -0.348041 37,000 226 396 0
2019-04-17 09:44:43 GMT 47.784668 -0.342018 37,000 226 396 0
2019-04-17 09:44:38 GMT 47.792313 -0.330276 37,025 226 396 0
2019-04-17 09:44:34 GMT 47.795380 -0.325607 37,025 226 396 0
2019-04-17 09:44:30 GMT 47.800964 -0.317024 37,000 226 396 0
2019-04-17 09:44:27 GMT 47.804810 -0.311119 37,000 227 397 0
2019-04-17 09:44:21 GMT 47.820229 -0.287405 37,000 227 397 0
2019-04-17 09:44:15 GMT 47.820229 -0.287405 37,000 227 397 0
2019-04-17 09:44:11 GMT 47.824677 -0.280563 37,000 227 397 0
2019-04-17 09:44:08 GMT 47.828522 -0.274658 37,025 227 397 0
2019-04-17 09:44:05 GMT 47.833328 -0.267174 37,025 227 397 0
2019-04-17 09:44:02 GMT 47.836800 -0.261911 37,000 227 397 0
2019-04-17 09:43:58 GMT 47.841129 -0.255221 37,000 227 400 0
2019-04-17 09:43:54 GMT 47.846878 -0.246368 37,000 227 398 0
2019-04-17 09:43:51 GMT 47.851181 -0.239708 37,000 227 398 0
2019-04-17 09:43:46 GMT 47.857315 -0.230232 37,000 227 398 0
2019-04-17 09:43:42 GMT 47.864227 -0.219589 37,000 227 398 0
2019-04-17 09:43:38 GMT 47.867294 -0.214851 37,000 227 398 0
2019-04-17 09:43:33 GMT 47.874043 -0.204444 37,000 227 398 0
2019-04-17 09:43:28 GMT 47.880295 -0.194733 37,000 227 398 0
2019-04-17 09:43:25 GMT 47.884235 -0.188599 37,000 227 399 0
2019-04-17 09:43:22 GMT 47.887939 -0.182854 37,000 227 399 0
2019-04-17 09:43:18 GMT 47.892563 -0.175781 37,000 227 399 0
2019-04-17 09:43:15 GMT 47.900986 -0.162735 37,000 227 399 0
2019-04-17 09:43:08 GMT 47.905975 -0.155006 37,000 227 399 0
2019-04-17 09:43:04 GMT 47.910461 -0.148109 37,000 227 399 0
2019-04-17 09:43:01 GMT 47.914307 -0.142136 37,000 227 399 0
2019-04-17 09:42:58 GMT 47.918777 -0.135216 37,025 227 399 0
2019-04-17 09:42:53 GMT 47.925156 -0.125357 37,000 227 399 0
2019-04-17 09:42:49 GMT 47.929764 -0.118173 37,025 227 400 0
2019-04-17 09:42:46 GMT 47.938065 -0.105331 37,000 227 400 0
2019-04-17 09:42:43 GMT 47.938065 -0.105331 37,000 227 400 0
2019-04-17 09:42:40 GMT 47.941498 -0.099933 37,000 227 400 0
2019-04-17 09:42:37 GMT 47.946259 -0.092628 37,000 227 400 0
2019-04-17 09:42:34 GMT 47.948944 -0.088454 37,025 227 400 0
2019-04-17 09:42:31 GMT 47.953125 -0.081848 37,025 227 400 0
2019-04-17 09:42:27 GMT 47.961189 -0.069369 37,000 227 400 0
2019-04-17 09:42:24 GMT 47.961189 -0.069369 37,025 227 399 0
2019-04-17 09:42:21 GMT 47.966030 -0.061833 37,000 227 399 0
2019-04-17 09:42:18 GMT 47.970917 -0.054227 37,000 227 400 0
2019-04-17 09:42:12 GMT 47.977295 -0.044297 37,000 227 401 0
2019-04-17 09:42:08 GMT 47.987686 -0.028221 37,000 227 401 0
2019-04-17 09:42:04 GMT 47.987686 -0.028221 37,000 227 401 0
2019-04-17 09:42:00 GMT 47.992813 -0.020256 37,000 227 401 0
2019-04-17 09:41:57 GMT 47.996799 -0.014085 37,000 227 401 0
2019-04-17 09:41:53 GMT 48.001785 -0.006386 37,000 227 401 0
2019-04-17 09:41:50 GMT 48.005905 0.000000 37,000 227 401 0
2019-04-17 09:41:47 GMT 48.009136 0.004930 37,000 227 401 0
2019-04-17 09:41:43 GMT 48.015656 0.015106 37,000 227 401 0
2019-04-17 09:41:40 GMT 48.020004 0.021904 37,000 227 401 0
2019-04-17 09:41:36 GMT 48.022964 0.026480 37,000 227 401 0
2019-04-17 09:41:32 GMT 48.028362 0.034860 37,000 227 401 0
2019-04-17 09:41:29 GMT 48.032593 0.041405 37,000 227 401 0
2019-04-17 09:41:26 GMT 48.036324 0.047185 37,000 227 401 0
2019-04-17 09:41:23 GMT 48.041290 0.054932 37,000 227 401 0
2019-04-17 09:41:19 GMT 48.045639 0.061729 37,000 227 401 0
2019-04-17 09:41:15 GMT 48.050659 0.069510 37,000 227 401 0
2019-04-17 09:41:11 GMT 48.056293 0.078313 37,000 227 401 0
2019-04-17 09:41:08 GMT 48.058853 0.082327 37,000 227 401 0
2019-04-17 09:41:05 GMT 48.062439 0.087891 37,000 227 401 0
2019-04-17 09:41:02 GMT 48.068584 0.097468 37,000 227 401 0
2019-04-17 09:40:57 GMT 48.073792 0.105675 37,000 227 400 0
2019-04-17 09:40:54 GMT 48.076733 0.110286 37,000 227 400 0
2019-04-17 09:40:51 GMT 48.081711 0.118103 37,000 227 401 0
2019-04-17 09:40:48 GMT 48.085670 0.124300 37,025 227 401 0
2019-04-17 09:40:43 GMT 48.091534 0.133526 37,000 227 400 0
2019-04-17 09:40:39 GMT 48.096268 0.140968 37,000 227 400 0
2019-04-17 09:40:35 GMT 48.101852 0.149757 37,000 227 401 0
2019-04-17 09:40:31 GMT 48.106476 0.156967 37,000 227 401 0
2019-04-17 09:40:26 GMT 48.114532 0.169584 37,000 227 401 0
2019-04-17 09:40:23 GMT 48.118240 0.175369 37,000 227 401 0
2019-04-17 09:40:19 GMT 48.123192 0.183176 37,000 227 401 0
2019-04-17 09:40:15 GMT 48.126892 0.188965 37,000 227 401 0
2019-04-17 09:40:12 GMT 48.131241 0.195831 37,000 227 400 0
2019-04-17 09:40:09 GMT 48.138786 0.207613 37,000 227 400 0
2019-04-17 09:40:06 GMT 48.138786 0.207613 37,000 227 401 0
2019-04-17 09:40:03 GMT 48.141857 0.212402 37,000 227 401 0
2019-04-17 09:40:00 GMT 48.145676 0.218459 37,000 227 401 0
2019-04-17 09:39:57 GMT 48.150284 0.225642 37,000 227 400 0
2019-04-17 09:39:54 GMT 48.153820 0.231276 37,000 227 400 0
2019-04-17 09:39:50 GMT 48.158569 0.238678 37,000 227 400 0
2019-04-17 09:39:47 GMT 48.164574 0.248060 37,000 227 400 0
2019-04-17 09:39:43 GMT 48.168274 0.253883 37,000 227 400 0
2019-04-17 09:39:40 GMT 48.171844 0.259446 37,025 227 397 0
2019-04-17 09:39:37 GMT 48.175514 0.265262 37,000 227 400 0
2019-04-17 09:39:33 GMT 48.180725 0.273531 37,000 227 400 0
2019-04-17 09:39:28 GMT 48.187134 0.283532 37,000 227 400 0
2019-04-17 09:39:25 GMT 48.191296 0.290126 37,000 227 399 0
2019-04-17 09:39:22 GMT 48.194649 0.295330 37,025 227 400 0
2019-04-17 09:39:17 GMT 48.202282 0.307328 37,000 227 400 0
2019-04-17 09:39:14 GMT 48.204941 0.311561 37,000 227 399 0
2019-04-17 09:39:09 GMT 48.211407 0.321711 37,000 227 399 0
2019-04-17 09:39:06 GMT 48.215378 0.327970 37,000 227 399 0
2019-04-17 09:39:03 GMT 48.217896 0.331914 37,000 227 399 0
2019-04-17 09:39:00 GMT 48.222626 0.339347 37,000 227 398 0
2019-04-17 09:38:57 GMT 48.226395 0.345347 37,000 227 399 0
2019-04-17 09:38:54 GMT 48.230347 0.351562 37,000 227 398 0
2019-04-17 09:38:49 GMT 48.236710 0.361563 37,000 227 398 0
2019-04-17 09:38:46 GMT 48.241665 0.369343 37,000 227 398 0
2019-04-17 09:38:43 GMT 48.244179 0.373391 37,025 227 397 0
2019-04-17 09:38:39 GMT 48.248657 0.380366 37,000 227 398 0
2019-04-17 09:38:36 GMT 48.253189 0.387550 37,000 227 398 0
2019-04-17 09:38:33 GMT 48.258144 0.395363 37,000 227 398 0
2019-04-17 09:38:28 GMT 48.263218 0.403386 37,000 227 398 0
2019-04-17 09:38:23 GMT 48.268661 0.411987 37,000 227 398 0
2019-04-17 09:38:18 GMT 48.276260 0.424030 37,000 227 397 0
2019-04-17 09:38:14 GMT 48.281189 0.431792 37,000 227 398 0
2019-04-17 09:38:10 GMT 48.286263 0.439815 37,000 227 398 0
2019-04-17 09:38:06 GMT 48.291290 0.447837 37,000 227 398 0
2019-04-17 09:38:03 GMT 48.293976 0.452059 37,000 227 398 0
2019-04-17 09:38:00 GMT 48.302032 0.464877 37,025 227 397 0
2019-04-17 09:37:57 GMT 48.307343 0.473257 37,025 227 397 0
2019-04-17 09:37:53 GMT 48.307343 0.473257 37,025 227 397 0
2019-04-17 09:37:47 GMT 48.319824 0.493084 37,000 227 397 0
2019-04-17 09:37:44 GMT 48.319824 0.493084 37,000 227 397 0
2019-04-17 09:37:40 GMT 48.324966 0.501286 37,000 227 397 0
2019-04-17 09:37:36 GMT 48.328491 0.506850 37,000 227 397 0
2019-04-17 09:37:33 GMT 48.332626 0.513466 37,000 227 397 0
2019-04-17 09:37:28 GMT 48.338058 0.522062 37,000 227 397 0
2019-04-17 09:37:24 GMT 48.344498 0.532259 37,000 227 396 0
2019-04-17 09:37:21 GMT 48.348129 0.538048 37,000 227 396 0
2019-04-17 09:37:16 GMT 48.354321 0.547871 37,000 227 396 0
2019-04-17 09:37:11 GMT 48.360329 0.557412 37,000 227 396 0
2019-04-17 09:37:08 GMT 48.364014 0.563190 37,000 227 396 0
2019-04-17 09:37:05 GMT 48.367767 0.569247 37,000 227 396 0
2019-04-17 09:37:01 GMT 48.373077 0.577627 37,000 227 396 0
2019-04-17 09:36:57 GMT 48.377609 0.584811 37,000 227 396 0
2019-04-17 09:36:54 GMT 48.381638 0.591149 37,000 227 396 0
2019-04-17 09:36:50 GMT 48.386673 0.599177 37,000 227 396 0
2019-04-17 09:36:45 GMT 48.392944 0.609178 37,000 227 396 0
2019-04-17 09:36:42 GMT 48.397705 0.616784 37,000 227 396 0
2019-04-17 09:36:37 GMT 48.403389 0.625787 37,025 227 396 0
2019-04-17 09:36:34 GMT 48.405991 0.630024 37,025 227 396 0
2019-04-17 09:36:31 GMT 48.410648 0.637424 37,025 227 396 0
2019-04-17 09:36:28 GMT 48.414001 0.642841 37,000 227 396 0
2019-04-17 09:36:24 GMT 48.423683 0.658240 37,025 227 396 0
2019-04-17 09:36:20 GMT 48.423683 0.658240 37,000 227 396 0
2019-04-17 09:36:13 GMT 48.434326 0.675307 37,000 227 396 0
2019-04-17 09:36:10 GMT 48.436718 0.679129 37,000 227 396 0
2019-04-17 09:36:07 GMT 48.444725 0.691922 37,000 227 396 0
2019-04-17 09:36:04 GMT 48.444725 0.691922 37,000 227 396 0
2019-04-17 09:36:01 GMT 48.448654 0.698195 37,000 227 396 0
2019-04-17 09:35:58 GMT 48.452267 0.703992 37,000 227 396 0
2019-04-17 09:35:53 GMT 48.462433 0.720238 37,000 227 396 0
2019-04-17 09:35:50 GMT 48.462433 0.720238 37,000 227 396 0
2019-04-17 09:35:46 GMT 48.466461 0.726647 37,000 227 396 0
2019-04-17 09:35:42 GMT 48.471725 0.735098 37,000 227 398 0
2019-04-17 09:35:39 GMT 48.475868 0.741722 37,000 227 396 0
2019-04-17 09:35:36 GMT 48.479130 0.746998 37,000 227 396 0
2019-04-17 09:35:33 GMT 48.484386 0.755382 37,000 227 398 0
2019-04-17 09:35:29 GMT 48.489304 0.763268 37,000 227 396 0
2019-04-17 09:35:25 GMT 48.493790 0.770451 37,000 227 396 0
2019-04-17 09:35:22 GMT 48.497471 0.776343 37,000 227 396 0
2019-04-17 09:35:17 GMT 48.504967 0.788341 37,000 227 396 0
2019-04-17 09:35:14 GMT 48.506882 0.791368 37,000 227 396 0
2019-04-17 09:35:11 GMT 48.511017 0.798027 37,000 227 397 0
2019-04-17 09:35:07 GMT 48.516788 0.807278 37,000 227 397 0
2019-04-17 09:35:03 GMT 48.520790 0.813711 37,000 227 397 0
2019-04-17 09:35:00 GMT 48.524689 0.819960 37,000 227 397 0
2019-04-17 09:34:57 GMT 48.528336 0.825782 37,000 227 397 0
2019-04-17 09:34:54 GMT 48.532616 0.832648 37,000 227 397 0
2019-04-17 09:34:50 GMT 48.536854 0.839514 37,000 227 397 0
2019-04-17 09:34:47 GMT 48.540623 0.845514 37,000 227 397 0
2019-04-17 09:34:44 GMT 48.546524 0.855032 37,000 227 397 0
2019-04-17 09:34:39 GMT 48.550678 0.861704 37,000 227 397 0
2019-04-17 09:34:36 GMT 48.555817 0.869962 37,000 227 397 0
2019-04-17 09:34:33 GMT 48.558964 0.875003 37,000 227 397 0
2019-04-17 09:34:26 GMT 48.567020 0.887941 37,000 227 397 0
2019-04-17 09:34:22 GMT 48.573441 0.898203 37,025 227 397 0
2019-04-17 09:34:17 GMT 48.578564 0.906517 37,000 227 397 0
2019-04-17 09:34:14 GMT 48.582848 0.913383 37,000 228 399 0
2019-04-17 09:34:10 GMT 48.588501 0.922499 37,000 227 398 0
2019-04-17 09:34:07 GMT 48.590900 0.926321 37,000 227 398 0
2019-04-17 09:34:04 GMT 48.596672 0.935645 37,000 227 398 0
2019-04-17 09:34:01 GMT 48.598442 0.938464 37,000 227 398 0
2019-04-17 09:33:58 GMT 48.603703 0.946993 37,000 227 398 0
2019-04-17 09:33:55 GMT 48.606583 0.951655 37,000 227 399 0
2019-04-17 09:33:52 GMT 48.614269 0.964050 37,000 228 399 0
2019-04-17 09:33:49 GMT 48.614269 0.964050 37,000 228 399 0
2019-04-17 09:33:45 GMT 48.618320 0.970555 37,000 228 399 0
2019-04-17 09:33:42 GMT 48.623581 0.979084 37,000 227 398 0
2019-04-17 09:33:39 GMT 48.625992 0.982924 37,000 228 399 0
2019-04-17 09:33:35 GMT 48.631401 0.991661 37,000 228 399 0
2019-04-17 09:33:29 GMT 48.639542 1.004897 37,025 227 398 0
2019-04-17 09:33:25 GMT 48.644577 1.013066 37,000 228 399 0
2019-04-17 09:33:22 GMT 48.647324 1.017503 37,000 227 398 0
2019-04-17 09:33:19 GMT 48.651627 1.024475 37,000 228 399 0
2019-04-17 09:33:14 GMT 48.657749 1.034450 37,025 228 398 64
2019-04-17 09:33:10 GMT 48.662498 1.042183 37,000 228 398 0
2019-04-17 09:33:07 GMT 48.666267 1.048327 37,025 228 398 0
2019-04-17 09:33:04 GMT 48.670898 1.055814 37,000 228 398 0
2019-04-17 09:33:00 GMT 48.674927 1.062364 37,000 228 398 0
2019-04-17 09:32:56 GMT 48.683773 1.076805 37,000 228 401 0
2019-04-17 09:32:53 GMT 48.683773 1.076805 37,000 228 398 0
2019-04-17 09:32:49 GMT 48.688660 1.084689 37,000 227 398 0
2019-04-17 09:32:46 GMT 48.693466 1.092435 37,000 227 398 0
2019-04-17 09:32:42 GMT 48.698063 1.099934 37,000 228 399 0
2019-04-17 09:32:38 GMT 48.702484 1.107084 37,000 228 399 0
2019-04-17 09:32:35 GMT 48.706238 1.113140 37,000 228 399 0
2019-04-17 09:32:32 GMT 48.714638 1.126821 37,000 228 399 0
2019-04-17 09:32:29 GMT 48.714638 1.126821 37,000 228 399 0
2019-04-17 09:32:25 GMT 48.719788 1.135183 37,000 228 399 0
2019-04-17 09:32:22 GMT 48.724411 1.142723 37,025 228 399 0
2019-04-17 09:32:19 GMT 48.726925 1.146770 37,000 228 399 0
2019-04-17 09:32:15 GMT 48.732605 1.155959 37,000 228 399 0
2019-04-17 09:32:12 GMT 48.734978 1.159853 37,000 228 399 0
2019-04-17 09:32:08 GMT 48.740112 1.168213 37,000 228 399 0
2019-04-17 09:32:04 GMT 48.746384 1.178425 37,025 228 399 0
2019-04-17 09:31:58 GMT 48.754166 1.191171 37,025 228 400 0
2019-04-17 09:31:53 GMT 48.759792 1.200401 37,025 228 399 0
2019-04-17 09:31:50 GMT 48.764969 1.208778 37,025 228 400 0
2019-04-17 09:31:47 GMT 48.767380 1.212688 37,025 228 401 0
2019-04-17 09:31:44 GMT 48.770508 1.217792 37,000 228 401 0
2019-04-17 09:31:41 GMT 48.775040 1.225187 37,000 228 401 0
2019-04-17 09:31:38 GMT 48.778690 1.231119 37,000 228 400 64
2019-04-17 09:31:35 GMT 48.783325 1.238708 37,000 228 401 0
2019-04-17 09:31:31 GMT 48.788513 1.247093 37,000 228 401 0
2019-04-17 09:31:27 GMT 48.793167 1.254765 37,000 228 401 0
2019-04-17 09:31:23 GMT 48.797195 1.261385 37,000 228 401 0
2019-04-17 09:31:19 GMT 48.806305 1.276245 37,000 228 402 0
2019-04-17 09:31:16 GMT 48.806305 1.276245 37,000 228 407 0
2019-04-17 09:31:13 GMT 48.811615 1.285119 37,000 228 402 0
2019-04-17 09:31:10 GMT 48.817703 1.294767 37,000 228 403 0
2019-04-17 09:31:07 GMT 48.817703 1.294767 37,000 228 403 0
2019-04-17 09:31:04 GMT 48.821613 1.301446 37,000 228 403 0
2019-04-17 09:30:59 GMT 48.829330 1.313711 37,000 228 403 0
2019-04-17 09:30:56 GMT 48.832123 1.318571 37,000 228 404 0
2019-04-17 09:30:53 GMT 48.834507 1.322335 37,000 228 404 0
2019-04-17 09:30:50 GMT 48.838837 1.329346 37,000 228 404 0
2019-04-17 09:30:47 GMT 48.847729 1.343874 37,000 228 404 0
2019-04-17 09:30:44 GMT 48.847729 1.343874 37,000 228 404 0
2019-04-17 09:30:40 GMT 48.852058 1.350957 37,000 228 405 0
2019-04-17 09:30:36 GMT 48.856750 1.358572 37,000 228 405 0
2019-04-17 09:30:32 GMT 48.861557 1.366460 37,000 228 406 0
2019-04-17 09:30:28 GMT 48.871765 1.383151 37,025 228 406 0
2019-04-17 09:30:25 GMT 48.871765 1.383151 37,025 228 406 0
2019-04-17 09:30:19 GMT 48.878311 1.393890 37,000 228 406 0
2019-04-17 09:30:15 GMT 48.883621 1.402588 37,025 228 406 0
2019-04-17 09:30:12 GMT 48.887157 1.408418 37,025 228 406 0
2019-04-17 09:30:07 GMT 48.893768 1.419477 37,025 228 406 0
2019-04-17 09:30:02 GMT 48.899506 1.428716 37,000 228 406 0
2019-04-17 09:29:57 GMT 48.905914 1.439139 37,000 228 406 0
2019-04-17 09:29:53 GMT 48.917816 1.458858 37,000 228 406 0
2019-04-17 09:29:47 GMT 48.918953 1.460676 37,000 228 406 0
2019-04-17 09:29:42 GMT 48.926010 1.472309 37,000 228 408 0
2019-04-17 09:29:36 GMT 48.933384 1.484311 37,000 228 408 0
2019-04-17 09:29:33 GMT 48.938049 1.492098 37,000 228 412 0
2019-04-17 09:29:30 GMT 48.942368 1.499200 37,000 228 408 0
2019-04-17 09:29:25 GMT 48.947250 1.507240 37,000 228 409 0
2019-04-17 09:29:21 GMT 48.952560 1.516043 37,000 228 409 0
2019-04-17 09:29:18 GMT 48.956131 1.521818 37,000 228 409 0
2019-04-17 09:29:15 GMT 48.960617 1.529212 37,000 228 412 0
2019-04-17 09:29:11 GMT 48.967274 1.540182 37,000 228 409 0
2019-04-17 09:29:07 GMT 48.970486 1.545603 37,000 228 414 0
2019-04-17 09:29:04 GMT 48.973747 1.550952 37,000 228 410 0
2019-04-17 09:29:01 GMT 48.978195 1.558368 37,000 228 410 0
2019-04-17 09:28:58 GMT 48.982822 1.566130 37,000 228 410 0
2019-04-17 09:28:54 GMT 48.987106 1.573286 37,000 228 414 0
2019-04-17 09:28:51 GMT 48.991287 1.580059 37,000 228 414 0
2019-04-17 09:28:48 GMT 48.994217 1.584989 37,000 228 411 0
2019-04-17 09:28:44 GMT 49.000420 1.595258 37,000 228 411 0
2019-04-17 09:28:41 GMT 49.003784 1.600835 37,025 228 412 0
2019-04-17 09:28:38 GMT 49.007729 1.607401 37,025 228 412 0
2019-04-17 09:28:35 GMT 49.011127 1.612966 37,025 228 412 0
2019-04-17 09:28:32 GMT 49.016762 1.622363 37,000 228 413 0
2019-04-17 09:28:28 GMT 49.021225 1.629709 37,000 228 413 0
2019-04-17 09:28:25 GMT 49.025513 1.636818 37,000 228 413 0
2019-04-17 09:28:21 GMT 49.030121 1.644335 37,000 228 414 0
2019-04-17 09:28:15 GMT 49.036636 1.655249 37,000 228 414 0
2019-04-17 09:28:12 GMT 49.044456 1.668259 37,000 228 414 0
2019-04-17 09:28:06 GMT 49.049652 1.676894 37,000 228 414 0
2019-04-17 09:28:03 GMT 49.053581 1.683438 37,000 228 414 0
2019-04-17 09:28:00 GMT 49.056049 1.687558 37,000 228 414 0
2019-04-17 09:27:57 GMT 49.062195 1.697810 37,000 228 415 0
2019-04-17 09:27:53 GMT 49.065174 1.702953 37,000 228 415 0
2019-04-17 09:27:50 GMT 49.069611 1.710135 37,000 228 415 0
2019-04-17 09:27:46 GMT 49.075371 1.719794 37,000 228 415 0
2019-04-17 09:27:43 GMT 49.079178 1.726192 37,000 228 416 0
2019-04-17 09:27:40 GMT 49.082211 1.731214 37,000 228 416 0
2019-04-17 09:27:37 GMT 49.087006 1.739237 37,000 228 417 0
2019-04-17 09:27:34 GMT 49.092175 1.747766 37,000 228 416 0
2019-04-17 09:27:30 GMT 49.101067 1.762583 37,000 228 417 0
2019-04-17 09:27:26 GMT 49.101067 1.762583 37,000 228 417 0
2019-04-17 09:27:23 GMT 49.105865 1.770630 37,000 228 417 0
2019-04-17 09:27:18 GMT 49.110855 1.778870 37,000 228 417 0
2019-04-17 09:27:15 GMT 49.114334 1.784700 37,000 228 419 0
2019-04-17 09:27:12 GMT 49.122116 1.797673 37,000 228 418 0
2019-04-17 09:27:09 GMT 49.122116 1.797673 37,000 228 418 0
2019-04-17 09:27:02 GMT 49.132416 1.814857 37,000 228 418 0
2019-04-17 09:26:59 GMT 49.136257 1.821201 37,000 228 419 0
2019-04-17 09:26:56 GMT 49.141388 1.830069 37,000 228 419 0
2019-04-17 09:26:52 GMT 49.145245 1.836307 37,000 228 419 0
2019-04-17 09:26:49 GMT 49.149246 1.842957 37,000 228 419 0
2019-04-17 09:26:46 GMT 49.152412 1.848161 37,000 228 420 0
2019-04-17 09:26:42 GMT 49.158783 1.858802 37,000 228 420 0
2019-04-17 09:26:39 GMT 49.161816 1.863845 37,000 228 420 0
2019-04-17 09:26:36 GMT 49.166332 1.871434 37,000 228 420 0
2019-04-17 09:26:33 GMT 49.176712 1.888709 37,000 228 420 0
2019-04-17 09:26:28 GMT 49.176712 1.888709 37,000 228 420 0
2019-04-17 09:26:24 GMT 49.181789 1.897093 37,000 228 420 0
2019-04-17 09:26:19 GMT 49.188629 1.908593 37,000 228 421 0
2019-04-17 09:26:13 GMT 49.195724 1.920424 37,000 228 421 0
2019-04-17 09:26:08 GMT 49.204376 1.934861 37,000 228 421 0
2019-04-17 09:26:03 GMT 49.209625 1.943568 37,000 228 421 0
2019-04-17 09:25:58 GMT 49.215088 1.952820 37,000 228 421 0
2019-04-17 09:25:55 GMT 49.219620 1.960426 37,000 228 422 0
2019-04-17 09:25:52 GMT 49.224197 1.968143 37,000 228 422 0
2019-04-17 09:25:47 GMT 49.229553 1.977117 37,000 228 422 0
2019-04-17 09:25:43 GMT 49.236301 1.988453 37,000 228 422 0
2019-04-17 09:25:38 GMT 49.242073 1.998138 37,000 228 422 0
2019-04-17 09:25:35 GMT 49.246868 2.006161 37,000 228 422 0
2019-04-17 09:25:32 GMT 49.249756 2.011221 37,000 228 424 0
2019-04-17 09:25:28 GMT 49.256744 2.022682 37,000 228 424 0
2019-04-17 09:25:25 GMT 49.258392 2.025780 37,000 228 423 0
2019-04-17 09:25:22 GMT 49.262276 2.032182 37,000 228 423 0
2019-04-17 09:25:19 GMT 49.266232 2.038831 37,000 228 424 0
2019-04-17 09:25:16 GMT 49.270798 2.046626 37,000 228 424 0
2019-04-17 09:25:13 GMT 49.278946 2.060359 37,000 228 424 0
2019-04-17 09:25:10 GMT 49.278946 2.060359 37,000 228 424 0
2019-04-17 09:25:07 GMT 49.282608 2.066627 37,000 228 424 0
2019-04-17 09:25:04 GMT 49.287834 2.075693 37,000 228 424 0
2019-04-17 09:25:01 GMT 49.296677 2.090366 37,000 228 424 0
2019-04-17 09:24:57 GMT 49.296677 2.090366 37,000 228 424 0
2019-04-17 09:24:53 GMT 49.301937 2.099256 37,025 228 424 0
2019-04-17 09:24:50 GMT 49.305801 2.105978 37,025 228 424 0
2019-04-17 09:24:44 GMT 49.313141 2.118178 37,000 228 424 0
2019-04-17 09:24:40 GMT 49.318558 2.127228 37,025 228 424 0
2019-04-17 09:24:37 GMT 49.326370 2.140362 37,025 228 424 0
2019-04-17 09:24:34 GMT 49.326370 2.140362 37,025 228 424 0
2019-04-17 09:24:30 GMT 49.336670 2.157687 37,000 228 425 0
2019-04-17 09:24:26 GMT 49.336670 2.157687 37,025 228 425 0
2019-04-17 09:24:23 GMT 49.340485 2.164162 37,025 228 425 0
2019-04-17 09:24:20 GMT 49.345642 2.172828 37,025 228 425 0
2019-04-17 09:24:17 GMT 49.348396 2.177461 37,025 228 425 0
2019-04-17 09:24:10 GMT 49.357498 2.192899 37,025 228 425 0
2019-04-17 09:24:06 GMT 49.366425 2.208041 37,000 228 425 0
2019-04-17 09:24:02 GMT 49.368927 2.212300 37,000 228 425 0
2019-04-17 09:23:59 GMT 49.376953 2.225929 37,000 228 425 0
2019-04-17 09:23:56 GMT 49.376953 2.225929 37,000 228 425 0
2019-04-17 09:23:52 GMT 49.383820 2.237549 37,000 228 425 0
2019-04-17 09:23:49 GMT 49.385780 2.240922 37,000 228 425 0
2019-04-17 09:23:46 GMT 49.389587 2.247408 37,000 228 425 0
2019-04-17 09:23:43 GMT 49.393799 2.254592 37,000 228 425 0
2019-04-17 09:23:40 GMT 49.398441 2.262389 37,000 228 425 0
2019-04-17 09:23:37 GMT 49.400536 2.266002 37,000 228 426 0
2019-04-17 09:23:34 GMT 49.404602 2.272902 37,000 229 426 0
2019-04-17 09:23:30 GMT 49.410416 2.282762 37,000 228 426 0
2019-04-17 09:23:27 GMT 49.417831 2.295297 37,000 228 426 0
2019-04-17 09:23:24 GMT 49.421768 2.301988 37,000 228 426 0
2019-04-17 09:23:21 GMT 49.427078 2.310932 37,000 228 426 0
2019-04-17 09:23:18 GMT 49.427078 2.310932 37,000 228 426 0
2019-04-17 09:23:15 GMT 49.431839 2.318983 37,000 228 426 0
2019-04-17 09:23:10 GMT 49.438011 2.329473 37,025 228 426 0
2019-04-17 09:23:07 GMT 49.442093 2.336402 37,025 228 426 0
2019-04-17 09:23:04 GMT 49.444748 2.340883 37,000 228 426 0
2019-04-17 09:23:01 GMT 49.448685 2.347605 37,000 228 425 0
2019-04-17 09:22:57 GMT 49.458435 2.364229 37,000 229 426 0
2019-04-17 09:22:54 GMT 49.458435 2.364229 37,000 229 426 0
2019-04-17 09:22:50 GMT 49.462776 2.371636 37,000 229 426 0
2019-04-17 09:22:47 GMT 49.469109 2.382400 37,000 229 426 0
2019-04-17 09:22:44 GMT 49.472225 2.387819 37,000 229 426 0
2019-04-17 09:22:39 GMT 49.482235 2.404892 37,000 229 426 0
2019-04-17 09:22:36 GMT 49.486038 2.411427 37,000 229 426 0
2019-04-17 09:22:33 GMT 49.486038 2.411427 37,000 229 426 0
2019-04-17 09:22:29 GMT 49.491028 2.419956 37,000 229 427 0
2019-04-17 09:22:26 GMT 49.495789 2.428051 37,000 229 427 0
2019-04-17 09:22:22 GMT 49.500343 2.435921 37,000 229 427 0
2019-04-17 09:22:18 GMT 49.507095 2.447421 37,000 229 427 0
2019-04-17 09:22:15 GMT 49.511032 2.454143 37,000 229 427 0
2019-04-17 09:22:12 GMT 49.516296 2.463178 37,000 229 427 0
2019-04-17 09:22:09 GMT 49.517708 2.465688 37,000 229 427 0
2019-04-17 09:22:03 GMT 49.526276 2.480308 37,000 229 427 0
2019-04-17 09:21:59 GMT 49.532185 2.490482 37,000 229 426 0
2019-04-17 09:21:52 GMT 49.540054 2.503992 37,000 229 426 0
2019-04-17 09:21:49 GMT 49.543854 2.510521 37,000 229 427 0
2019-04-17 09:21:44 GMT 49.550125 2.521435 37,000 229 427 0
2019-04-17 09:21:41 GMT 49.565826 2.548539 37,000 229 427 0
2019-04-17 09:21:33 GMT 49.565826 2.548539 37,000 229 427 0
2019-04-17 09:21:30 GMT 49.569103 2.554173 37,000 229 427 0
2019-04-17 09:21:24 GMT 49.575386 2.565085 37,000 229 426 0
2019-04-17 09:21:21 GMT 49.583588 2.579330 37,025 229 425 0
2019-04-17 09:21:18 GMT 49.583588 2.579330 37,000 218 435 0
2019-04-17 09:21:14 GMT 49.593960 2.597153 37,025 228 427 0
2019-04-17 09:21:11 GMT 49.593960 2.597153 37,025 224 430 0
2019-04-17 09:21:08 GMT 49.598572 2.604725 37,000 226 429 0
2019-04-17 09:21:02 GMT 49.605598 2.615488 37,025 225 430 0
2019-04-17 09:20:59 GMT 49.609043 2.620536 37,025 223 431 0
2019-04-17 09:20:55 GMT 49.615036 2.629057 37,000 218 436 0
2019-04-17 09:20:50 GMT 49.624191 2.641055 37,000 218 437 0
2019-04-17 09:20:43 GMT 49.635811 2.654906 37,000 218 437 0
2019-04-17 09:20:40 GMT 49.639351 2.658988 37,000 218 437 0
2019-04-17 09:20:35 GMT 49.648544 2.669678 37,000 218 437 0
2019-04-17 09:20:32 GMT 49.653549 2.675468 37,000 218 437 0
2019-04-17 09:20:29 GMT 49.656921 2.679435 37,000 218 437 0
2019-04-17 09:20:25 GMT 49.665619 2.689482 37,000 218 437 0
2019-04-17 09:20:19 GMT 49.673309 2.698517 37,000 218 436 0
2019-04-17 09:20:15 GMT 49.687500 2.714996 37,000 218 437 0
2019-04-17 09:20:11 GMT 49.687500 2.714996 37,000 218 437 0
2019-04-17 09:20:08 GMT 49.698891 2.728247 37,000 218 437 0
2019-04-17 09:20:04 GMT 49.698891 2.728247 37,000 218 437 0
2019-04-17 09:20:01 GMT 49.701824 2.731661 37,000 218 437 0
2019-04-17 09:19:58 GMT 49.706131 2.736680 37,000 218 436 0
2019-04-17 09:19:55 GMT 49.711460 2.742870 37,000 218 437 0
2019-04-17 09:19:52 GMT 49.716301 2.748438 37,000 218 437 0
2019-04-17 09:19:48 GMT 49.722725 2.755935 37,000 218 437 0
2019-04-17 09:19:45 GMT 49.728653 2.762845 37,000 218 437 0
2019-04-17 09:19:42 GMT 49.732224 2.766965 37,000 218 437 0
2019-04-17 09:19:39 GMT 49.737717 2.773325 37,000 218 436 0
2019-04-17 09:19:35 GMT 49.744766 2.781637 37,000 218 436 0
2019-04-17 09:19:31 GMT 49.750378 2.788152 37,000 218 436 0
2019-04-17 09:19:27 GMT 49.762115 2.801947 37,000 218 436 0
2019-04-17 09:19:24 GMT 49.762115 2.801947 37,000 218 436 0
2019-04-17 09:19:17 GMT 49.773884 2.815692 37,000 218 436 0
2019-04-17 09:19:14 GMT 49.779007 2.821705 37,000 218 436 0
2019-04-17 09:19:08 GMT 49.787712 2.831875 37,000 218 436 0
2019-04-17 09:19:03 GMT 49.795578 2.841050 37,000 218 436 0
2019-04-17 09:19:00 GMT 49.804871 2.852036 37,000 218 434 0
2019-04-17 09:18:54 GMT 49.809498 2.857485 37,025 218 435 0
2019-04-17 09:18:49 GMT 49.817505 2.866912 37,025 218 435 0
2019-04-17 09:18:46 GMT 49.830631 2.882426 37,025 218 433 0
2019-04-17 09:18:42 GMT 49.830631 2.882426 37,025 218 435 0
2019-04-17 09:18:39 GMT 49.835587 2.888248 37,000 218 434 0
2019-04-17 09:18:36 GMT 49.838593 2.891854 37,025 218 435 0
2019-04-17 09:18:30 GMT 49.849594 2.904872 37,025 218 433 0
2019-04-17 09:18:26 GMT 49.854675 2.910871 37,025 218 434 0
2019-04-17 09:18:23 GMT 49.859802 2.916942 37,025 218 434 0
2019-04-17 09:18:18 GMT 49.867268 2.925778 37,000 218 430 0
2019-04-17 09:18:15 GMT 49.873810 2.933494 37,000 218 433 0
2019-04-17 09:18:12 GMT 49.876205 2.936319 37,000 218 433 0
2019-04-17 09:18:09 GMT 49.881607 2.942703 37,000 219 425 0
2019-04-17 09:18:03 GMT 49.891151 2.953912 37,000 218 433 0
2019-04-17 09:18:00 GMT 49.896057 2.959731 37,000 218 432 0
2019-04-17 09:17:56 GMT 49.904022 2.969127 37,000 218 432 0
2019-04-17 09:17:53 GMT 49.909912 2.976033 37,000 218 432 0
2019-04-17 09:17:49 GMT 49.912582 2.979246 37,000 218 432 0
2019-04-17 09:17:45 GMT 49.921463 2.989727 37,000 218 432 0
2019-04-17 09:17:41 GMT 49.927185 2.996449 37,000 218 431 0
2019-04-17 09:17:33 GMT 49.938728 3.010105 37,000 218 430 0
2019-04-17 09:17:30 GMT 49.944580 3.017048 37,000 218 431 0
2019-04-17 09:17:25 GMT 49.950577 3.024131 37,000 218 429 0
2019-04-17 09:17:21 GMT 49.957069 3.031781 37,000 218 429 0
2019-04-17 09:17:18 GMT 49.964333 3.040392 36,975 218 428 0
2019-04-17 09:17:11 GMT 49.973648 3.051380 37,000 218 428 0
2019-04-17 09:17:08 GMT 49.978409 3.056946 37,000 218 429 0
2019-04-17 09:17:05 GMT 49.985188 3.064963 37,025 218 426 -128
2019-04-17 09:17:01 GMT 49.989761 3.070317 37,000 218 428 0
2019-04-17 09:16:56 GMT 50.006599 3.090276 37,000 218 428 0
2019-04-17 09:16:51 GMT 50.006599 3.090276 37,000 218 426 0
2019-04-17 09:16:47 GMT 50.011627 3.096215 37,000 218 428 0
2019-04-17 09:16:39 GMT 50.023087 3.109854 37,000 218 427 0
2019-04-17 09:16:36 GMT 50.027920 3.115663 37,000 218 428 0
2019-04-17 09:16:32 GMT 50.034988 3.124020 37,000 218 428 0
2019-04-17 09:16:29 GMT 50.040024 3.129947 37,000 218 428 0
2019-04-17 09:16:25 GMT 50.046124 3.137265 37,000 218 426 0
2019-04-17 09:16:21 GMT 50.052521 3.144836 37,000 218 427 0
2019-04-17 09:16:18 GMT 50.055679 3.148595 37,025 218 426 -64
2019-04-17 09:16:15 GMT 50.061764 3.155823 37,000 218 427 0
2019-04-17 09:16:10 GMT 50.070843 3.166661 37,000 218 427 0
2019-04-17 09:16:07 GMT 50.075542 3.172228 37,000 218 426 0
2019-04-17 09:16:04 GMT 50.079502 3.176830 36,950 218 425 448
2019-04-17 09:15:59 GMT 50.085598 3.184179 36,875 218 426 -64
2019-04-17 09:15:56 GMT 50.090469 3.189938 37,000 218 425 448
2019-04-17 09:15:50 GMT 50.100769 3.202153 37,000 218 425 384
2019-04-17 09:15:47 GMT 50.104523 3.206635 36,950 218 425 448
2019-04-17 09:15:44 GMT 50.110317 3.213501 36,950 218 425 448
2019-04-17 09:15:40 GMT 50.118092 3.222854 36,950 218 425 448
2019-04-17 09:15:36 GMT 50.124332 3.230277 36,950 218 425 448
2019-04-17 09:15:33 GMT 50.127594 3.234173 36,925 218 426 448
2019-04-17 09:15:28 GMT 50.135876 3.244085 36,875 218 426 448
2019-04-17 09:15:25 GMT 50.141052 3.250218 36,775 218 426 448
2019-04-17 09:15:21 GMT 50.145081 3.255061 36,800 218 426 448
2019-04-17 09:15:17 GMT 50.151192 3.262346 36,775 218 429 256
2019-04-17 09:15:12 GMT 50.160370 3.273348 36,625 218 426 448
2019-04-17 09:15:07 GMT 50.167717 3.282166 36,725 218 426 448
2019-04-17 09:15:01 GMT 50.182335 3.299684 36,500 218 426 448
2019-04-17 09:14:55 GMT 50.185455 3.303470 36,625 218 426 448
2019-04-17 09:14:52 GMT 50.190903 3.309993 36,600 218 426 448
2019-04-17 09:14:48 GMT 50.202118 3.323437 36,550 218 427 448
2019-04-17 09:14:42 GMT 50.206356 3.328486 36,375 218 427 448
2019-04-17 09:14:39 GMT 50.210407 3.333386 36,400 218 427 448
2019-04-17 09:14:36 GMT 50.217854 3.342368 36,475 218 427 448
2019-04-17 09:14:30 GMT 50.225349 3.351350 36,425 218 427 448
2019-04-17 09:14:25 GMT 50.238476 3.367161 36,150 218 427 448
2019-04-17 09:14:22 GMT 50.238476 3.367161 36,300 218 428 512
2019-04-17 09:14:19 GMT 50.242527 3.372060 36,025 218 428 64
2019-04-17 09:14:13 GMT 50.253422 3.385199 36,300 218 428 512
2019-04-17 09:14:10 GMT 50.255608 3.387872 36,025 218 428 0
2019-04-17 09:14:07 GMT 50.261078 3.394414 36,125 218 428 448
2019-04-17 09:14:04 GMT 50.266270 3.400640 36,200 218 427 448
2019-04-17 09:13:58 GMT 50.275299 3.411552 36,025 218 427 0
2019-04-17 09:13:54 GMT 50.281586 3.419123 36,025 218 428 0
2019-04-17 09:13:51 GMT 50.287216 3.425879 36,100 218 429 448
2019-04-17 09:13:48 GMT 50.291107 3.430626 36,025 218 429 256
2019-04-17 09:13:45 GMT 50.296783 3.437420 36,025 218 429 256
2019-04-17 09:13:41 GMT 50.302254 3.443991 36,025 218 428 0
2019-04-17 09:13:37 GMT 50.310074 3.453419 36,025 218 428 0
2019-04-17 09:13:34 GMT 50.312866 3.456833 36,025 218 428 0
2019-04-17 09:13:31 GMT 50.318825 3.464034 36,000 218 428 64
2019-04-17 09:13:25 GMT 50.326649 3.473535 36,000 219 428 0
2019-04-17 09:13:22 GMT 50.330841 3.478618 36,000 219 425 0
2019-04-17 09:13:18 GMT 50.337982 3.487364 36,000 218 427 0
2019-04-17 09:13:15 GMT 50.342056 3.492279 36,000 218 427 0
2019-04-17 09:13:10 GMT 50.350754 3.502976 36,000 219 428 0
2019-04-17 09:13:07 GMT 50.355274 3.508425 36,000 219 428 0
2019-04-17 09:13:04 GMT 50.358723 3.512656 36,000 219 428 0
2019-04-17 09:13:01 GMT 50.363983 3.519114 36,000 219 428 0
2019-04-17 09:12:57 GMT 50.371758 3.528616 36,000 219 428 0
2019-04-17 09:12:53 GMT 50.376572 3.534490 36,000 218 427 0
2019-04-17 09:12:50 GMT 50.382648 3.541903 36,025 219 426 0
2019-04-17 09:12:43 GMT 50.391960 3.553335 36,000 219 425 0
2019-04-17 09:12:37 GMT 50.401318 3.564767 36,000 218 427 0
2019-04-17 09:12:34 GMT 50.406418 3.570990 36,000 219 426 0
2019-04-17 09:12:31 GMT 50.411407 3.577062 36,000 219 426 0
2019-04-17 09:12:27 GMT 50.416718 3.583567 36,000 218 427 0
2019-04-17 09:12:24 GMT 50.421341 3.589277 36,000 218 427 0
2019-04-17 09:12:19 GMT 50.430832 3.600843 36,000 219 426 0
2019-04-17 09:12:13 GMT 50.438278 3.609974 36,000 219 425 0
2019-04-17 09:12:10 GMT 50.443405 3.616237 36,000 219 425 0
2019-04-17 09:12:06 GMT 50.449265 3.623464 36,000 219 425 0
2019-04-17 09:12:02 GMT 50.456085 3.631777 36,000 219 425 0
2019-04-17 09:11:59 GMT 50.459793 3.636330 36,000 219 425 0
2019-04-17 09:11:55 GMT 50.465973 3.643919 36,000 218 424 0
2019-04-17 09:11:52 GMT 50.471378 3.650504 36,000 218 424 0
2019-04-17 09:11:49 GMT 50.475708 3.655775 36,000 218 424 0
2019-04-17 09:11:46 GMT 50.480968 3.662159 36,000 216 426 0
2019-04-17 09:11:42 GMT 50.487160 3.669731 36,000 219 424 0
2019-04-17 09:11:39 GMT 50.491333 3.674782 36,000 219 423 0
2019-04-17 09:11:36 GMT 50.495911 3.680492 36,000 219 424 0
2019-04-17 09:11:33 GMT 50.501961 3.687843 36,000 219 424 0
2019-04-17 09:11:30 GMT 50.504383 3.690887 36,000 209 430 0
2019-04-17 09:11:27 GMT 50.509968 3.697716 36,000 218 424 0
2019-04-17 09:11:24 GMT 50.519699 3.709148 36,000 203 437 0
2019-04-17 09:11:21 GMT 50.519699 3.709148 36,000 213 428 0
2019-04-17 09:11:17 GMT 50.527798 3.717907 36,000 213 427 0
2019-04-17 09:11:14 GMT 50.532734 3.722955 36,000 212 427 0
2019-04-17 09:11:10 GMT 50.537613 3.727690 36,000 207 432 0
2019-04-17 09:11:06 GMT 50.544846 3.734267 36,000 209 430 0
2019-04-17 09:11:00 GMT 50.555786 3.743230 36,000 207 432 0
2019-04-17 09:10:57 GMT 50.560944 3.747303 36,000 207 432 0
2019-04-17 09:10:54 GMT 50.573639 3.757252 36,000 207 432 0
2019-04-17 09:10:50 GMT 50.582031 3.763782 36,000 207 432 0
2019-04-17 09:10:45 GMT 50.582031 3.763782 36,000 207 432 0
2019-04-17 09:10:42 GMT 50.589153 3.769424 36,000 207 432 0
2019-04-17 09:10:37 GMT 50.595207 3.774175 36,000 207 432 0
2019-04-17 09:10:34 GMT 50.601631 3.779223 36,000 207 432 0
2019-04-17 09:10:30 GMT 50.608612 3.784790 36,000 203 437 0
2019-04-17 09:10:27 GMT 50.614105 3.789170 36,000 207 432 0
2019-04-17 09:10:23 GMT 50.621063 3.794692 36,000 203 438 0
2019-04-17 09:10:20 GMT 50.627106 3.799535 36,000 207 432 0
2019-04-17 09:10:17 GMT 50.630867 3.802457 36,000 207 432 0
2019-04-17 09:10:14 GMT 50.636398 3.806907 36,000 207 432 0
2019-04-17 09:10:11 GMT 50.641758 3.811142 36,000 207 431 0
2019-04-17 09:10:08 GMT 50.647999 3.816116 36,000 207 433 0
2019-04-17 09:10:05 GMT 50.653152 3.820279 36,000 207 433 0
2019-04-17 09:10:01 GMT 50.659561 3.825338 36,000 207 433 0
2019-04-17 09:09:58 GMT 50.664757 3.829478 36,000 205 435 0
2019-04-17 09:09:54 GMT 50.672791 3.835862 36,000 205 435 0
2019-04-17 09:09:49 GMT 50.683548 3.844324 36,000 206 434 0
2019-04-17 09:09:46 GMT 50.688030 3.847733 36,000 204 436 0
2019-04-17 09:09:43 GMT 50.692612 3.851079 36,000 203 438 0
2019-04-17 09:09:40 GMT 50.698647 3.855362 36,000 203 437 0
2019-04-17 09:09:36 GMT 50.704975 3.859482 36,000 203 437 0
2019-04-17 09:09:33 GMT 50.710419 3.862956 36,000 203 437 0
2019-04-17 09:09:29 GMT 50.718613 3.868301 36,000 203 437 0
2019-04-17 09:09:26 GMT 50.723465 3.871419 36,000 203 437 0
2019-04-17 09:09:23 GMT 50.729279 3.875122 36,000 203 438 0
2019-04-17 09:09:20 GMT 50.735825 3.879287 36,000 203 438 0
2019-04-17 09:09:17 GMT 50.745384 3.885422 36,025 203 438 0
2019-04-17 09:09:10 GMT 50.756046 3.892288 36,025 203 436 0
2019-04-17 09:09:05 GMT 50.765030 3.897994 36,025 203 438 0
2019-04-17 09:09:02 GMT 50.768051 3.899924 36,000 203 437 0
2019-04-17 09:08:59 GMT 50.774570 3.904114 36,025 203 438 0
2019-04-17 09:08:53 GMT 50.785839 3.911285 36,025 203 437 0
2019-04-17 09:08:50 GMT 50.791626 3.914993 36,000 203 437 0
2019-04-17 09:08:47 GMT 50.797428 3.918762 36,000 203 437 0
2019-04-17 09:08:44 GMT 50.807693 3.925385 36,000 202 439 0
2019-04-17 09:08:38 GMT 50.814056 3.929468 36,000 203 437 0
2019-04-17 09:08:35 GMT 50.820053 3.933328 36,000 203 437 0
2019-04-17 09:08:32 GMT 50.825455 3.936844 36,000 203 437 0
2019-04-17 09:08:28 GMT 50.832951 3.941650 36,000 203 437 0
2019-04-17 09:08:25 GMT 50.845093 3.949436 36,000 203 437 0
2019-04-17 09:08:22 GMT 50.845093 3.949436 36,000 203 437 0
2019-04-17 09:08:18 GMT 50.851479 3.953552 36,000 203 437 0
2019-04-17 09:08:15 GMT 50.862511 3.960648 36,000 203 437 0
2019-04-17 09:08:12 GMT 50.862511 3.960648 36,000 203 437 0
2019-04-17 09:08:06 GMT 50.874100 3.968124 36,000 202 437 0
2019-04-17 09:08:03 GMT 50.879688 3.971710 36,000 203 438 0
2019-04-17 09:08:00 GMT 50.891327 3.979111 36,000 202 439 0
2019-04-17 09:07:54 GMT 50.895996 3.982099 36,000 202 437 0
2019-04-17 09:07:50 GMT 50.904079 3.987274 36,000 202 437 0
2019-04-17 09:07:46 GMT 50.911762 3.992157 36,000 202 437 0
2019-04-17 09:07:43 GMT 50.917210 3.995590 36,000 202 437 0
2019-04-17 09:07:40 GMT 50.922470 3.999023 36,000 202 437 0
2019-04-17 09:07:37 GMT 50.930145 4.003923 36,000 206 438 64
2019-04-17 09:07:34 GMT 50.933899 4.006298 36,000 202 438 0
2019-04-17 09:07:31 GMT 50.941040 4.010901 36,000 203 439 0
2019-04-17 09:07:28 GMT 50.944580 4.013138 36,000 202 438 0
2019-04-17 09:07:25 GMT 50.951157 4.017359 36,000 202 438 0
2019-04-17 09:07:22 GMT 50.955849 4.020386 36,000 202 438 0
2019-04-17 09:07:19 GMT 50.963387 4.025192 36,000 202 439 0
2019-04-17 09:07:16 GMT 50.967316 4.027677 36,000 202 438 0
2019-04-17 09:07:13 GMT 50.973118 4.031448 36,000 202 439 0
2019-04-17 09:07:10 GMT 50.985764 4.039406 36,000 202 439 0
2019-04-17 09:07:07 GMT 50.985764 4.039406 36,000 202 439 0
2019-04-17 09:07:03 GMT 50.993637 4.044453 36,000 202 439 0
2019-04-17 09:07:00 GMT 50.997437 4.046903 36,000 202 439 0
2019-04-17 09:06:57 GMT 51.008331 4.053807 36,000 202 439 0
2019-04-17 09:06:51 GMT 51.015667 4.058533 36,000 202 439 0
2019-04-17 09:06:48 GMT 51.020004 4.061230 36,000 202 440 0
2019-04-17 09:06:45 GMT 51.026234 4.065170 36,000 206 438 0
2019-04-17 09:06:42 GMT 51.031914 4.068756 36,000 202 440 0
2019-04-17 09:06:39 GMT 51.038864 4.073181 36,025 202 440 -64
2019-04-17 09:06:36 GMT 51.045460 4.077377 36,000 202 440 -64
2019-04-17 09:06:33 GMT 51.050171 4.080382 36,025 202 439 0
2019-04-17 09:06:30 GMT 51.059601 4.086394 36,025 203 439 0
2019-04-17 09:06:27 GMT 51.059601 4.086394 36,025 204 439 0
2019-04-17 09:06:24 GMT 51.066128 4.090729 36,025 205 438 64
2019-04-17 09:06:20 GMT 51.074432 4.096713 36,000 206 437 0
2019-04-17 09:06:16 GMT 51.086380 4.105992 36,000 209 437 0
2019-04-17 09:06:13 GMT 51.086380 4.105992 36,000 209 436 0
2019-04-17 09:06:10 GMT 51.091370 4.110223 36,000 210 436 0
2019-04-17 09:06:07 GMT 51.096680 4.114900 36,000 211 435 0
2019-04-17 09:06:04 GMT 51.101742 4.119568 36,000 212 435 0
2019-04-17 09:06:01 GMT 51.106705 4.124401 36,000 217 432 0
2019-04-17 09:05:58 GMT 51.111565 4.129410 36,000 215 433 0
2019-04-17 09:05:55 GMT 51.116043 4.134200 36,000 217 432 0
2019-04-17 09:05:52 GMT 51.121902 4.140881 36,000 217 432 0
2019-04-17 09:05:49 GMT 51.126068 4.145780 36,000 217 432 0
2019-04-17 09:05:46 GMT 51.130695 4.151306 36,000 217 433 0
2019-04-17 09:05:43 GMT 51.136189 4.157715 36,025 217 433 0
2019-04-17 09:05:40 GMT 51.140808 4.163225 36,025 217 432 0
2019-04-17 09:05:37 GMT 51.144478 4.167633 36,000 217 432 0
2019-04-17 09:05:34 GMT 51.150902 4.175262 36,000 217 432 0
2019-04-17 09:05:31 GMT 51.157104 4.182673 36,000 218 432 0
2019-04-17 09:05:28 GMT 51.160309 4.186459 36,000 218 432 0
2019-04-17 09:05:25 GMT 51.166031 4.193363 36,000 218 432 0
2019-04-17 09:05:22 GMT 51.168274 4.196035 36,000 218 432 0
2019-04-17 09:05:19 GMT 51.179253 4.209213 36,000 218 432 0
2019-04-17 09:05:16 GMT 51.179253 4.209213 36,000 218 432 0
2019-04-17 09:05:12 GMT 51.190098 4.222260 36,000 218 432 0
2019-04-17 09:05:09 GMT 51.193916 4.226837 36,000 218 432 0
2019-04-17 09:05:03 GMT 51.200943 4.235306 36,000 218 432 0
2019-04-17 09:04:59 GMT 51.205738 4.241028 36,000 218 432 0
2019-04-17 09:04:56 GMT 51.210342 4.246587 36,000 218 432 0
2019-04-17 09:04:53 GMT 51.215424 4.252748 36,000 218 432 0
2019-04-17 09:04:50 GMT 51.225151 4.264450 36,000 218 433 0
2019-04-17 09:04:44 GMT 51.231853 4.272537 36,000 218 433 0
2019-04-17 09:04:41 GMT 51.234558 4.275834 36,000 218 433 0
2019-04-17 09:04:38 GMT 51.239319 4.281624 36,000 218 433 0
2019-04-17 09:04:35 GMT 51.244564 4.287949 36,000 218 433 0
2019-04-17 09:04:32 GMT 51.249638 4.294128 36,000 218 433 0
2019-04-17 09:04:29 GMT 51.255039 4.300690 36,000 218 433 0
2019-04-17 09:04:26 GMT 51.258728 4.305156 36,000 218 433 0
2019-04-17 09:04:23 GMT 51.264301 4.311905 36,000 218 433 0
2019-04-17 09:04:19 GMT 51.269375 4.318085 36,000 218 433 0
2019-04-17 09:04:16 GMT 51.274776 4.324646 36,000 218 433 0
2019-04-17 09:04:13 GMT 51.284969 4.337006 36,000 218 433 0
2019-04-17 09:04:09 GMT 51.291348 4.344711 36,000 218 433 0
2019-04-17 09:04:06 GMT 51.291348 4.344711 36,000 218 433 0
2019-04-17 09:04:03 GMT 51.295944 4.350289 36,000 218 433 0
2019-04-17 09:03:59 GMT 51.300751 4.356079 36,000 218 433 0
2019-04-17 09:03:56 GMT 51.305687 4.362030 36,000 218 437 0
2019-04-17 09:03:53 GMT 51.310158 4.367447 36,000 218 433 0
2019-04-17 09:03:50 GMT 51.317322 4.376122 36,000 218 433 0
2019-04-17 09:03:47 GMT 51.321327 4.380951 36,000 218 433 0
2019-04-17 09:03:44 GMT 51.326729 4.387512 36,000 218 433 0
2019-04-17 09:03:41 GMT 51.329617 4.390945 36,000 218 433 0
2019-04-17 09:03:38 GMT 51.334534 4.396981 36,000 218 433 0
2019-04-17 09:03:35 GMT 51.344742 4.409303 36,000 218 433 0
2019-04-17 09:03:32 GMT 51.344742 4.409303 36,000 218 434 0
2019-04-17 09:03:28 GMT 51.351913 4.418030 36,000 218 433 0
2019-04-17 09:03:25 GMT 51.356056 4.422989 36,000 218 434 0
2019-04-17 09:03:22 GMT 51.362106 4.430313 36,000 218 433 0
2019-04-17 09:03:19 GMT 51.369919 4.439813 36,000 218 434 0
2019-04-17 09:03:16 GMT 51.369919 4.439813 36,000 218 433 0
2019-04-17 09:03:13 GMT 51.374863 4.445801 36,000 218 433 0
2019-04-17 09:03:10 GMT 51.380917 4.453125 36,000 218 433 0
2019-04-17 09:03:07 GMT 51.384781 4.457703 36,000 218 433 0
2019-04-17 09:03:04 GMT 51.389374 4.463344 36,000 218 433 0
2019-04-17 09:03:01 GMT 51.394180 4.469134 36,000 218 434 0
2019-04-17 09:02:58 GMT 51.398987 4.474850 36,000 218 434 0
2019-04-17 09:02:55 GMT 51.408752 4.486694 36,000 218 434 0
2019-04-17 09:02:52 GMT 51.413876 4.492874 36,000 218 434 0
2019-04-17 09:02:49 GMT 51.413876 4.492874 36,000 218 434 0
2019-04-17 09:02:46 GMT 51.417847 4.497714 36,000 218 435 0
2019-04-17 09:02:43 GMT 51.428261 4.510269 36,000 218 435 0
2019-04-17 09:02:40 GMT 51.428261 4.510269 36,000 218 435 0
2019-04-17 09:02:34 GMT 51.437897 4.521942 36,000 218 436 0
2019-04-17 09:02:31 GMT 51.443161 4.528371 36,000 218 436 0
2019-04-17 09:02:28 GMT 51.446182 4.532089 36,000 218 437 0
2019-04-17 09:02:25 GMT 51.451813 4.538912 36,000 218 436 0
2019-04-17 09:02:22 GMT 51.458542 4.547078 36,000 218 436 0
2019-04-17 09:02:19 GMT 51.461918 4.551163 36,000 218 436 0
2019-04-17 09:02:15 GMT 51.468155 4.558807 36,000 218 437 0
2019-04-17 09:02:12 GMT 51.472809 4.564514 36,000 218 437 0
2019-04-17 09:02:09 GMT 51.477173 4.569793 36,000 218 437 0
2019-04-17 09:02:06 GMT 51.483097 4.577026 36,000 218 437 0
2019-04-17 09:02:03 GMT 51.487106 4.581893 36,000 218 437 0
2019-04-17 09:01:59 GMT 51.493835 4.590132 36,000 218 437 0
2019-04-17 09:01:56 GMT 51.498180 4.595413 36,000 218 437 0
2019-04-17 09:01:53 GMT 51.503494 4.601861 36,000 218 437 0
2019-04-17 09:01:50 GMT 51.507492 4.606781 36,000 218 437 0
2019-04-17 09:01:47 GMT 51.512985 4.613419 36,000 218 437 0
2019-04-17 09:01:44 GMT 51.517452 4.618988 36,000 218 437 0
2019-04-17 09:01:41 GMT 51.522575 4.625244 36,000 218 437 0
2019-04-17 09:01:38 GMT 51.527252 4.630886 36,000 218 437 0
2019-04-17 09:01:35 GMT 51.533512 4.638596 36,000 218 436 0
2019-04-17 09:01:32 GMT 51.536545 4.642317 36,000 218 437 0
2019-04-17 09:01:29 GMT 51.542126 4.649200 36,000 218 437 0
2019-04-17 09:01:25 GMT 51.547897 4.656219 36,000 218 436 0
2019-04-17 09:01:22 GMT 51.553207 4.662731 36,000 218 437 0
2019-04-17 09:01:19 GMT 51.559296 4.670229 36,000 219 436 0
2019-04-17 09:01:16 GMT 51.565338 4.677726 36,000 218 437 0
2019-04-17 09:01:13 GMT 51.566940 4.679656 36,000 218 437 0
2019-04-17 09:01:10 GMT 51.573990 4.688341 36,000 218 437 0
2019-04-17 09:01:06 GMT 51.577148 4.692350 36,000 218 437 0
2019-04-17 09:01:03 GMT 51.584023 4.700851 36,000 218 437 0
2019-04-17 09:01:00 GMT 51.589142 4.707184 36,000 218 437 0
2019-04-17 09:00:57 GMT 51.592484 4.711353 36,000 218 437 0
2019-04-17 09:00:54 GMT 51.599487 4.720113 36,000 218 437 0
2019-04-17 09:00:51 GMT 51.601898 4.723053 36,000 218 437 0
2019-04-17 09:00:48 GMT 51.612579 4.736369 36,000 218 437 0
2019-04-17 09:00:45 GMT 51.612579 4.736369 36,000 218 438 0
2019-04-17 09:00:42 GMT 51.617214 4.742126 36,000 218 438 0
2019-04-17 09:00:39 GMT 51.621826 4.747950 36,000 218 438 0
2019-04-17 09:00:36 GMT 51.626476 4.753723 36,000 218 438 0
2019-04-17 09:00:33 GMT 51.632675 4.761534 36,000 218 438 0
2019-04-17 09:00:29 GMT 51.637161 4.767101 36,000 218 438 0
2019-04-17 09:00:26 GMT 51.641968 4.773114 36,000 218 438 0
2019-04-17 09:00:23 GMT 51.648331 4.781057 36,000 218 438 0
2019-04-17 09:00:20 GMT 51.651382 4.784851 36,000 219 438 -64
2019-04-17 09:00:17 GMT 51.657436 4.792480 36,000 219 437 0
2019-04-17 09:00:14 GMT 51.661579 4.797668 36,025 219 437 0
2019-04-17 09:00:11 GMT 51.667629 4.805298 36,000 219 438 0
2019-04-17 09:00:08 GMT 51.670795 4.809341 36,000 219 438 0
2019-04-17 09:00:05 GMT 51.676849 4.816895 36,000 219 437 0
2019-04-17 09:00:02 GMT 51.679825 4.820771 36,025 219 437 0
2019-04-17 08:59:59 GMT 51.686066 4.828568 36,000 219 437 0
2019-04-17 08:59:56 GMT 51.690033 4.833539 36,000 219 437 0
2019-04-17 08:59:53 GMT 51.699234 4.845193 36,000 219 437 0
2019-04-17 08:59:50 GMT 51.699234 4.845193 36,000 219 437 0
2019-04-17 08:59:47 GMT 51.703850 4.850998 36,000 219 436 0
2019-04-17 08:59:44 GMT 51.709076 4.857664 36,000 219 437 0
2019-04-17 08:59:41 GMT 51.718140 4.869080 36,000 219 437 0
2019-04-17 08:59:35 GMT 51.723866 4.876251 36,000 219 437 0
2019-04-17 08:59:32 GMT 51.729267 4.883118 36,000 219 436 0
2019-04-17 08:59:29 GMT 51.733841 4.888916 36,000 219 436 0
2019-04-17 08:59:26 GMT 51.737961 4.894112 36,000 218 437 0
2019-04-17 08:59:23 GMT 51.743683 4.901313 36,000 219 436 0
2019-04-17 08:59:19 GMT 51.748959 4.907913 36,000 218 436 0
2019-04-17 08:59:15 GMT 51.755009 4.915466 36,000 218 436 0
2019-04-17 08:59:12 GMT 51.759933 4.921652 36,000 218 436 0
2019-04-17 08:59:09 GMT 51.765808 4.929047 36,000 218 436 0
2019-04-17 08:59:05 GMT 51.771973 4.936796 36,025 219 435 0
2019-04-17 08:59:02 GMT 51.777054 4.943180 36,025 218 436 0
2019-04-17 08:58:58 GMT 51.781963 4.949341 36,025 219 435 0
2019-04-17 08:58:55 GMT 51.787857 4.956690 36,025 219 435 0
2019-04-17 08:58:51 GMT 51.797653 4.969087 36,025 219 434 0
2019-04-17 08:58:48 GMT 51.799210 4.971091 36,025 219 434 0
2019-04-17 08:58:45 GMT 51.802540 4.975281 36,000 219 434 0
2019-04-17 08:58:42 GMT 51.807613 4.981689 36,000 219 434 0
2019-04-17 08:58:39 GMT 51.812965 4.988480 36,000 219 434 0
2019-04-17 08:58:36 GMT 51.816879 4.993435 36,000 219 434 0
2019-04-17 08:58:33 GMT 51.823196 5.001452 36,000 219 433 0
2019-04-17 08:58:29 GMT 51.828552 5.008281 36,000 219 433 0
2019-04-17 08:58:26 GMT 51.832352 5.013032 36,000 219 433 0
2019-04-17 08:58:23 GMT 51.838478 5.020828 36,000 219 433 0
2019-04-17 08:58:20 GMT 51.843018 5.026616 36,000 219 432 0
2019-04-17 08:58:17 GMT 51.848053 5.033000 36,000 219 432 0
2019-04-17 08:58:14 GMT 51.852768 5.039013 36,000 219 432 0
2019-04-17 08:58:11 GMT 51.857803 5.045397 36,000 219 431 0
2019-04-17 08:58:08 GMT 51.860775 5.049210 36,000 219 432 0
2019-04-17 08:58:05 GMT 51.870178 5.061188 36,025 219 432 0
2019-04-17 08:58:02 GMT 51.870178 5.061188 36,025 219 432 0
2019-04-17 08:57:59 GMT 51.874882 5.067139 36,025 219 432 0
2019-04-17 08:57:56 GMT 51.878929 5.072327 36,025 219 431 0
2019-04-17 08:57:53 GMT 51.887878 5.083701 36,025 219 430 0
2019-04-17 08:57:50 GMT 51.893463 5.090866 36,025 219 430 0
2019-04-17 08:57:47 GMT 51.893463 5.090866 36,000 219 430 0
2019-04-17 08:57:44 GMT 51.898342 5.097028 36,000 219 430 0
2019-04-17 08:57:41 GMT 51.902847 5.102768 36,000 219 430 0
2019-04-17 08:57:38 GMT 51.908306 5.109663 36,000 219 429 0
2019-04-17 08:57:35 GMT 51.913891 5.116804 36,000 219 429 0
2019-04-17 08:57:31 GMT 51.919052 5.123367 36,000 219 428 0
2019-04-17 08:57:28 GMT 51.924042 5.129700 36,000 219 428 0
2019-04-17 08:57:25 GMT 51.927902 5.134617 36,000 219 428 0
2019-04-17 08:57:22 GMT 51.932560 5.140581 36,000 219 428 0
2019-04-17 08:57:19 GMT 51.937214 5.146467 36,000 219 428 0
2019-04-17 08:57:15 GMT 51.944504 5.155792 36,000 219 428 0
2019-04-17 08:57:12 GMT 51.949039 5.161534 36,000 219 427 0
2019-04-17 08:57:09 GMT 51.956955 5.171585 36,000 219 427 0
2019-04-17 08:57:03 GMT 51.963135 5.179443 36,000 219 427 64
2019-04-17 08:57:00 GMT 51.966404 5.183585 36,000 219 427 64
2019-04-17 08:56:57 GMT 51.970871 5.189285 36,000 219 427 64
2019-04-17 08:56:54 GMT 51.976318 5.196219 36,000 219 426 0
2019-04-17 08:56:51 GMT 51.980972 5.202105 36,000 219 425 0
2019-04-17 08:56:48 GMT 51.984833 5.207062 36,000 219 426 -64
2019-04-17 08:56:45 GMT 51.989777 5.213394 36,000 219 426 0
2019-04-17 08:56:42 GMT 51.996616 5.222116 36,000 219 425 0
2019-04-17 08:56:39 GMT 51.998898 5.225019 36,000 219 426 0
2019-04-17 08:56:36 GMT 52.004482 5.232160 36,000 219 426 0
2019-04-17 08:56:32 GMT 52.009872 5.239029 36,000 219 426 0
2019-04-17 08:56:29 GMT 52.020821 5.253034 36,000 219 425 0
2019-04-17 08:56:26 GMT 52.020821 5.253034 36,000 219 425 0
2019-04-17 08:56:23 GMT 52.025299 5.258789 36,000 219 425 0
2019-04-17 08:56:20 GMT 52.029758 5.264491 36,000 219 424 0
2019-04-17 08:56:17 GMT 52.038094 5.275164 36,000 219 425 0
2019-04-17 08:56:14 GMT 52.038094 5.275164 36,000 219 425 0
2019-04-17 08:56:11 GMT 52.042423 5.280736 36,000 219 425 0
2019-04-17 08:56:08 GMT 52.047962 5.287798 36,000 219 425 0
2019-04-17 08:56:05 GMT 52.052570 5.293762 36,000 219 424 0
2019-04-17 08:56:02 GMT 52.056248 5.298471 36,000 219 424 0
2019-04-17 08:55:59 GMT 52.062881 5.306931 36,000 219 424 0
2019-04-17 08:55:55 GMT 52.067932 5.313459 36,000 219 424 0
2019-04-17 08:55:52 GMT 52.073475 5.320600 36,000 219 424 0
2019-04-17 08:55:49 GMT 52.078362 5.326957 36,000 219 424 0
2019-04-17 08:55:46 GMT 52.080688 5.329895 36,000 219 424 0
2019-04-17 08:55:43 GMT 52.084507 5.334804 36,000 219 424 0
2019-04-17 08:55:40 GMT 52.092041 5.344467 36,000 219 424 0
2019-04-17 08:55:37 GMT 52.095261 5.348615 36,000 219 424 0
2019-04-17 08:55:33 GMT 52.107101 5.363770 36,000 219 424 0
2019-04-17 08:55:30 GMT 52.107101 5.363770 36,000 219 424 0
2019-04-17 08:55:27 GMT 52.110168 5.367737 36,000 219 423 0
2019-04-17 08:55:24 GMT 52.114624 5.373413 36,000 219 423 0
2019-04-17 08:55:21 GMT 52.125656 5.387695 36,000 219 423 0
2019-04-17 08:55:18 GMT 52.125656 5.387695 36,000 219 423 0
2019-04-17 08:55:15 GMT 52.129940 5.393188 36,000 219 423 0
2019-04-17 08:55:12 GMT 52.132969 5.397191 36,000 219 423 0
2019-04-17 08:55:09 GMT 52.138641 5.404510 36,000 219 423 0
2019-04-17 08:55:05 GMT 52.144001 5.411394 36,000 219 423 0
2019-04-17 08:55:02 GMT 52.147633 5.416181 36,000 219 423 0
2019-04-17 08:54:59 GMT 52.158337 5.430071 36,000 219 423 0
2019-04-17 08:54:56 GMT 52.158337 5.430071 36,000 219 423 0
2019-04-17 08:54:53 GMT 52.162899 5.435957 36,000 219 423 0
2019-04-17 08:54:50 GMT 52.166702 5.440979 36,000 219 423 0
2019-04-17 08:54:47 GMT 52.171417 5.447100 36,000 219 422 0
2019-04-17 08:54:44 GMT 52.176178 5.453262 36,000 219 422 0
2019-04-17 08:54:41 GMT 52.181946 5.460739 36,000 219 422 0
2019-04-17 08:54:38 GMT 52.185608 5.465546 36,000 219 423 0
2019-04-17 08:54:35 GMT 52.188828 5.469700 36,000 219 423 0
2019-04-17 08:54:32 GMT 52.193848 5.476227 36,000 219 423 0
2019-04-17 08:54:29 GMT 52.198425 5.482178 36,000 219 422 0
2019-04-17 08:54:26 GMT 52.204376 5.489868 36,000 219 422 0
2019-04-17 08:54:23 GMT 52.209686 5.496826 36,000 219 422 0
2019-04-17 08:54:20 GMT 52.211838 5.499649 36,000 219 422 0
2019-04-17 08:54:17 GMT 52.217926 5.507507 36,000 219 423 0
2019-04-17 08:54:13 GMT 52.222069 5.512861 36,000 219 422 0
2019-04-17 08:54:10 GMT 52.228165 5.520787 36,000 219 422 0
2019-04-17 08:54:07 GMT 52.231979 5.525742 36,000 219 422 0
2019-04-17 08:54:04 GMT 52.236732 5.531852 36,000 219 422 0
2019-04-17 08:54:01 GMT 52.241898 5.538600 36,000 219 421 0
2019-04-17 08:53:58 GMT 52.246181 5.544094 36,000 219 421 0
2019-04-17 08:53:55 GMT 52.251022 5.550450 36,000 219 422 0
2019-04-17 08:53:52 GMT 52.256973 5.558167 36,000 219 423 0
2019-04-17 08:53:49 GMT 52.260956 5.563354 36,000 219 422 0
2019-04-17 08:53:45 GMT 52.266403 5.570526 36,000 219 422 0
2019-04-17 08:53:42 GMT 52.272812 5.578842 36,000 219 422 0
2019-04-17 08:53:39 GMT 52.275833 5.582809 36,000 219 422 0
2019-04-17 08:53:35 GMT 52.281921 5.590744 36,000 219 422 0
2019-04-17 08:53:32 GMT 52.285751 5.595729 36,000 219 422 0
2019-04-17 08:53:29 GMT 52.290756 5.602264 36,000 219 422 0
2019-04-17 08:53:26 GMT 52.300976 5.615583 36,000 219 423 0
2019-04-17 08:53:23 GMT 52.300976 5.615583 36,000 219 422 0
2019-04-17 08:53:20 GMT 52.305256 5.621155 36,000 219 422 0
2019-04-17 08:53:17 GMT 52.308151 5.624847 36,000 219 422 0
2019-04-17 08:53:14 GMT 52.313496 5.631827 36,000 219 423 0
2019-04-17 08:53:11 GMT 52.317780 5.637399 36,000 219 422 0
2019-04-17 08:53:08 GMT 52.323395 5.644684 36,000 219 423 0
2019-04-17 08:53:04 GMT 52.329651 5.652858 36,000 219 423 0
2019-04-17 08:53:01 GMT 52.332550 5.656586 36,000 219 423 0
2019-04-17 08:52:58 GMT 52.338539 5.664394 36,000 219 423 0
2019-04-17 08:52:55 GMT 52.343262 5.670547 36,000 219 423 0
2019-04-17 08:52:52 GMT 52.346920 5.675302 36,000 219 422 0
2019-04-17 08:52:49 GMT 52.350311 5.679626 36,025 219 422 0
2019-04-17 08:52:46 GMT 52.356720 5.688019 36,000 219 424 0
2019-04-17 08:52:43 GMT 52.360703 5.693130 36,025 219 422 0
2019-04-17 08:52:40 GMT 52.365280 5.699081 36,000 219 423 0
2019-04-17 08:52:37 GMT 52.369080 5.704102 36,000 219 423 0
2019-04-17 08:52:34 GMT 52.375992 5.713043 36,000 219 423 0
2019-04-17 08:52:31 GMT 52.378857 5.716814 36,000 219 423 0
2019-04-17 08:52:27 GMT 52.385147 5.724945 36,000 219 424 0
2019-04-17 08:52:24 GMT 52.389565 5.730783 36,000 219 423 0
2019-04-17 08:52:21 GMT 52.394451 5.737139 36,000 219 423 0
2019-04-17 08:52:17 GMT 52.399944 5.744359 36,000 219 424 0
2019-04-17 08:52:14 GMT 52.404968 5.750961 36,000 219 423 0
2019-04-17 08:52:11 GMT 52.409813 5.757385 36,000 219 424 0
2019-04-17 08:52:08 GMT 52.414078 5.762939 36,000 219 424 0
2019-04-17 08:52:05 GMT 52.418518 5.768764 36,000 219 424 0
2019-04-17 08:52:02 GMT 52.428898 5.782340 36,000 219 424 0
2019-04-17 08:51:59 GMT 52.428898 5.782340 36,000 219 424 0
2019-04-17 08:51:56 GMT 52.431793 5.786209 36,000 219 424 0
2019-04-17 08:51:53 GMT 52.437744 5.793954 36,000 219 424 0
2019-04-17 08:51:50 GMT 52.440819 5.797956 36,000 219 424 0
2019-04-17 08:51:47 GMT 52.445377 5.803999 36,000 219 424 0
2019-04-17 08:51:44 GMT 52.450745 5.811005 36,000 219 424 0
2019-04-17 08:51:41 GMT 52.454876 5.816476 36,000 219 424 0
2019-04-17 08:51:38 GMT 52.460220 5.823517 36,000 219 424 0
2019-04-17 08:51:35 GMT 52.464798 5.829544 36,000 219 426 0
2019-04-17 08:51:32 GMT 52.473824 5.841352 36,000 219 425 0
2019-04-17 08:51:26 GMT 52.477936 5.846786 36,000 219 426 0
2019-04-17 08:51:22 GMT 52.489609 5.862122 36,000 219 426 0
2019-04-17 08:51:19 GMT 52.489609 5.862122 36,000 219 426 0
2019-04-17 08:51:16 GMT 52.497849 5.873032 36,000 219 426 0
2019-04-17 08:51:13 GMT 52.497849 5.873032 36,000 219 426 0
2019-04-17 08:51:10 GMT 52.503067 5.879898 36,000 219 426 0
2019-04-17 08:51:07 GMT 52.506920 5.884905 36,000 219 426 0
2019-04-17 08:51:04 GMT 52.512909 5.892792 36,000 219 426 0
2019-04-17 08:51:01 GMT 52.516571 5.897675 36,000 219 430 0
2019-04-17 08:50:58 GMT 52.522560 5.905544 36,000 219 426 0
2019-04-17 08:50:55 GMT 52.525635 5.909624 36,000 219 427 0
2019-04-17 08:50:52 GMT 52.530197 5.915667 36,000 219 427 0
2019-04-17 08:50:49 GMT 52.534527 5.921395 36,000 219 430 0
2019-04-17 08:50:46 GMT 52.545731 5.936203 36,000 219 428 0
2019-04-17 08:50:43 GMT 52.545731 5.936203 36,000 219 428 0
2019-04-17 08:50:40 GMT 52.550167 5.942113 36,000 219 428 0
2019-04-17 08:50:37 GMT 52.557083 5.951233 36,000 219 428 -64
2019-04-17 08:50:31 GMT 52.561386 5.956955 36,025 219 428 0
2019-04-17 08:50:28 GMT 52.567520 5.965118 36,000 219 428 0
2019-04-17 08:50:25 GMT 52.572144 5.971222 36,025 219 429 0
2019-04-17 08:50:22 GMT 52.575531 5.975723 36,000 219 428 0
2019-04-17 08:50:19 GMT 52.580154 5.981827 36,000 219 428 0
2019-04-17 08:50:16 GMT 52.584896 5.988098 36,000 219 429 0
2019-04-17 08:50:13 GMT 52.590271 5.995255 36,000 219 430 0
2019-04-17 08:50:10 GMT 52.595695 6.002380 36,000 219 429 0
2019-04-17 08:50:07 GMT 52.604782 6.014481 36,000 219 429 0
2019-04-17 08:50:04 GMT 52.604782 6.014481 36,000 219 430 0
2019-04-17 08:50:01 GMT 52.608444 6.019363 36,000 219 429 0
2019-04-17 08:49:58 GMT 52.614456 6.027335 36,000 219 429 0
2019-04-17 08:49:54 GMT 52.618179 6.032279 36,000 219 430 0
2019-04-17 08:49:51 GMT 52.624977 6.041303 36,000 219 430 0
2019-04-17 08:49:48 GMT 52.630192 6.048288 36,000 219 430 0
2019-04-17 08:49:45 GMT 52.633308 6.052368 36,000 219 432 0
2019-04-17 08:49:42 GMT 52.638851 6.059745 36,000 219 430 0
2019-04-17 08:49:39 GMT 52.644112 6.066729 36,000 219 432 0
2019-04-17 08:49:36 GMT 52.647354 6.071091 36,000 219 430 0
2019-04-17 08:49:33 GMT 52.650742 6.075592 36,000 219 430 0
2019-04-17 08:49:30 GMT 52.656326 6.082993 36,000 219 430 0
2019-04-17 08:49:27 GMT 52.660950 6.089172 36,000 219 430 0
2019-04-17 08:49:24 GMT 52.666363 6.096392 36,000 219 430 0
2019-04-17 08:49:21 GMT 52.670242 6.101532 36,000 219 430 0
2019-04-17 08:49:18 GMT 52.675507 6.108551 36,000 219 430 0
2019-04-17 08:49:15 GMT 52.679352 6.113656 36,000 219 430 0
2019-04-17 08:49:12 GMT 52.683838 6.119614 36,000 219 432 0
2019-04-17 08:49:09 GMT 52.695007 6.134491 36,000 219 432 0
2019-04-17 08:49:06 GMT 52.695007 6.134491 36,000 219 432 0
2019-04-17 08:49:02 GMT 52.699833 6.140887 36,000 219 431 0
2019-04-17 08:48:58 GMT 52.706177 6.149368 36,000 219 432 0
2019-04-17 08:48:55 GMT 52.710526 6.155090 36,000 219 432 0
2019-04-17 08:48:52 GMT 52.717346 6.164169 36,000 219 432 0
2019-04-17 08:48:49 GMT 52.721100 6.169128 36,000 220 433 0
2019-04-17 08:48:46 GMT 52.724972 6.174238 36,000 219 432 0
2019-04-17 08:48:43 GMT 52.729202 6.179810 36,000 219 432 0
2019-04-17 08:48:40 GMT 52.734329 6.186558 36,000 219 432 0
2019-04-17 08:48:37 GMT 52.743080 6.198094 36,000 219 432 0
2019-04-17 08:48:34 GMT 52.743080 6.198094 36,000 219 432 0
2019-04-17 08:48:30 GMT 52.749435 6.206512 36,000 220 433 0
2019-04-17 08:48:27 GMT 52.755707 6.214676 36,000 219 432 0
2019-04-17 08:48:24 GMT 52.758820 6.218796 36,000 219 432 0
2019-04-17 08:48:21 GMT 52.763191 6.224618 36,000 219 432 0
2019-04-17 08:48:18 GMT 52.768356 6.231367 36,000 219 433 0
2019-04-17 08:48:15 GMT 52.772873 6.237335 36,000 220 433 0
2019-04-17 08:48:12 GMT 52.777714 6.243687 36,000 220 433 0
2019-04-17 08:48:09 GMT 52.781616 6.248856 36,000 219 433 0
2019-04-17 08:48:06 GMT 52.788162 6.257553 36,000 220 433 0
2019-04-17 08:48:02 GMT 52.793427 6.264572 36,000 220 432 0
2019-04-17 08:47:59 GMT 52.797455 6.269989 36,000 220 433 0
2019-04-17 08:47:56 GMT 52.806904 6.282767 36,000 220 433 0
2019-04-17 08:47:53 GMT 52.806904 6.282767 36,000 221 433 0
2019-04-17 08:47:49 GMT 52.813522 6.291885 36,000 221 434 0
2019-04-17 08:47:46 GMT 52.817936 6.298070 36,000 221 433 0
2019-04-17 08:47:43 GMT 52.823708 6.306309 36,000 222 434 0
2019-04-17 08:47:40 GMT 52.827015 6.311018 36,000 221 434 0
2019-04-17 08:47:36 GMT 52.832336 6.318588 36,000 221 433 0
2019-04-17 08:47:33 GMT 52.837463 6.325989 36,000 221 433 0
2019-04-17 08:47:30 GMT 52.841995 6.332474 36,000 221 434 0
2019-04-17 08:47:27 GMT 52.846573 6.338959 36,000 221 434 0
2019-04-17 08:47:24 GMT 52.851219 6.345703 36,000 221 434 0
2019-04-17 08:47:21 GMT 52.855316 6.351547 36,000 221 434 0
2019-04-17 08:47:18 GMT 52.859695 6.357867 36,000 221 434 0
2019-04-17 08:47:15 GMT 52.864258 6.364301 36,000 221 433 0
2019-04-17 08:47:12 GMT 52.870308 6.373012 36,000 221 434 0
2019-04-17 08:47:08 GMT 52.874218 6.378662 36,000 221 434 0
2019-04-17 08:47:05 GMT 52.879990 6.386902 36,000 221 434 0
2019-04-17 08:47:02 GMT 52.884228 6.393023 36,000 221 434 0
2019-04-17 08:46:59 GMT 52.888916 6.399765 36,000 221 434 64
2019-04-17 08:46:56 GMT 52.893631 6.406442 36,000 221 435 0
2019-04-17 08:46:53 GMT 52.899857 6.415405 36,000 221 434 0
2019-04-17 08:46:50 GMT 52.902283 6.418839 36,000 222 434 0
2019-04-17 08:46:47 GMT 52.907410 6.426239 36,000 221 434 64
2019-04-17 08:46:44 GMT 52.911987 6.432724 36,000 221 434 64
2019-04-17 08:46:41 GMT 52.916840 6.439667 36,000 221 434 0
2019-04-17 08:46:38 GMT 52.921234 6.445993 36,000 222 435 0
2019-04-17 08:46:35 GMT 52.925583 6.452332 36,000 222 435 0
2019-04-17 08:46:32 GMT 52.929989 6.458627 36,000 222 435 0
2019-04-17 08:46:29 GMT 52.934551 6.465140 36,000 222 435 0
2019-04-17 08:46:25 GMT 52.939545 6.472397 36,000 222 435 0
2019-04-17 08:46:22 GMT 52.946606 6.482640 36,000 222 435 0
2019-04-17 08:46:19 GMT 52.949635 6.487034 36,025 222 435 0
2019-04-17 08:46:15 GMT 52.956894 6.497471 36,025 222 435 0
2019-04-17 08:46:12 GMT 52.961456 6.504063 36,000 222 435 0
2019-04-17 08:46:09 GMT 52.964481 6.508458 36,000 222 435 0
2019-04-17 08:46:06 GMT 52.969883 6.516305 36,000 222 435 0
2019-04-17 08:46:03 GMT 52.973694 6.521759 36,000 222 435 0
2019-04-17 08:46:00 GMT 52.978401 6.528547 36,000 222 435 0
2019-04-17 08:45:56 GMT 52.984268 6.537094 36,000 222 435 0
2019-04-17 08:45:53 GMT 52.993530 6.550363 36,000 222 435 0
2019-04-17 08:45:47 GMT 52.997910 6.556702 36,000 222 435 0
2019-04-17 08:45:44 GMT 53.002281 6.563075 36,000 222 435 0
2019-04-17 08:45:41 GMT 53.008057 6.571394 36,025 222 435 0
2019-04-17 08:45:38 GMT 53.012421 6.577682 36,000 222 435 0
2019-04-17 08:45:35 GMT 53.016201 6.583165 36,000 222 435 0
2019-04-17 08:45:32 GMT 53.020763 6.589757 36,000 222 435 0
2019-04-17 08:45:29 GMT 53.026211 6.597604 36,000 222 435 0
2019-04-17 08:45:26 GMT 53.030727 6.604196 36,000 222 435 0
2019-04-17 08:45:23 GMT 53.033798 6.608590 36,000 222 435 0
2019-04-17 08:45:20 GMT 53.039703 6.617126 36,000 222 435 0
2019-04-17 08:45:17 GMT 53.042725 6.621475 36,000 222 435 0
2019-04-17 08:45:14 GMT 53.047256 6.628036 36,000 222 435 0
2019-04-17 08:45:11 GMT 53.052429 6.635513 36,000 222 435 0
2019-04-17 08:45:08 GMT 53.058472 6.644287 36,000 222 435 0
2019-04-17 08:45:04 GMT 53.062408 6.650009 36,000 222 435 0
2019-04-17 08:45:01 GMT 53.067856 6.657867 36,000 222 435 -64
2019-04-17 08:44:58 GMT 53.072250 6.664228 36,000 222 435 0
2019-04-17 08:44:54 GMT 53.077698 6.672154 36,000 222 435 -64
2019-04-17 08:44:51 GMT 53.083603 6.680756 36,000 222 435 0
2019-04-17 08:44:48 GMT 53.086624 6.685181 36,000 222 435 0
2019-04-17 08:44:45 GMT 53.092667 6.693954 36,000 222 435 0
2019-04-17 08:44:42 GMT 53.095852 6.698590 36,000 222 435 0
2019-04-17 08:44:38 GMT 53.103722 6.709981 36,000 222 435 0
2019-04-17 08:44:35 GMT 53.106857 6.714608 36,000 222 435 0
2019-04-17 08:44:32 GMT 53.117920 6.730661 36,000 222 435 0
2019-04-17 08:44:28 GMT 53.117920 6.730661 36,000 222 435 0
2019-04-17 08:44:25 GMT 53.122154 6.736800 36,000 222 435 0
2019-04-17 08:44:22 GMT 53.125351 6.741446 36,000 222 435 0
2019-04-17 08:44:19 GMT 53.130020 6.748271 36,000 222 435 0
2019-04-17 08:44:16 GMT 53.135143 6.755784 36,000 222 435 0
2019-04-17 08:44:13 GMT 53.139706 6.762408 36,000 222 435 0
2019-04-17 08:44:10 GMT 53.145264 6.770560 36,000 222 435 0
2019-04-17 08:44:06 GMT 53.150711 6.778486 36,000 222 435 0
2019-04-17 08:44:03 GMT 53.155067 6.784865 36,000 222 435 0
2019-04-17 08:43:59 GMT 53.160965 6.793474 36,000 222 435 0
2019-04-17 08:43:56 GMT 53.167603 6.803205 36,000 222 435 0
2019-04-17 08:43:53 GMT 53.170944 6.807992 36,000 222 435 0
2019-04-17 08:43:50 GMT 53.175922 6.815320 36,000 222 435 0
2019-04-17 08:43:47 GMT 53.179092 6.819920 36,000 222 435 0
2019-04-17 08:43:43 GMT 53.185730 6.829651 36,000 222 435 0
2019-04-17 08:43:40 GMT 53.190399 6.836485 36,000 222 435 0
2019-04-17 08:43:37 GMT 53.195068 6.843384 36,000 222 435 0
2019-04-17 08:43:33 GMT 53.200470 6.851310 36,000 222 435 0
2019-04-17 08:43:30 GMT 53.205597 6.858843 36,000 222 435 0
2019-04-17 08:43:26 GMT 53.212234 6.868495 36,000 222 435 0
2019-04-17 08:43:23 GMT 53.216331 6.874452 36,000 222 435 0
2019-04-17 08:43:20 GMT 53.219467 6.879168 36,000 222 435 0
2019-04-17 08:43:17 GMT 53.223824 6.885520 36,000 222 435 0
2019-04-17 08:43:14 GMT 53.229126 6.893293 36,000 222 435 0
2019-04-17 08:43:11 GMT 53.233337 6.899493 36,000 222 435 0
2019-04-17 08:43:08 GMT 53.239513 6.908542 36,000 222 435 0
2019-04-17 08:43:05 GMT 53.242722 6.913147 36,000 222 435 0
2019-04-17 08:43:02 GMT 53.248444 6.921544 36,000 222 435 0
2019-04-17 08:42:59 GMT 53.253105 6.928415 36,000 222 434 0
2019-04-17 08:42:56 GMT 53.257343 6.934554 36,000 222 435 0
2019-04-17 08:42:53 GMT 53.261860 6.941178 36,000 222 435 0
2019-04-17 08:42:47 GMT 53.269867 6.952933 36,000 222 434 0
2019-04-17 08:42:44 GMT 53.274521 6.959758 36,000 222 434 0
2019-04-17 08:42:41 GMT 53.279800 6.967529 36,000 222 434 0
2019-04-17 08:42:38 GMT 53.282948 6.972198 36,000 222 434 0
2019-04-17 08:42:35 GMT 53.288952 6.981084 36,000 222 434 0
2019-04-17 08:42:32 GMT 53.293747 6.988193 36,000 222 434 0
2019-04-17 08:42:29 GMT 53.295887 6.991263 36,000 222 434 0
2019-04-17 08:42:26 GMT 53.301132 6.999076 36,000 222 434 0
2019-04-17 08:42:23 GMT 53.307129 7.007943 36,000 222 434 0
2019-04-17 08:42:20 GMT 53.311615 7.014614 36,000 222 434 0
2019-04-17 08:42:17 GMT 53.315826 7.020813 36,000 222 434 0
2019-04-17 08:42:14 GMT 53.320038 7.027012 36,000 222 434 0
2019-04-17 08:42:11 GMT 53.323494 7.032058 36,000 222 434 0
2019-04-17 08:42:08 GMT 53.328781 7.039804 36,000 222 434 0
2019-04-17 08:42:04 GMT 53.335098 7.049142 36,000 222 434 0
2019-04-17 08:42:00 GMT 53.340065 7.056454 36,000 222 434 0
2019-04-17 08:41:57 GMT 53.345188 7.063967 36,000 222 434 0
2019-04-17 08:41:53 GMT 53.351795 7.073741 36,000 222 434 0
2019-04-17 08:41:50 GMT 53.356750 7.081081 36,000 222 434 0
2019-04-17 08:41:47 GMT 53.359726 7.085475 36,000 222 434 0
2019-04-17 08:41:42 GMT 53.371258 7.102580 36,000 222 434 0
2019-04-17 08:41:36 GMT 53.376377 7.110174 36,000 222 434 0
2019-04-17 08:41:31 GMT 53.385689 7.123907 36,000 222 434 0
2019-04-17 08:41:28 GMT 53.390156 7.130612 36,000 222 434 0
2019-04-17 08:41:25 GMT 53.391972 7.133277 36,000 228 432 0
2019-04-17 08:41:21 GMT 53.399277 7.144174 36,000 222 433 0
2019-04-17 08:41:18 GMT 53.403214 7.149902 36,000 222 433 0
2019-04-17 08:41:15 GMT 53.406914 7.155492 36,000 222 434 0
2019-04-17 08:41:09 GMT 53.421577 7.177304 36,000 222 434 0
2019-04-17 08:41:06 GMT 53.421577 7.177304 36,000 228 432 0
2019-04-17 08:41:03 GMT 53.426048 7.184008 36,000 222 434 0
2019-04-17 08:40:58 GMT 53.434429 7.196530 36,000 222 434 0
2019-04-17 08:40:55 GMT 53.439503 7.204042 36,000 222 434 0
2019-04-17 08:40:52 GMT 53.443817 7.210563 36,000 222 433 0
2019-04-17 08:40:49 GMT 53.447880 7.216564 36,000 222 434 0
2019-04-17 08:40:46 GMT 53.451324 7.221706 36,000 222 434 0
2019-04-17 08:40:43 GMT 53.456680 7.229710 36,000 222 434 0
2019-04-17 08:40:39 GMT 53.461941 7.237567 36,000 222 434 0
2019-04-17 08:40:35 GMT 53.468506 7.247341 36,000 222 434 0
2019-04-17 08:40:32 GMT 53.473297 7.254450 36,000 222 434 0
2019-04-17 08:40:28 GMT 53.480072 7.264474 36,000 222 434 0
2019-04-17 08:40:24 GMT 53.484425 7.270930 36,000 222 433 0
2019-04-17 08:40:19 GMT 53.496552 7.288879 36,000 222 434 0
2019-04-17 08:40:13 GMT 53.500298 7.294437 36,000 222 434 0
2019-04-17 08:40:10 GMT 53.505249 7.301749 36,000 222 434 0
2019-04-17 08:40:07 GMT 53.509781 7.308419 36,000 222 434 0
2019-04-17 08:40:03 GMT 53.517288 7.319484 36,000 222 434 0
2019-04-17 08:39:58 GMT 53.522964 7.327959 36,000 222 433 0
2019-04-17 08:39:55 GMT 53.532578 7.342163 36,000 222 433 0
2019-04-17 08:39:49 GMT 53.537109 7.348833 36,000 222 433 0
2019-04-17 08:39:46 GMT 53.541451 7.355266 36,000 222 433 0
2019-04-17 08:39:43 GMT 53.544571 7.359977 36,000 224 433 0
2019-04-17 08:39:40 GMT 53.549011 7.366725 36,000 226 433 0
2019-04-17 08:39:37 GMT 53.554951 7.376188 36,000 225 432 0
2019-04-17 08:39:34 GMT 53.558956 7.382893 36,000 227 432 0
2019-04-17 08:39:31 GMT 53.564301 7.392308 36,000 228 432 0
2019-04-17 08:39:28 GMT 53.567940 7.398969 36,000 228 432 0
2019-04-17 08:39:25 GMT 53.572403 7.407139 36,000 228 432 0
2019-04-17 08:39:22 GMT 53.576431 7.414594 36,000 228 432 0
2019-04-17 08:39:19 GMT 53.580185 7.421500 36,000 228 432 0
2019-04-17 08:39:16 GMT 53.584373 7.429181 36,000 228 432 0
2019-04-17 08:39:13 GMT 53.587189 7.434370 36,000 228 433 0
2019-04-17 08:39:10 GMT 53.592041 7.443316 36,000 228 432 0
2019-04-17 08:39:07 GMT 53.594849 7.448569 36,000 228 432 0
2019-04-17 08:39:04 GMT 53.600201 7.458505 36,000 228 433 0
2019-04-17 08:39:01 GMT 53.602901 7.463433 36,000 228 433 0
2019-04-17 08:38:58 GMT 53.606903 7.470945 36,000 228 433 0
2019-04-17 08:38:55 GMT 53.612255 7.480882 36,000 228 433 0
2019-04-17 08:38:52 GMT 53.615112 7.486084 36,000 228 433 0
2019-04-17 08:38:49 GMT 53.620468 7.496050 36,000 228 433 0
2019-04-17 08:38:46 GMT 53.624359 7.503258 36,000 228 433 0
2019-04-17 08:38:42 GMT 53.628754 7.511509 36,000 228 433 0
2019-04-17 08:38:38 GMT 53.635067 7.523211 36,000 228 433 0
2019-04-17 08:38:35 GMT 53.639236 7.530893 36,000 228 432 0
2019-04-17 08:38:32 GMT 53.641891 7.535915 36,000 228 432 0
2019-04-17 08:38:29 GMT 53.646053 7.543649 36,000 228 433 0
2019-04-17 08:38:26 GMT 53.651688 7.554070 36,000 228 432 0
2019-04-17 08:38:23 GMT 53.654388 7.559078 36,000 228 432 0
2019-04-17 08:38:20 GMT 53.658436 7.566510 36,000 228 432 0
2019-04-17 08:38:17 GMT 53.662582 7.574210 36,000 228 432 0
2019-04-17 08:38:14 GMT 53.667839 7.583959 36,000 228 433 0
2019-04-17 08:38:11 GMT 53.670540 7.588887 36,000 228 433 0
2019-04-17 08:38:08 GMT 53.674713 7.596654 36,000 228 433 0
2019-04-17 08:38:05 GMT 53.678741 7.604109 36,000 228 433 0
2019-04-17 08:38:02 GMT 53.683548 7.613055 36,000 228 432 0
2019-04-17 08:37:58 GMT 53.689346 7.623785 36,000 228 433 0
2019-04-17 08:37:54 GMT 53.693253 7.630947 36,000 228 433 0
2019-04-17 08:37:51 GMT 53.697281 7.638402 36,000 228 433 0
2019-04-17 08:37:48 GMT 53.702801 7.648585 36,000 228 433 0
2019-04-17 08:37:45 GMT 53.705502 7.653593 36,000 228 433 0
2019-04-17 08:37:41 GMT 53.710739 7.663278 36,000 228 433 0
2019-04-17 08:37:37 GMT 53.716644 7.674264 36,000 228 433 0
2019-04-17 08:37:34 GMT 53.720673 7.681798 36,000 228 433 0
2019-04-17 08:37:30 GMT 53.725101 7.690026 36,000 228 433 0
2019-04-17 08:37:27 GMT 53.729553 7.698277 36,000 228 433 64
2019-04-17 08:37:24 GMT 53.733536 7.705732 36,000 228 433 0
2019-04-17 08:37:21 GMT 53.738388 7.714678 36,000 228 433 0
2019-04-17 08:37:17 GMT 53.742966 7.723232 36,000 228 433 0
2019-04-17 08:37:14 GMT 53.746281 7.729447 36,000 228 433 0
2019-04-17 08:37:11 GMT 53.750843 7.737929 36,000 228 433 0
2019-04-17 08:37:08 GMT 53.760246 7.755459 36,000 228 433 0
2019-04-17 08:37:05 GMT 53.760246 7.755459 36,000 228 433 0
2019-04-17 08:37:02 GMT 53.764297 7.762891 36,000 229 434 0
2019-04-17 08:36:59 GMT 53.767639 7.769139 36,000 228 433 0
2019-04-17 08:36:56 GMT 53.771000 7.775412 36,000 228 433 0
2019-04-17 08:36:53 GMT 53.775005 7.782925 36,000 228 434 0
2019-04-17 08:36:50 GMT 53.779568 7.791407 36,000 228 433 0
2019-04-17 08:36:46 GMT 53.784687 7.800939 36,000 228 433 0
2019-04-17 08:36:42 GMT 53.790600 7.811926 36,000 228 434 0
2019-04-17 08:36:39 GMT 53.793812 7.817984 36,000 228 433 0
2019-04-17 08:36:36 GMT 53.798607 7.827032 36,000 228 433 0
2019-04-17 08:36:32 GMT 53.804005 7.837049 36,000 228 434 0
2019-04-17 08:36:29 GMT 53.807732 7.843996 36,000 228 433 0
2019-04-17 08:36:25 GMT 53.817764 7.862837 36,000 228 433 0
2019-04-17 08:36:22 GMT 53.817764 7.862837 36,000 228 433 64
2019-04-17 08:36:19 GMT 53.822342 7.871390 36,000 228 433 64
2019-04-17 08:36:16 GMT 53.825272 7.876883 36,000 228 433 0
2019-04-17 08:36:13 GMT 53.829025 7.883946 36,000 228 433 0
2019-04-17 08:36:09 GMT 53.834545 7.894242 36,000 229 434 0
2019-04-17 08:36:06 GMT 53.838547 7.901755 36,000 229 442 0
2019-04-17 08:36:00 GMT 53.846970 7.917611 36,000 229 435 0
2019-04-17 08:35:57 GMT 53.850327 7.923970 36,000 228 434 0
2019-04-17 08:35:54 GMT 53.854095 7.930998 36,000 229 434 0
2019-04-17 08:35:51 GMT 53.858612 7.939561 36,000 228 434 0
2019-04-17 08:35:47 GMT 53.863964 7.949659 36,000 228 434 0
2019-04-17 08:35:44 GMT 53.867455 7.956202 36,000 228 434 0
2019-04-17 08:35:39 GMT 53.874069 7.968462 36,000 228 434 0
2019-04-17 08:35:36 GMT 53.882355 7.984079 36,000 228 434 0
2019-04-17 08:35:33 GMT 53.886383 7.991690 36,000 229 434 0
2019-04-17 08:35:30 GMT 53.886383 7.991690 36,000 228 434 0
2019-04-17 08:35:26 GMT 53.891895 8.002005 36,000 228 434 0
2019-04-17 08:35:23 GMT 53.895813 8.009269 36,000 228 434 0
2019-04-17 08:35:20 GMT 53.899948 8.017111 36,000 229 442 0
2019-04-17 08:35:16 GMT 53.905472 8.027475 36,000 228 434 0
2019-04-17 08:35:13 GMT 53.908283 8.032783 36,000 229 434 0
2019-04-17 08:35:09 GMT 53.914856 8.045210 36,000 229 434 0
2019-04-17 08:35:06 GMT 53.918758 8.052575 36,000 229 434 0
2019-04-17 08:35:02 GMT 53.923141 8.060904 36,000 229 435 0
2019-04-17 08:34:58 GMT 53.929871 8.073539 36,000 229 435 0
2019-04-17 08:34:55 GMT 53.933746 8.080929 36,000 229 435 0
2019-04-17 08:34:52 GMT 53.941521 8.095631 36,025 229 435 0
2019-04-17 08:34:45 GMT 53.947155 8.106295 36,000 229 436 0
2019-04-17 08:34:41 GMT 53.952942 8.117170 36,000 229 440 0
2019-04-17 08:34:38 GMT 53.956970 8.124860 36,000 229 436 0
2019-04-17 08:34:34 GMT 53.961353 8.133195 36,000 229 436 0
2019-04-17 08:34:28 GMT 53.969128 8.148059 36,000 229 438 0
2019-04-17 08:34:25 GMT 53.973179 8.155733 36,000 229 437 0
2019-04-17 08:34:22 GMT 53.978020 8.164942 36,000 229 441 0
2019-04-17 08:34:18 GMT 53.983246 8.174927 36,000 229 438 0
2019-04-17 08:34:15 GMT 53.987274 8.182617 36,000 229 438 0
2019-04-17 08:34:12 GMT 53.990479 8.188817 36,000 229 439 0
2019-04-17 08:34:09 GMT 53.995197 8.197820 36,000 229 441 64
2019-04-17 08:34:06 GMT 53.998688 8.204525 36,000 229 440 0
2019-04-17 08:34:03 GMT 54.008286 8.222874 36,000 229 441 0
2019-04-17 08:33:56 GMT 54.013817 8.233445 36,000 229 442 0
2019-04-17 08:33:52 GMT 54.018147 8.241766 36,000 229 442 0
2019-04-17 08:33:49 GMT 54.021240 8.247672 36,000 229 442 0
2019-04-17 08:33:46 GMT 54.026806 8.258326 36,000 229 442 0
2019-04-17 08:33:43 GMT 54.035694 8.275452 36,000 229 442 0
2019-04-17 08:33:39 GMT 54.035694 8.275452 36,000 229 442 0
2019-04-17 08:33:36 GMT 54.039791 8.283287 36,025 229 442 0
2019-04-17 08:33:33 GMT 54.044495 8.292324 36,000 229 442 0
2019-04-17 08:33:29 GMT 54.050594 8.304048 36,025 229 442 0
2019-04-17 08:33:26 GMT 54.053467 8.309509 36,000 229 442 0
2019-04-17 08:33:23 GMT 54.061066 8.324027 36,000 229 443 0
2019-04-17 08:33:16 GMT 54.067841 8.337054 36,000 229 444 0
2019-04-17 08:33:12 GMT 54.073170 8.347186 36,000 229 443 0
2019-04-17 08:33:08 GMT 54.078735 8.357849 36,000 229 443 0
2019-04-17 08:33:02 GMT 54.085510 8.370797 36,000 229 443 0
2019-04-17 08:32:59 GMT 54.090302 8.379903 36,000 229 444 0
2019-04-17 08:32:56 GMT 54.093155 8.385393 36,000 229 444 0
2019-04-17 08:32:53 GMT 54.098728 8.396059 36,000 229 444 0
2019-04-17 08:32:49 GMT 54.103336 8.404945 36,000 229 444 0
2019-04-17 08:32:45 GMT 54.108673 8.415057 36,000 229 444 0
2019-04-17 08:32:42 GMT 54.113022 8.423453 36,000 229 444 0
2019-04-17 08:32:38 GMT 54.117645 8.432321 36,000 229 444 0
2019-04-17 08:32:34 GMT 54.125122 8.446628 36,000 229 443 0
2019-04-17 08:32:31 GMT 54.127033 8.450344 36,000 229 443 0
2019-04-17 08:32:28 GMT 54.132019 8.459943 36,000 229 443 0
2019-04-17 08:32:24 GMT 54.137466 8.470381 36,000 229 443 0
2019-04-17 08:32:20 GMT 54.142914 8.480896 36,000 229 444 0
2019-04-17 08:32:17 GMT 54.146988 8.488665 36,000 229 444 0
2019-04-17 08:32:14 GMT 54.151703 8.497844 36,000 229 444 0
2019-04-17 08:32:10 GMT 54.156872 8.507780 36,000 229 444 0
2019-04-17 08:32:07 GMT 54.160130 8.514081 36,000 229 444 0
2019-04-17 08:32:04 GMT 54.168182 8.529471 36,000 229 444 0
2019-04-17 08:31:58 GMT 54.172375 8.537589 36,000 229 444 0
2019-04-17 08:31:55 GMT 54.181080 8.554311 36,000 229 444 0
2019-04-17 08:31:52 GMT 54.181080 8.554311 36,000 229 444 0
2019-04-17 08:31:49 GMT 54.185028 8.561881 36,000 229 444 0
2019-04-17 08:31:46 GMT 54.190342 8.572083 36,000 229 444 0
2019-04-17 08:31:43 GMT 54.193043 8.577333 36,000 229 444 0
2019-04-17 08:31:40 GMT 54.197418 8.585735 36,000 229 444 0
2019-04-17 08:31:37 GMT 54.200676 8.591955 36,000 229 444 0
2019-04-17 08:31:33 GMT 54.205948 8.602216 36,000 229 444 0
2019-04-17 08:31:30 GMT 54.210964 8.611908 36,000 229 444 0
2019-04-17 08:31:27 GMT 54.214920 8.619481 36,000 229 444 0
2019-04-17 08:31:24 GMT 54.219543 8.628427 36,000 229 444 0
2019-04-17 08:31:21 GMT 54.223892 8.636823 36,000 229 444 0
2019-04-17 08:31:18 GMT 54.227028 8.642847 36,000 229 444 0
2019-04-17 08:31:14 GMT 54.233139 8.654637 36,000 229 444 0
2019-04-17 08:31:08 GMT 54.241837 8.671430 36,000 229 444 0
2019-04-17 08:31:04 GMT 54.246017 8.679603 36,000 229 444 0
2019-04-17 08:31:01 GMT 54.249279 8.685904 36,000 229 444 0
2019-04-17 08:30:58 GMT 54.254562 8.696150 36,000 229 444 0
2019-04-17 08:30:55 GMT 54.257309 8.701407 36,000 229 444 0
2019-04-17 08:30:52 GMT 54.262161 8.710824 36,000 229 444 0
2019-04-17 08:30:49 GMT 54.266644 8.719509 36,000 229 444 -64
2019-04-17 08:30:46 GMT 54.275860 8.737443 36,000 229 444 0
2019-04-17 08:30:42 GMT 54.275860 8.737443 36,000 229 444 0
2019-04-17 08:30:39 GMT 54.279785 8.745036 36,000 229 444 0
2019-04-17 08:30:36 GMT 54.283859 8.752953 36,000 229 444 0
2019-04-17 08:30:30 GMT 54.291733 8.768140 36,000 229 444 0
2019-04-17 08:30:27 GMT 54.296204 8.776828 36,000 229 444 0
2019-04-17 08:30:24 GMT 54.299561 8.783408 36,000 229 444 0
2019-04-17 08:30:21 GMT 54.304581 8.793141 36,000 229 444 0
2019-04-17 08:30:17 GMT 54.309311 8.802392 36,000 229 444 0
2019-04-17 08:30:14 GMT 54.313339 8.810308 36,000 229 444 0
2019-04-17 08:30:11 GMT 54.323364 8.829777 36,000 229 444 0
2019-04-17 08:30:07 GMT 54.323364 8.829777 36,000 229 444 0
2019-04-17 08:30:04 GMT 54.326973 8.836920 36,000 229 444 0
2019-04-17 08:30:01 GMT 54.331863 8.846408 36,000 229 444 0
2019-04-17 08:29:58 GMT 54.335354 8.853233 36,000 229 444 0
2019-04-17 08:29:52 GMT 54.343452 8.869046 36,000 229 443 0
2019-04-17 08:29:48 GMT 54.349922 8.881697 36,000 229 443 0
2019-04-17 08:29:44 GMT 54.355728 8.893029 36,000 229 442 0
2019-04-17 08:29:40 GMT 54.360580 8.902561 36,000 229 443 0
2019-04-17 08:29:37 GMT 54.363281 8.907812 36,000 229 443 0
2019-04-17 08:29:34 GMT 54.367859 8.916779 36,000 229 443 0
2019-04-17 08:29:31 GMT 54.372547 8.926059 36,000 229 442 0
2019-04-17 08:29:28 GMT 54.376465 8.933662 36,000 230 443 0
2019-04-17 08:29:25 GMT 54.380219 8.941094 36,000 229 442 0
2019-04-17 08:29:22 GMT 54.383022 8.946616 36,000 230 443 0
2019-04-17 08:29:19 GMT 54.388229 8.956927 36,000 229 442 0
2019-04-17 08:29:16 GMT 54.392658 8.965676 36,000 229 442 0
2019-04-17 08:29:13 GMT 54.396149 8.972584 36,000 229 442 0
2019-04-17 08:29:10 GMT 54.399921 8.979908 36,000 229 442 0
2019-04-17 08:29:07 GMT 54.404205 8.988398 36,000 229 442 0
2019-04-17 08:29:04 GMT 54.407696 8.995223 36,000 229 442 0
2019-04-17 08:29:01 GMT 54.411850 9.003457 36,000 230 442 0
2019-04-17 08:28:58 GMT 54.416153 9.011940 36,000 230 442 0
2019-04-17 08:28:55 GMT 54.420033 9.019526 36,000 230 442 0
2019-04-17 08:28:52 GMT 54.424988 9.029308 36,000 230 442 0
2019-04-17 08:28:49 GMT 54.429668 9.038585 36,000 230 442 0
2019-04-17 08:28:46 GMT 54.431900 9.043121 36,000 230 442 0
2019-04-17 08:28:43 GMT 54.435928 9.051038 36,000 230 442 0
2019-04-17 08:28:39 GMT 54.441284 9.061620 36,000 230 442 0
2019-04-17 08:28:36 GMT 54.445541 9.070022 36,000 230 442 0
2019-04-17 08:28:33 GMT 54.449966 9.078785 36,000 229 441 0
2019-04-17 08:28:30 GMT 54.452499 9.083755 36,000 229 441 0
2019-04-17 08:28:27 GMT 54.457626 9.093772 36,000 229 441 0
2019-04-17 08:28:24 GMT 54.461510 9.101424 36,000 229 441 0
2019-04-17 08:28:21 GMT 54.466187 9.110655 36,000 229 442 0
2019-04-17 08:28:17 GMT 54.471657 9.121482 36,000 229 441 0
2019-04-17 08:28:14 GMT 54.474747 9.127538 36,000 229 441 0
2019-04-17 08:28:11 GMT 54.479198 9.136214 36,000 229 441 0
2019-04-17 08:28:08 GMT 54.483078 9.143856 36,000 229 441 0
2019-04-17 08:28:05 GMT 54.491135 9.159609 36,000 229 441 0
2019-04-17 08:28:02 GMT 54.491135 9.159609 36,000 229 441 0
2019-04-17 08:27:59 GMT 54.495258 9.167841 36,000 229 441 0
2019-04-17 08:27:56 GMT 54.503174 9.183359 36,000 251 440 960
2019-04-17 08:27:49 GMT 54.507751 9.192245 36,000 229 441 0
2019-04-17 08:27:46 GMT 54.512718 9.202049 36,000 229 441 0
2019-04-17 08:27:43 GMT 54.517792 9.212036 36,000 229 441 0
2019-04-17 08:27:39 GMT 54.522217 9.220680 36,000 229 440 0
2019-04-17 08:27:36 GMT 54.526634 9.229348 36,000 230 440 0
2019-04-17 08:27:33 GMT 54.530918 9.237837 36,000 230 440 0
2019-04-17 08:27:28 GMT 54.537296 9.250488 36,000 230 440 0
2019-04-17 08:27:24 GMT 54.547577 9.270845 36,000 230 440 0
2019-04-17 08:27:20 GMT 54.547577 9.270845 36,000 230 440 0
2019-04-17 08:27:16 GMT 54.552612 9.280862 36,000 230 440 0
2019-04-17 08:27:13 GMT 54.557693 9.290879 36,000 230 440 0
2019-04-17 08:27:07 GMT 54.564205 9.303839 36,000 230 440 0
2019-04-17 08:27:04 GMT 54.571884 9.319236 36,000 230 440 0
2019-04-17 08:26:55 GMT 54.579845 9.335050 36,000 229 440 0
2019-04-17 08:26:52 GMT 54.584244 9.343791 36,000 229 440 0
2019-04-17 08:26:49 GMT 54.587574 9.350364 36,000 229 440 0
2019-04-17 08:26:46 GMT 54.599026 9.373086 35,925 229 438 576
2019-04-17 08:26:41 GMT 54.599026 9.373086 36,025 229 439 -128
2019-04-17 08:26:38 GMT 54.602795 9.380410 36,025 229 438 448
2019-04-17 08:26:34 GMT 54.612488 9.399612 35,975 229 438 768
2019-04-17 08:26:31 GMT 54.612488 9.399612 35,825 230 438 832
2019-04-17 08:26:28 GMT 54.616470 9.407447 35,925 230 438 832
2019-04-17 08:26:24 GMT 54.621872 9.418757 35,875 232 437 832
2019-04-17 08:26:20 GMT 54.626259 9.428350 35,825 234 437 768
2019-04-17 08:26:15 GMT 54.631805 9.441537 35,725 239 436 832
2019-04-17 08:26:12 GMT 54.635754 9.451655 35,700 238 436 832
2019-04-17 08:26:09 GMT 54.638901 9.460117 35,675 240 437 832
2019-04-17 08:26:05 GMT 54.643890 9.474496 35,600 241 436 832
2019-04-17 08:26:02 GMT 54.646694 9.483282 35,550 243 437 896
2019-04-17 08:25:59 GMT 54.648602 9.489441 35,525 243 437 896
2019-04-17 08:25:56 GMT 54.652374 9.502508 35,500 244 437 896
2019-04-17 08:25:51 GMT 54.655975 9.516180 35,300 250 438 960
2019-04-17 08:25:48 GMT 54.657990 9.524500 35,275 249 438 960
2019-04-17 08:25:45 GMT 54.660461 9.535567 35,275 252 438 960
2019-04-17 08:25:42 GMT 54.664352 9.554632 35,200 252 438 960
2019-04-17 08:25:39 GMT 54.664352 9.554632 35,175 252 438 960
2019-04-17 08:25:36 GMT 54.665955 9.562548 35,150 252 439 960
2019-04-17 08:25:32 GMT 54.669273 9.579412 34,875 252 440 960
2019-04-17 08:25:29 GMT 54.671173 9.589045 35,000 252 440 960
2019-04-17 08:25:26 GMT 54.672729 9.597042 34,975 252 440 896
2019-04-17 08:25:23 GMT 54.675064 9.608998 34,900 252 440 832
2019-04-17 08:25:19 GMT 54.678040 9.624266 34,850 252 441 768
2019-04-17 08:25:16 GMT 54.679733 9.632909 34,800 252 441 768
2019-04-17 08:25:13 GMT 54.680958 9.639254 34,775 252 441 768
2019-04-17 08:25:10 GMT 54.684036 9.654882 34,300 251 441 704
2019-04-17 08:25:02 GMT 54.688545 9.677790 34,625 251 441 768
2019-04-17 08:24:59 GMT 54.691338 9.691689 34,575 251 441 704
2019-04-17 08:24:56 GMT 54.693054 9.700039 34,550 251 441 704
2019-04-17 08:24:53 GMT 54.694656 9.707956 34,500 252 440 896
2019-04-17 08:24:50 GMT 54.696739 9.718240 34,500 252 440 896
2019-04-17 08:24:47 GMT 54.698639 9.727909 34,425 251 441 768
2019-04-17 08:24:43 GMT 54.701954 9.744124 34,375 251 441 768
2019-04-17 08:24:40 GMT 54.702885 9.748785 34,125 251 441 768
2019-04-17 08:24:36 GMT 54.705956 9.764099 34,275 251 441 704
2019-04-17 08:24:33 GMT 54.707611 9.772339 34,275 251 440 704
2019-04-17 08:24:29 GMT 54.710678 9.787607 34,200 251 440 768
2019-04-17 08:24:26 GMT 54.713333 9.800855 34,125 251 440 768
2019-04-17 08:24:23 GMT 54.714523 9.806833 34,100 251 440 768
2019-04-17 08:24:19 GMT 54.717224 9.820162 34,050 251 440 832
2019-04-17 08:24:16 GMT 54.719879 9.833410 33,975 251 441 832
2019-04-17 08:24:13 GMT 54.721893 9.843346 33,950 251 440 960
2019-04-17 08:24:08 GMT 54.724251 9.854986 33,900 251 441 896
2019-04-17 08:24:05 GMT 54.727322 9.870217 33,850 251 441 832
2019-04-17 08:24:02 GMT 54.728714 9.877194 33,825 251 441 832
2019-04-17 08:23:58 GMT 54.731369 9.890523 33,625 251 441 896
2019-04-17 08:23:55 GMT 54.732971 9.898439 33,675 251 441 896
2019-04-17 08:23:52 GMT 54.738495 9.926064 33,450 251 441 832
2019-04-17 08:23:48 GMT 54.738495 9.926064 33,550 251 441 832
2019-04-17 08:23:45 GMT 54.739746 9.932368 33,525 251 441 832
2019-04-17 08:23:41 GMT 54.742451 9.946039 32,700 252 440 896
2019-04-17 08:23:38 GMT 54.744453 9.956027 33,375 252 440 896
2019-04-17 08:23:35 GMT 54.746548 9.966680 33,375 252 440 896
2019-04-17 08:23:32 GMT 54.748489 9.976313 33,325 252 440 832
2019-04-17 08:23:29 GMT 54.750458 9.986249 33,250 252 440 960
2019-04-17 08:23:26 GMT 54.752426 9.996266 33,225 252 440 960
2019-04-17 08:23:23 GMT 54.754944 10.008868 33,175 252 440 960
2019-04-17 08:23:20 GMT 54.756325 10.015869 33,125 252 440 960
2019-04-17 08:23:17 GMT 54.758419 10.026523 33,075 252 449 1472
2019-04-17 08:23:14 GMT 54.760300 10.036172 33,025 252 441 896
2019-04-17 08:23:11 GMT 54.761902 10.044170 32,350 252 441 960
2019-04-17 08:23:07 GMT 54.764843 10.059149 32,900 252 441 960
2019-04-17 08:23:04 GMT 54.767403 10.072465 32,850 252 441 1024
2019-04-17 08:23:01 GMT 54.771011 10.090862 32,775 252 441 1024
2019-04-17 08:22:58 GMT 54.771011 10.090862 32,750 252 441 1024
2019-04-17 08:22:53 GMT 54.776047 10.116873 32,625 252 440 1024
2019-04-17 08:22:47 GMT 54.777603 10.124871 32,350 252 440 1088
2019-04-17 08:22:44 GMT 54.779938 10.136907 32,475 252 440 1088
2019-04-17 08:22:41 GMT 54.782135 10.148217 32,450 252 440 1088
2019-04-17 08:22:37 GMT 54.784397 10.159940 32,375 252 441 1088
2019-04-17 08:22:33 GMT 54.786957 10.173257 32,275 252 441 1088
2019-04-17 08:22:30 GMT 54.789459 10.186346 32,225 252 441 1088
2019-04-17 08:22:27 GMT 54.790878 10.193697 32,175 252 441 1216
2019-04-17 08:22:24 GMT 54.792572 10.202421 32,125 252 441 1216
2019-04-17 08:22:21 GMT 54.796829 10.224475 32,000 252 442 1088
2019-04-17 08:22:18 GMT 54.798798 10.234492 31,975 252 442 1088
2019-04-17 08:22:15 GMT 54.798798 10.234492 31,925 252 442 1088
2019-04-17 08:22:12 GMT 54.800491 10.243216 31,875 252 442 1152
2019-04-17 08:22:09 GMT 54.802460 10.253233 31,825 252 442 1216
2019-04-17 08:22:05 GMT 54.805984 10.271328 31,700 252 443 1280
2019-04-17 08:22:02 GMT 54.807266 10.278033 31,650 252 443 1216
2019-04-17 08:21:58 GMT 54.809814 10.291193 31,550 252 443 1152
2019-04-17 08:21:55 GMT 54.811768 10.301264 31,500 252 443 1152
2019-04-17 08:21:49 GMT 54.815025 10.318076 31,400 252 443 1216
2019-04-17 08:21:46 GMT 54.817589 10.331476 31,325 252 443 1280
2019-04-17 08:21:41 GMT 54.821220 10.350370 31,225 252 443 1280
2019-04-17 08:21:38 GMT 54.823032 10.359775 31,100 252 444 1216
2019-04-17 08:21:35 GMT 54.824757 10.368514 31,100 252 444 1216
2019-04-17 08:21:31 GMT 54.827225 10.381331 31,000 252 444 1280
2019-04-17 08:21:28 GMT 54.829239 10.391774 30,900 252 444 1280
2019-04-17 08:21:25 GMT 54.830933 10.400579 30,900 252 444 1280
2019-04-17 08:21:22 GMT 54.833836 10.415788 30,650 252 446 1280
2019-04-17 08:21:19 GMT 54.835136 10.422530 30,725 252 445 1344
2019-04-17 08:21:15 GMT 54.838257 10.438760 30,625 252 445 1344
2019-04-17 08:21:08 GMT 54.842239 10.459388 30,475 252 446 1280
2019-04-17 08:21:05 GMT 54.844261 10.469887 30,375 252 446 1280
2019-04-17 08:21:02 GMT 54.846268 10.480392 30,375 252 446 1216
2019-04-17 08:20:58 GMT 54.848915 10.494357 30,250 252 446 1280
2019-04-17 08:20:55 GMT 54.851151 10.505843 30,175 252 446 1344
2019-04-17 08:20:49 GMT 54.854271 10.522156 29,775 252 447 1408
2019-04-17 08:20:45 GMT 54.857071 10.536777 29,950 252 447 1408
2019-04-17 08:20:42 GMT 54.859177 10.547683 29,825 252 449 1536
2019-04-17 08:20:38 GMT 54.861580 10.560275 29,775 252 449 1472
2019-04-17 08:20:33 GMT 54.865448 10.580399 29,550 252 449 1472
2019-04-17 08:20:28 GMT 54.868469 10.596071 29,500 252 450 1472
2019-04-17 08:20:22 GMT 54.872269 10.615863 29,325 252 451 1536
2019-04-17 08:20:18 GMT 54.875153 10.630969 29,250 252 451 1728
2019-04-17 08:20:14 GMT 54.878014 10.645669 29,125 252 452 1856
2019-04-17 08:20:11 GMT 54.879597 10.653908 29,075 252 455 1536
2019-04-17 08:20:07 GMT 54.881969 10.666310 28,825 252 454 1600
2019-04-17 08:20:03 GMT 54.884674 10.680488 28,750 252 454 1600
2019-04-17 08:19:59 GMT 54.887604 10.695675 28,700 252 455 1536
2019-04-17 08:19:56 GMT 54.889023 10.703269 28,325 252 455 1344
2019-04-17 08:19:53 GMT 54.891605 10.716747 26,375 252 452 1216
2019-04-17 08:19:50 GMT 54.893555 10.726776 28,475 252 455 1216
2019-04-17 08:19:47 GMT 54.895248 10.735743 28,375 252 455 1216
2019-04-17 08:19:44 GMT 54.897427 10.747209 28,350 252 455 1216
2019-04-17 08:19:40 GMT 54.899940 10.760359 28,275 252 455 1024
2019-04-17 08:19:37 GMT 54.902390 10.773145 28,200 252 455 1152
2019-04-17 08:19:33 GMT 54.904408 10.783830 28,175 252 455 1152
2019-04-17 08:19:30 GMT 54.907104 10.798026 28,025 252 453 1152
2019-04-17 08:19:26 GMT 54.909073 10.808366 27,900 252 453 960
2019-04-17 08:19:19 GMT 54.914200 10.835266 27,850 252 452 1024
2019-04-17 08:19:16 GMT 54.915672 10.843256 27,775 252 452 1152
2019-04-17 08:19:12 GMT 54.918228 10.856673 27,700 252 452 1216
2019-04-17 08:19:08 GMT 54.920837 10.870406 27,675 252 451 1088
2019-04-17 08:19:05 GMT 54.922760 10.880746 27,600 252 451 896
2019-04-17 08:19:01 GMT 54.926285 10.899245 27,500 252 450 960
2019-04-17 08:18:57 GMT 54.928520 10.911255 27,425 252 450 1024
2019-04-17 08:18:54 GMT 54.929901 10.918471 27,375 252 449 1152
2019-04-17 08:18:50 GMT 54.932739 10.933497 27,325 252 449 1088
2019-04-17 08:18:46 GMT 54.934937 10.945129 27,175 252 448 1024
2019-04-17 08:18:43 GMT 54.937637 10.959509 27,150 252 448 960
2019-04-17 08:18:39 GMT 54.939507 10.969349 27,125 252 447 1024
2019-04-17 08:18:34 GMT 54.942764 10.986732 27,025 252 445 1344
2019-04-17 08:18:31 GMT 54.944550 10.996264 26,850 253 444 1280
2019-04-17 08:18:28 GMT 54.946335 11.005797 26,825 252 445 1088
2019-04-17 08:18:24 GMT 54.949493 11.022761 26,775 252 445 1088
2019-04-17 08:18:20 GMT 54.952286 11.037705 26,650 253 444 1280
2019-04-17 08:18:13 GMT 54.956314 11.059071 26,550 253 443 1344
2019-04-17 08:18:09 GMT 54.959152 11.074300 26,350 253 443 1408
2019-04-17 08:18:06 GMT 54.961201 11.085538 26,325 253 443 1344
2019-04-17 08:18:03 GMT 54.962738 11.093611 26,300 253 443 1280
2019-04-17 08:17:58 GMT 54.966064 11.111540 26,175 253 442 1408
2019-04-17 08:17:55 GMT 54.967999 11.121993 26,100 253 442 1408
2019-04-17 08:17:52 GMT 54.969315 11.129150 26,000 253 442 1280
2019-04-17 08:17:49 GMT 54.971786 11.142641 25,925 253 441 1088
2019-04-17 08:17:45 GMT 54.975769 11.164210 25,825 250 440 1472
2019-04-17 08:17:42 GMT 54.977463 11.172934 25,775 251 440 1472
2019-04-17 08:17:39 GMT 54.977463 11.172934 25,725 250 440 1472
2019-04-17 08:17:36 GMT 54.979683 11.183916 25,525 249 440 1408
2019-04-17 08:17:33 GMT 54.983501 11.201061 25,550 249 440 1408
2019-04-17 08:17:27 GMT 54.985966 11.211465 25,500 247 438 1088
2019-04-17 08:17:24 GMT 54.989597 11.225614 25,400 245 437 1536
2019-04-17 08:17:21 GMT 54.991241 11.231663 25,350 245 437 1536
2019-04-17 08:17:17 GMT 54.994720 11.243924 25,225 244 437 1472
2019-04-17 08:17:14 GMT 54.996952 11.251415 25,150 242 437 1280
2019-04-17 08:17:11 GMT 55.001469 11.265481 24,550 240 435 1472
2019-04-17 08:17:06 GMT 55.005020 11.276012 25,000 239 435 1472
2019-04-17 08:17:03 GMT 55.009617 11.288785 24,925 238 435 1408
2019-04-17 08:17:00 GMT 55.012070 11.295561 24,850 238 434 1344
2019-04-17 08:16:57 GMT 55.015732 11.305578 24,750 238 434 1280
2019-04-17 08:16:54 GMT 55.018600 11.313504 24,700 238 434 1216
2019-04-17 08:16:50 GMT 55.023952 11.328236 24,575 238 431 1216
2019-04-17 08:16:46 GMT 55.027351 11.337641 24,525 238 431 1216
2019-04-17 08:16:42 GMT 55.034569 11.357533 24,375 238 430 1216
2019-04-17 08:16:39 GMT 55.034569 11.357533 24,375 238 429 1216
2019-04-17 08:16:33 GMT 55.040634 11.374162 24,175 238 428 1472
2019-04-17 08:16:28 GMT 55.046310 11.389914 24,125 238 427 1472
2019-04-17 08:16:24 GMT 55.050629 11.401811 24,000 238 426 1472
2019-04-17 08:16:21 GMT 55.054321 11.411968 23,900 238 426 1600
2019-04-17 08:16:18 GMT 55.056911 11.419206 23,850 238 426 1536
2019-04-17 08:16:15 GMT 55.059540 11.426428 23,775 238 425 1280
2019-04-17 08:16:11 GMT 55.064266 11.439514 23,675 238 425 1280
2019-04-17 08:16:07 GMT 55.068146 11.450177 23,575 238 424 1344
2019-04-17 08:16:04 GMT 55.070618 11.457125 23,525 238 423 1536
2019-04-17 08:16:00 GMT 55.076370 11.472973 23,425 238 422 1664
2019-04-17 08:15:57 GMT 55.078651 11.479298 23,300 238 422 1664
2019-04-17 08:15:53 GMT 55.085175 11.497435 23,200 238 421 1600
2019-04-17 08:15:50 GMT 55.085175 11.497435 23,125 238 421 1600
2019-04-17 08:15:47 GMT 55.088699 11.507209 23,075 238 421 1600
2019-04-17 08:15:44 GMT 55.091686 11.515503 22,900 238 420 1600
2019-04-17 08:15:39 GMT 55.098129 11.533625 22,750 238 420 1600
2019-04-17 08:15:36 GMT 55.100300 11.539640 22,725 238 418 1536
2019-04-17 08:15:33 GMT 55.103371 11.548212 22,625 238 418 1536
2019-04-17 08:15:29 GMT 55.107281 11.559032 22,525 238 417 1408
2019-04-17 08:15:26 GMT 55.110775 11.568770 22,450 239 417 1408
2019-04-17 08:15:23 GMT 55.113281 11.575874 22,375 238 416 1408
2019-04-17 08:15:16 GMT 55.121658 11.599139 22,150 238 414 1344
2019-04-17 08:15:09 GMT 55.127930 11.616669 22,025 238 412 1216
2019-04-17 08:15:06 GMT 55.130539 11.623939 21,950 238 399 1472
2019-04-17 08:15:03 GMT 55.134094 11.633772 21,875 239 410 1280
2019-04-17 08:14:57 GMT 55.140198 11.650920 21,750 238 407 1280
2019-04-17 08:14:53 GMT 55.144180 11.662068 21,650 238 407 1280
2019-04-17 08:14:48 GMT 55.149273 11.676220 21,525 238 405 1344
2019-04-17 08:14:45 GMT 55.151646 11.682795 21,425 238 403 1472
2019-04-17 08:14:42 GMT 55.154812 11.691700 21,375 238 403 1472
2019-04-17 08:14:38 GMT 55.159470 11.704640 21,275 239 402 1472
2019-04-17 08:14:35 GMT 55.162308 11.712591 21,175 239 400 1472
2019-04-17 08:14:32 GMT 55.165424 11.721330 21,100 239 399 1536
2019-04-17 08:14:27 GMT 55.169521 11.732816 20,975 239 397 1664
2019-04-17 08:14:24 GMT 55.172455 11.740972 20,900 239 397 1728
2019-04-17 08:14:21 GMT 55.175945 11.750793 20,800 239 397 1792
2019-04-17 08:14:16 GMT 55.180370 11.763278 20,650 239 395 1792
2019-04-17 08:14:12 GMT 55.184418 11.774680 20,525 239 395 1728
2019-04-17 08:14:09 GMT 55.186249 11.779848 20,325 239 394 1792
2019-04-17 08:14:06 GMT 55.190613 11.791992 20,325 239 394 1984
2019-04-17 08:14:03 GMT 55.192978 11.798751 20,250 239 393 2176
2019-04-17 08:14:00 GMT 55.196339 11.808222 20,100 239 393 2240
2019-04-17 08:13:55 GMT 55.200485 11.819754 19,950 239 393 2048
2019-04-17 08:13:52 GMT 55.202957 11.826782 19,850 239 393 1984
2019-04-17 08:13:49 GMT 55.206299 11.836187 19,725 239 392 1984
2019-04-17 08:13:45 GMT 55.210419 11.847786 19,575 239 391 2240
2019-04-17 08:13:40 GMT 55.214218 11.858529 19,425 239 392 2304
2019-04-17 08:13:36 GMT 55.218727 11.871227 19,250 239 392 2304
2019-04-17 08:13:31 GMT 55.223476 11.884627 19,025 239 392 2112
2019-04-17 08:13:28 GMT 55.226669 11.893589 18,925 239 390 2048
2019-04-17 08:13:24 GMT 55.230320 11.903936 18,775 239 390 2048
2019-04-17 08:13:20 GMT 55.233765 11.913591 18,650 239 390 2112
2019-04-17 08:13:15 GMT 55.238022 11.925659 18,350 239 389 2112
2019-04-17 08:13:12 GMT 55.240932 11.933982 18,375 239 389 2112
2019-04-17 08:13:09 GMT 55.243774 11.941972 18,250 239 388 2176
2019-04-17 08:13:05 GMT 55.247498 11.952398 18,125 239 388 2176
2019-04-17 08:13:02 GMT 55.250618 11.961198 18,025 239 385 2048
2019-04-17 08:12:58 GMT 55.254200 11.971269 17,925 239 387 2048
2019-04-17 08:12:54 GMT 55.258160 11.982422 17,625 239 385 2112
2019-04-17 08:12:48 GMT 55.263233 11.996737 17,500 239 384 2112
2019-04-17 08:12:45 GMT 55.266678 12.006522 17,325 239 384 2048
2019-04-17 08:12:42 GMT 55.269470 12.014438 17,225 239 383 2112
2019-04-17 08:12:38 GMT 55.273289 12.025285 17,150 239 382 2112
2019-04-17 08:12:33 GMT 55.278030 12.038673 16,850 239 382 2240
2019-04-17 08:12:30 GMT 55.281189 12.047640 16,850 239 382 2240
2019-04-17 08:12:27 GMT 55.283569 12.054506 16,700 239 381 2112
2019-04-17 08:12:23 GMT 55.287506 12.065654 16,550 239 379 1984
2019-04-17 08:12:17 GMT 55.293182 12.081649 16,425 239 378 1984
2019-04-17 08:12:14 GMT 55.294830 12.086334 16,275 239 378 2112
2019-04-17 08:12:10 GMT 55.299450 12.099526 16,050 239 375 2240
2019-04-17 08:12:02 GMT 55.307190 12.121636 15,700 239 374 2240
2019-04-17 08:11:58 GMT 55.310947 12.132319 15,600 239 373 2496
2019-04-17 08:11:53 GMT 55.314468 12.142235 15,425 239 373 2688
2019-04-17 08:11:50 GMT 55.316486 12.147966 15,225 239 373 2432
2019-04-17 08:11:47 GMT 55.319748 12.157288 15,175 239 372 2304
2019-04-17 08:11:42 GMT 55.323750 12.168524 15,050 239 372 2240
2019-04-17 08:11:39 GMT 55.327755 12.180093 14,825 239 370 2432
2019-04-17 08:11:36 GMT 55.329437 12.184807 14,750 239 370 2496
2019-04-17 08:11:33 GMT 55.332363 12.193243 14,550 239 370 2304
2019-04-17 08:11:30 GMT 55.335846 12.203145 14,450 239 369 2240
2019-04-17 08:11:27 GMT 55.338646 12.211137 14,300 239 369 2304
2019-04-17 08:11:24 GMT 55.341068 12.218129 14,225 239 368 2368
2019-04-17 08:11:18 GMT 55.346420 12.233438 14,000 239 368 2496
2019-04-17 08:11:15 GMT 55.348160 12.238527 13,925 239 368 2560
2019-04-17 08:11:12 GMT 55.351215 12.247259 13,725 239 366 2624
2019-04-17 08:11:06 GMT 55.356522 12.262573 13,450 239 366 2624
2019-04-17 08:11:02 GMT 55.360153 12.272940 13,275 239 366 2624
2019-04-17 08:10:56 GMT 55.364948 12.286876 13,075 239 366 2432
2019-04-17 08:10:53 GMT 55.370770 12.303772 12,775 239 366 2240
2019-04-17 08:10:45 GMT 55.374397 12.314425 12,625 239 364 2368
2019-04-17 08:10:41 GMT 55.377960 12.324721 12,425 239 364 2432
2019-04-17 08:10:36 GMT 55.383133 12.339504 12,175 239 364 2368
2019-04-17 08:10:33 GMT 55.389679 12.358569 11,875 239 362 2560
2019-04-17 08:10:24 GMT 55.393162 12.368774 11,700 239 362 2432
2019-04-17 08:10:20 GMT 55.396637 12.378926 11,525 239 362 2368
2019-04-17 08:10:14 GMT 55.401680 12.393743 11,275 239 362 2432
2019-04-17 08:10:10 GMT 55.404751 12.402649 11,125 239 362 2432
2019-04-17 08:10:04 GMT 55.410385 12.419128 10,850 239 361 2432
2019-04-17 08:10:00 GMT 55.413666 12.428607 10,700 239 360 2176
2019-04-17 08:09:54 GMT 55.419937 12.446783 10,425 239 359 1920
2019-04-17 08:09:50 GMT 55.422672 12.454584 10,350 239 357 1984
2019-04-17 08:09:43 GMT 55.429424 12.473810 10,075 239 355 1984
2019-04-17 08:09:40 GMT 55.431053 12.478554 10,000 239 355 2048
2019-04-17 08:09:33 GMT 55.438129 12.498446 9,750 239 353 2240
2019-04-17 08:09:30 GMT 55.439850 12.503330 9,675 238 352 2304
2019-04-17 08:09:23 GMT 55.446136 12.520895 9,375 238 351 2112
2019-04-17 08:09:20 GMT 55.448822 12.528409 9,250 238 350 2048
2019-04-17 08:09:13 GMT 55.454819 12.545055 9,000 238 348 1984
2019-04-17 08:09:09 GMT 55.457588 12.552824 8,900 238 347 1984
2019-04-17 08:09:02 GMT 55.466713 12.578144 8,550 238 343 1920
2019-04-17 08:08:59 GMT 55.466713 12.578144 8,550 238 342 1920
2019-04-17 08:08:54 GMT 55.470577 12.588873 8,375 238 339 2240
2019-04-17 08:08:51 GMT 55.473816 12.597906 8,300 238 339 2240
2019-04-17 08:08:48 GMT 55.475739 12.603316 8,150 238 339 2304
2019-04-17 08:08:40 GMT 55.482056 12.620794 7,875 238 338 2240
2019-04-17 08:08:37 GMT 55.484356 12.627239 7,800 238 337 2304
2019-04-17 08:08:30 GMT 55.490685 12.645006 7,325 239 336 2688
2019-04-17 08:08:27 GMT 55.493362 12.652588 7,275 239 335 2688
2019-04-17 08:08:19 GMT 55.499268 12.669400 6,950 239 335 2560
2019-04-17 08:08:16 GMT 55.502014 12.677307 6,800 239 335 2560
2019-04-17 08:08:11 GMT 55.508377 12.695990 6,475 240 335 2496
2019-04-17 08:08:08 GMT 55.508377 12.695990 6,325 240 334 2496
2019-04-17 08:08:05 GMT 55.510471 12.702084 6,325 240 335 2560
2019-04-17 08:08:01 GMT 55.514008 12.712846 6,050 240 333 2560
2019-04-17 08:07:58 GMT 55.516476 12.720280 5,975 241 334 2496
2019-04-17 08:07:54 GMT 55.518990 12.728090 5,875 241 333 2496
2019-04-17 08:07:51 GMT 55.521736 12.736588 5,700 241 333 2432
2019-04-17 08:07:48 GMT 55.524124 12.744141 5,550 242 332 2432
2019-04-17 08:07:44 GMT 55.526459 12.751548 5,425 242 331 2496
2019-04-17 08:07:41 GMT 55.529743 12.762165 5,225 242 330 2816
2019-04-17 08:07:37 GMT 55.531586 12.768111 5,150 242 331 2944
2019-04-17 08:07:34 GMT 55.534927 12.778847 4,875 241 330 3072
2019-04-17 08:07:28 GMT 55.539642 12.792164 4,575 234 329 2368
2019-04-17 08:07:23 GMT 55.543430 12.800188 4,250 215 322 1280
2019-04-17 08:07:17 GMT 55.550598 12.810574 4,250 213 320 1088
2019-04-17 08:07:13 GMT 55.555984 12.815718 4,025 156 264 832
2019-04-17 08:07:10 GMT 55.561203 12.819047 4,125 196 308 960
2019-04-17 08:07:07 GMT 55.563168 12.819929 4,100 190 304 1216
2019-04-17 08:07:04 GMT 55.569500 12.821646 4,025 184 299 1216
2019-04-17 08:07:01 GMT 55.571548 12.821732 3,975 176 295 960
2019-04-17 08:06:57 GMT 55.577927 12.820787 3,925 167 288 640
2019-04-17 08:06:52 GMT 55.584412 12.817633 3,850 159 280 896
2019-04-17 08:06:49 GMT 55.588028 12.815219 3,800 157 275 1024
2019-04-17 08:06:46 GMT 55.590866 12.813138 3,750 156 273 1024
2019-04-17 08:06:41 GMT 55.596920 12.808514 3,675 156 266 832
2019-04-17 08:06:38 GMT 55.600082 12.806110 3,625 156 262 832
2019-04-17 08:06:35 GMT 55.603729 12.803317 3,575 156 257 960
2019-04-17 08:06:31 GMT 55.608948 12.799405 3,500 156 251 1152
2019-04-17 08:06:28 GMT 55.611053 12.797824 3,450 156 248 1152
2019-04-17 08:06:25 GMT 55.614212 12.795410 3,400 156 244 1152
2019-04-17 08:06:18 GMT 55.621582 12.789751 3,275 156 235 704
2019-04-17 08:06:15 GMT 55.624664 12.787399 3,225 156 227 1344
2019-04-17 08:06:11 GMT 55.629692 12.783623 3,100 156 223 2112
2019-04-17 08:06:07 GMT 55.631927 12.781820 3,000 156 222 2240
2019-04-17 08:06:03 GMT 55.636070 12.778559 2,825 155 220 2240
2019-04-17 08:05:58 GMT 55.641129 12.774436 2,625 154 218 2368
2019-04-17 08:05:54 GMT 55.644310 12.771778 2,475 152 217 2240
2019-04-17 08:05:47 GMT 55.650360 12.765598 2,300 146 213 960
2019-04-17 08:05:44 GMT 55.652710 12.762285 2,225 133 205 960
2019-04-17 08:05:37 GMT 55.657242 12.752297 2,075 116 197 1280
2019-04-17 08:05:32 GMT 55.658600 12.747231 1,975 111 195 1216
2019-04-17 08:05:26 GMT 55.659809 12.735472 1,800 84 189 1088
2019-04-17 08:05:22 GMT 55.659714 12.731656 1,775 82 188 1152
2019-04-17 08:05:17 GMT 55.658367 12.722340 1,625 67 186 1792
2019-04-17 08:05:14 GMT 55.656509 12.716259 1,475 54 189 1984
2019-04-17 08:05:06 GMT 55.653248 12.709551 1,300 42 191 1536
2019-04-17 08:05:03 GMT 55.651432 12.706633 1,225 40 190 1408
2019-04-17 08:05:00 GMT 55.649323 12.703525 1,025 39 186 1152
2019-04-17 08:04:56 GMT 55.646313 12.699080 1,025 39 186 1280
2019-04-17 08:04:53 GMT 55.644634 12.696590 975 39 183 1024
2019-04-17 08:04:50 GMT 55.642593 12.693620 925 39 180 1280
2019-04-17 08:04:46 GMT 55.639938 12.689708 800 39 177 2240
2019-04-17 08:04:43 GMT 55.637787 12.686546 625 41 172 2112
2019-04-17 08:04:36 GMT 55.633301 12.679887 400 40 173 2176
2019-04-17 08:04:31 GMT 55.630901 12.676249 -50 41 172 2112
2019-04-17 08:04:25 GMT 55.627304 12.670566 25 41 169 1856
2019-04-17 08:04:20 GMT 55.624664 12.666378 -125 41 168 1792
2019-04-17 08:04:15 GMT 55.621536 12.661410 -300 41 166 2112
2019-04-17 08:04:10 GMT 55.618687 12.657103 0 42 175
2019-04-17 08:03:58 GMT 55.612339 12.647324 0 42 140
2019-04-17 08:03:47 GMT 55.607986 12.640603 0 42 98
2019-04-17 08:03:39 GMT 55.605576 12.636852 0 42 65
2019-04-17 08:03:08 GMT 55.603317 12.633383 0 64 10
2019-04-17 08:02:43 GMT 55.603958 12.631614 0 132 12
2019-04-17 08:02:30 GMT 55.604507 12.631080 0 191 12
2019-04-17 08:02:23 GMT 55.604797 12.631252 0 216 12
2019-04-17 08:02:05 GMT 55.605824 12.632840 0 222 21
2019-04-17 08:01:51 GMT 55.606819 12.634236 0 213 21
2019-04-17 08:01:43 GMT 55.607464 12.634985 0 213 21
2019-04-17 08:01:33 GMT 55.608192 12.635817 0 213 20
2019-04-17 08:01:14 GMT 55.609558 12.637389 0 213 19
2019-04-17 08:01:06 GMT 55.610069 12.637981 0 213 17
2019-04-17 08:01:02 GMT 55.610298 12.638231 0 213 15
2019-04-17 08:00:50 GMT 55.610893 12.638938 0 213 13
2019-04-17 08:00:45 GMT 55.611153 12.639234 0 213 13
2019-04-17 08:00:41 GMT 55.611328 12.639438 0 213 13
2019-04-17 08:00:31 GMT 55.611851 12.640028 0 213 14
2019-04-17 08:00:23 GMT 55.612278 12.640520 0 213 14
2019-04-17 08:00:09 GMT 55.612930 12.641269 0 213 14
2019-04-17 07:59:59 GMT 55.613445 12.641851 0 213 15
2019-04-17 07:59:50 GMT 55.613914 12.642392 0 213 15
2019-04-17 07:59:40 GMT 55.614487 12.643058 0 213 15
2019-04-17 07:59:30 GMT 55.615086 12.643740 0 213 16
2019-04-17 07:59:19 GMT 55.615677 12.644452 0 213 16
2019-04-17 07:59:08 GMT 55.616295 12.645113 0 213 15
2019-04-17 07:58:55 GMT 55.617065 12.645671 0 177 15
2019-04-17 07:58:46 GMT 55.617725 12.645493 0 168 15
2019-04-17 07:58:35 GMT 55.618355 12.645285 0 168 15
2019-04-17 07:58:27 GMT 55.618916 12.645097 0 171 16
2019-04-17 07:58:10 GMT 55.620193 12.645500 0 213 18
2019-04-17 07:58:03 GMT 55.620609 12.645992 0 213 20
2019-04-17 07:57:56 GMT 55.621101 12.646551 0 213 18
2019-04-17 07:57:40 GMT 55.621971 12.647552 0 210 12
2019-04-17 07:57:34 GMT 55.622208 12.647796 0 205 10
2019-04-17 07:57:24 GMT 55.622612 12.647927 0 171 10
2019-04-17 07:57:20 GMT 55.622791 12.647860 0 160 10
2019-04-17 07:57:08 GMT 55.623173 12.647238 0 123 13
2019-04-17 07:57:04 GMT 55.623299 12.646887 0 123 13
2019-04-17 07:56:10 GMT 55.625130 12.642281 0 123 13
2019-04-17 07:55:56 GMT 55.625507 12.641289 0 123 12
2019-04-17 07:55:24 GMT 55.626366 12.638959 0 126 11
2019-04-17 07:55:20 GMT 55.626492 12.638689 0 143 10

Making use of Plane Finder data

You are free to use the raw flight data, aircraft information and images provided in this report for your own purposes provided the data is correctly attributed to Plane Finder. We ask that you please credit Plane Finder and link to planefinder.net in close proximity to the content.

Optionally one of the following logos (no smaller then 150x24px) can be used and must link to planefinder.net

Embedding the Plane Finder map

You are welcome to embed the Plane Finder playback map on your website to offer visitors a more interactive experience. We suggest using the following HTML code:

<iframe src="//planefinder.net/data/report/J4265-OY-JZJ-7700-squawk-2019-04-17/map" width="800" height="600" seamless="seamless"></iframe>

Where our data comes from

Plane Finder has a global network of data feeds and antenna radars that receive data broadcast directly from aircraft. The primary technologies used are ADS-B and MLAT. We also show feeds from the FAA and a FLARM glider feed.

Click here to find out more about the Plane Finder network.

How we collect our data